[[{"header":{"parameterUnit":"m.s-1","parameterCategory":1,"la1":30.6,"la2":29.2853,"lo1":-89.7004,"lo2":-87.6739,"dy":0.0162,"dx":0.0183,"nx":112,"ny":82,"refTime":"2024-03-18T06:00:00:Z","depth":0,"parameterNumber":2,"parameterNumberName":"U-component_of_WINDS"},"data":[0.0,0.0,0.0,0.0,0.0,0.0,0.0,0.0,0.0,0.0,0.0,0.0,0.0,0.0,0.0,0.0,0.0,0.0,0.0,0.0,0.0,0.0,0.0,0.0,0.0,0.0,0.0,0.0,0.0,0.0,0.0,0.0,0.0,0.0,0.0,0.0,0.0,0.0,0.0,0.0,0.0,0.0,0.0,0.0,0.0,0.0,0.0,0.0,0.0,0.0,0.0,0.0,0.0,0.0,0.0,0.0,0.0,0.0,0.0,0.0,0.0,0.0,0.0,0.0,0.0,0.0,0.0,0.0,0.0,0.0,0.0,0.0,0.0,0.0,0.0,0.0,0.0,0.0,0.0,0.0,0.0,0.0,0.0,0.0,0.0,0.0,0.0,0.0,0.0,0.0,0.0,0.4325,0.4311,0.4308,0.4325,0.4415,0.4418,0.4306,0.0,0.0,0.0,0.0,0.0,0.0,0.0,0.0,0.0,0.0,0.0,0.0,0.0,0.0,0.0,0.0,0.0,0.0,0.0,0.0,0.0,0.0,0.0,0.0,0.0,0.0,0.0,0.0,0.0,0.0,0.0,0.0,0.0,0.0,0.0,0.0,0.0,0.0,0.0,0.0,0.0,0.0,0.0,0.0,0.0,0.0,0.0,0.0,0.0,0.0,0.0,0.0,0.0,0.0,0.0,0.0,0.0,0.0,0.0,0.0,0.0,0.0,0.0,0.0,0.0,0.0,0.0,0.0,0.0,0.0,0.0,0.0,0.0,0.0,0.0,0.0,0.0,0.0,0.0,0.0,0.0,0.0,0.0,0.0,0.0,0.0,0.0,0.0,0.0,0.0,0.0,0.0,0.0,0.0,0.0,0.0,0.0,0.0,0.0,0.0,0.0,0.0,0.0,0.0,0.4338,0.4451,0.4374,0.4341,0.4453,0.4388,0.4319,0.4303,0.0,0.0,0.0,0.0,0.0,0.0,0.0,0.0,0.0,0.0,0.0,0.0,0.0,0.0,0.0,0.0,0.0,0.0,0.0,0.0,0.0,0.0,0.0,0.0,0.0,0.0,0.0,0.0,0.0,0.0,0.0,0.0,0.0,0.0,0.0,0.0,0.0,0.0,0.0,0.0,0.0,0.0,0.0,0.0,0.0,0.0,0.0,0.0,0.0,0.0,0.0,0.0,0.0,0.0,0.0,0.0,0.0,0.0,0.0,0.0,0.0,0.0,0.0,0.0,0.0,0.0,0.0,0.0,0.0,0.0,0.0,0.0,0.0,0.0,0.0,0.0,0.0,0.0,0.0,0.0,0.0,0.0,0.0,0.0,0.0,0.0,0.0,0.0,0.0,0.0,0.0,0.0,0.0,0.0,0.0,0.0,0.0,0.0,0.0,0.0,0.0,0.0,0.0,0.435,0.4319,0.4391,0.4333,0.4322,0.4391,0.433,0.43,0.43,0.4349,0.0,0.0,0.0,0.0,0.0,0.0,0.0,0.0,0.0,0.0,0.0,0.0,0.0,0.0,0.0,0.0,0.0,0.0,0.0,0.0,0.0,0.0,0.0,0.0,0.0,0.0,0.0,0.0,0.0,0.0,0.0,0.0,0.0,0.0,0.0,0.0,0.0,0.0,0.0,0.0,0.0,0.0,0.0,0.0,0.0,0.0,0.0,0.0,0.0,0.0,0.0,0.0,0.0,0.0,0.0,0.0,0.0,0.0,0.0,0.0,0.0,0.0,0.0,0.0,0.0,0.0,0.0,0.0,0.0,0.0,0.0,0.0,0.0,0.0,0.0,0.0,0.0,0.0,0.0,0.0,0.0,0.0,0.0,0.0,0.0,0.0,0.0,0.0,0.0,0.0,0.0,0.0,0.0,0.0,0.0,0.0,0.0,0.0,0.0,0.0,0.0,0.0,0.43,0.43,0.43,0.43,0.43,0.43,0.43,0.43,0.43,0.43,0.0,0.0,0.0,0.0,0.0,0.0,0.0,0.0,0.0,0.0,0.0,0.0,0.0,0.0,0.0,0.0,0.0,0.0,0.0,0.0,0.0,0.0,0.0,0.0,0.0,0.0,0.0,0.0,0.0,0.0,0.0,0.0,0.0,0.0,0.0,0.0,0.0,0.0,0.0,0.0,0.0,0.0,0.0,0.0,0.0,0.0,0.0,0.0,0.0,0.0,0.0,0.0,0.0,0.0,0.0,0.0,0.0,0.0,0.0,0.0,0.0,0.0,0.0,0.0,0.0,0.0,0.0,0.0,0.0,0.0,0.0,0.0,0.0,0.0,0.0,0.0,0.0,0.0,0.0,0.0,0.0,0.0,0.0,0.0,0.0,0.0,0.0,0.0,0.0,0.0,0.0,0.0,0.0,0.0,0.0,0.0,0.0,0.0,0.0,0.0,0.0,0.0,0.43,0.43,0.43,0.43,0.43,0.43,0.43,0.43,0.43,0.43,0.0,0.0,0.0,0.0,0.0,0.0,0.0,0.0,0.0,0.0,0.0,0.0,0.0,0.0,0.0,0.0,0.0,0.0,0.0,0.0,0.0,0.0,0.0,0.0,0.0,0.0,0.0,0.0,0.0,0.0,0.0,0.0,0.0,0.0,0.0,0.0,0.0,0.0,0.0,0.0,0.0,0.0,0.0,0.0,0.0,0.0,0.0,0.0,0.0,0.0,0.0,0.0,0.0,0.0,0.0,0.0,0.0,0.0,0.0,0.0,0.0,0.0,0.0,0.0,0.0,0.0,0.0,0.0,0.0,0.0,0.0,0.0,0.0,0.0,0.0,0.0,0.0,0.0,0.0,0.0,0.0,0.0,0.0,0.0,0.0,0.0,0.0,0.0,0.0,0.0,0.0,0.0,0.0,0.0,0.0,0.0,0.0,0.0,0.0,0.0,0.0,0.0,0.43,0.43,0.0,0.43,0.43,0.43,0.4114,0.4081,0.4284,0.0,0.0,0.0,0.0,0.0,0.0,0.0,0.0,0.0,0.0,0.0,0.0,0.0,0.0,0.0,0.0,0.0,0.0,0.0,0.0,0.0,0.0,0.0,0.0,0.0,0.0,0.0,0.0,0.0,0.0,0.0,0.0,0.0,0.0,0.0,0.0,0.0,0.0,0.0,0.0,0.0,0.0,0.0,0.0,0.0,0.0,0.0,0.0,0.0,0.0,0.0,0.0,0.0,0.0,0.0,0.0,0.0,0.0,0.0,0.0,0.0,0.0,0.0,0.0,0.0,0.0,0.0,0.0,0.0,0.0,0.0,0.0,0.0,0.0,0.0,0.0,0.0,0.0,0.0,0.0,0.0,0.0,0.0,0.0,0.0,0.0,0.0,0.0,0.0,0.0,0.0,0.0,0.0,0.0,0.0,0.0,0.0,0.0,0.0,0.0,0.0,0.0,0.43,0.4333,0.4371,0.0,0.4371,0.4304,0.4186,0.3948,0.3892,0.4131,0.0,0.0,0.0,0.0,0.0,0.0,0.0,0.0,0.0,0.0,0.0,0.0,0.0,0.0,0.0,0.0,0.0,0.0,0.0,0.0,0.0,0.0,0.0,0.0,0.0,0.0,0.0,0.0,0.0,0.0,0.0,0.0,0.0,0.0,0.0,0.0,0.0,0.0,0.0,0.0,0.0,0.0,0.0,0.0,0.0,0.0,0.0,0.0,0.0,0.0,0.0,0.0,0.0,0.0,0.0,0.0,0.0,0.0,0.0,0.0,0.0,0.0,0.0,0.0,0.0,0.0,0.0,0.0,0.0,0.0,0.0,0.0,0.0,0.0,0.0,0.0,0.0,0.0,0.0,0.0,0.0,0.0,0.0,0.0,0.0,0.0,0.0,0.0,0.0,0.0,0.0,0.0,0.0,0.0,0.0,0.0,0.0,0.0,0.0,0.0,0.0,0.0,0.4303,0.4418,0.4503,0.4489,0.4489,0.4333,0.3935,0.3837,0.3792,0.0,0.0,0.0,0.0,0.0,0.0,0.0,0.0,0.0,0.0,0.0,0.0,0.0,0.0,0.0,0.0,0.0,0.0,0.0,0.0,0.0,0.0,0.0,0.0,0.0,0.0,0.0,0.0,0.0,0.0,0.0,0.0,0.0,0.0,0.0,0.0,0.0,0.0,0.0,0.0,0.0,0.0,0.0,0.0,0.0,0.0,0.0,0.0,0.0,0.0,0.0,0.0,0.0,0.0,0.0,0.0,0.0,0.0,0.0,0.0,0.0,0.0,0.0,0.0,0.0,0.0,0.0,0.0,0.0,0.0,0.0,0.0,0.0,0.0,0.0,0.0,0.0,0.0,0.0,0.0,0.0,0.0,0.0,0.0,0.0,0.0,0.0,0.0,0.0,0.0,0.0,0.0,0.0,0.0,0.0,0.0,0.0,0.0,0.0,0.0,0.0,0.0,0.0,0.4426,0.4484,0.4414,0.4181,0.4153,0.3963,0.3506,0.3247,0.3171,0.3364,0.0,0.0,0.0,0.0,0.0,0.0,0.0,0.0,0.0,0.0,0.0,0.0,0.0,0.0,0.0,0.0,0.0,0.0,0.0,0.0,0.0,0.0,0.0,0.0,0.0,0.0,0.0,0.0,0.0,0.0,0.0,0.0,0.0,0.0,0.0,0.0,0.0,0.0,0.0,0.0,0.0,0.0,0.0,0.0,0.0,0.0,0.0,0.0,0.0,0.0,0.0,0.0,0.0,0.0,0.0,0.0,0.0,0.0,0.0,0.0,0.0,0.0,0.0,0.0,0.0,0.0,0.0,0.0,0.0,0.0,0.0,0.0,0.0,0.0,0.0,0.0,0.0,0.0,0.0,0.0,0.0,0.0,0.0,0.0,0.0,0.0,0.0,0.0,0.0,0.0,0.0,0.0,0.0,0.0,0.0,0.0,0.0,0.0,0.0,0.0,0.0,0.0,0.4282,0.4209,0.4063,0.3854,0.3843,0.3654,0.3222,0.297,0.2902,0.3029,0.0,0.0,0.0,0.0,0.0,0.0,0.0,0.0,0.0,0.0,0.0,0.0,0.0,0.0,0.0,0.0,0.0,0.0,0.0,0.0,0.0,0.0,0.0,0.0,0.0,0.0,0.0,0.0,0.0,0.0,0.0,0.0,0.0,0.0,0.0,0.0,0.0,0.0,0.0,0.0,0.0,0.0,0.0,0.0,0.0,0.0,0.0,0.0,0.0,0.0,0.0,0.0,0.0,0.0,0.0,0.0,0.0,0.0,0.0,0.0,0.0,0.0,0.0,0.0,0.0,0.0,0.0,0.0,0.0,0.0,0.0,0.0,0.0,0.0,0.0,0.0,0.0,0.0,0.0,0.0,0.0,0.0,0.0,0.0,0.0,0.0,0.0,0.0,0.0,0.0,0.0,0.0,0.0,0.0,0.0,0.0,0.0,0.0,0.0,0.0,0.0,0.0,0.4005,0.3781,0.359,0.3563,0.3563,0.3391,0.297,0.289,0.2818,0.2763,0.0,0.0,0.0,0.0,0.0,0.0,0.0,0.0,0.0,0.0,0.0,0.0,0.0,0.0,0.0,0.0,0.0,0.0,0.0,0.0,0.0,0.0,0.0,0.0,0.0,0.0,0.0,0.0,0.0,0.0,0.0,0.0,0.0,0.0,0.0,0.0,0.0,0.0,0.0,0.0,0.0,0.0,0.0,0.0,0.0,0.0,0.0,0.0,0.0,0.0,0.0,0.0,0.0,0.0,0.0,0.0,0.0,0.0,0.0,0.0,0.1884,0.0,0.0,0.0,0.0,0.0,0.0,0.0,0.0,0.0,0.0,0.0,0.0,0.0,0.0,0.0,0.0,0.0,0.0,0.0,0.0,0.0,0.0,0.0,0.0,0.0,0.0,0.0,0.0,0.0,0.0,0.0,0.0,0.0,0.0,0.0,0.0,0.0,0.0,0.0,0.0,0.0,0.4094,0.3822,0.3503,0.3244,0.3212,0.3014,0.2575,0.2521,0.2487,0.2409,0.0,0.0,0.0,0.0,0.0,0.0,0.0,0.0,0.0,0.0,0.0,0.0,0.0,0.0,0.0,0.0,0.0,0.0,0.0,0.0,0.0,0.0,0.0,0.0,0.0,0.0,0.0,0.0,0.0,0.0,0.0,0.0,0.0,0.0,0.0,0.0,0.0,0.0,0.0,0.0,0.0,0.0,0.0,0.0,0.0,0.0,0.0,0.0,0.0,0.0,0.0,0.0,0.0,0.0,0.0,0.0,0.0,0.0,0.0,0.0,0.0,0.186,0.0,0.0,0.0,0.0,0.0,0.0,0.0,0.0,0.0,0.0,0.0,0.0,0.0,0.0,0.0,0.0,0.0,0.0,0.0,0.0,0.0,0.0,0.0,0.0,0.0,0.0,0.0,0.0,0.0,0.0,0.0,0.0,0.0,0.0,0.0,0.0,0.0,0.0,0.0,0.0,0.3628,0.3329,0.2997,0.2821,0.2806,0.2713,0.2466,0.2444,0.242,0.236,0.231,0.0,0.0,0.0,0.0,0.0,0.0,0.0,0.0,0.0,0.0,0.0,0.0,0.0,0.0,0.0,0.0,0.0,0.0,0.0,0.0,0.0,0.0,0.0,0.0,0.0,0.0,0.0,0.0,0.0,0.0,0.0,0.0,0.0,0.0,0.0,0.0,0.0,0.0,0.0,0.0,0.0,0.0,0.0,0.0,0.0,0.0,0.0,0.0,0.0,0.0,0.0,0.0,0.0,0.1638,0.1659,0.1552,0.1711,0.1711,0.1548,0.1601,0.1658,0.1681,0.0,0.0,0.0,0.0,0.0,0.0,0.0,0.0,0.0,0.0,0.0,0.0,0.0,0.0,0.0,0.0,0.0,0.0,0.0,0.0,0.0,0.0,0.0,0.0,0.0,0.1514,0.1476,0.0,0.0,0.0,0.0,0.0,0.0,0.0,0.0,0.0,0.0,0.0,0.0,0.3093,0.2746,0.2491,0.2491,0.2491,0.2491,0.2491,0.2491,0.247,0.242,0.2406,0.2379,0.0,0.0,0.0,0.0,0.0,0.0,0.0,0.0,0.0,0.0,0.0,0.0,0.0,0.0,0.0,0.0,0.0,0.0,0.0,0.0,0.0,0.0,0.0,0.0,0.0,0.0,0.0,0.0,0.0,0.0,0.0,0.0,0.1203,0.1203,0.0,0.0,0.0,0.0,0.0,0.0,0.0,0.0,0.0,0.0,0.0,0.0,0.0,0.1362,0.1362,0.1351,0.1347,0.1331,0.1359,0.1353,0.1336,0.1357,0.1357,0.1335,0.1348,0.0,0.1596,0.142,0.0,0.0,0.0,0.0,0.0,0.0,0.0,0.0,0.0,0.0,0.0,0.0,0.0,0.0,0.0,0.0,0.0,0.0,0.0,0.0,0.0,0.0,-0.1067,0.0039,0.0233,0.033,0.0,0.1991,0.3003,0.3344,0.3165,0.0,0.0,0.0,0.0,0.0,0.0,0.0,0.3061,0.2746,0.2491,0.2491,0.2491,0.2491,0.2491,0.2491,0.2487,0.2479,0.2429,0.2397,0.239,0.2316,0.0,0.0,0.0,0.0,0.0,0.0,0.0,0.0,0.0,0.0,0.0,0.0,0.0,0.0,0.0,0.0,0.0,0.0,0.0,0.0,0.0,0.0,0.0,0.0,0.0,0.0,0.0,0.0,0.0,0.1255,0.1255,0.1255,0.1255,0.1261,0.0,0.0,0.0,0.0,0.0,0.0,0.0,0.0,0.0,0.0122,-0.0285,-0.055,-0.0672,-0.075,-0.0691,-0.0496,-0.0622,-0.0538,-0.0273,-0.0362,-0.034,-0.0273,-0.0273,-0.0229,-0.0061,0.0906,0.1352,0.1415,0.0,0.0,0.0,0.0,0.0568,0.049,0.0,-0.0098,0.0,0.0,0.0,0.0,0.0,0.0,0.0,0.0,0.0,0.0,0.0,0.0,0.0,-0.0716,-0.0672,-0.0766,-0.0299,0.0583,0.1385,0.0,0.2279,0.2565,0.2221,0.0,0.0,0.0,0.0,0.0,0.2746,0.2609,0.2491,0.2491,0.2491,0.2491,0.2491,0.2491,0.2491,0.2491,0.2466,0.2451,0.2451,0.2395,0.2364,0.0,0.0,0.0,0.0,0.0,0.0,0.0,0.0,0.0,0.0,0.0,0.0,0.0,0.0,0.0,0.0,0.0,0.0,0.0,0.0,0.0,0.0,0.0,0.0,0.0,0.0,0.0,0.0,0.1237,0.1198,0.1198,0.0947,0.0772,0.0,0.0,0.0,0.0,0.0,0.0,-0.0165,-0.065,-0.1018,-0.1259,-0.1791,-0.2153,-0.2302,-0.2394,-0.2291,-0.2065,-0.2211,-0.2103,-0.176,-0.1853,-0.185,-0.1759,-0.1759,-0.1753,-0.1632,-0.0062,0.0589,0.058,0.058,0.058,0.05,-0.014,-0.0379,-0.0479,-0.1117,-0.1357,-0.1436,-0.1955,0.0,-0.2936,-0.3237,0.0,0.0,0.0,0.0,-0.2515,-0.2274,-0.2555,-0.2645,-0.1689,-0.1777,-0.1924,-0.1426,-0.0867,-0.0318,0.0,0.1137,0.1685,0.1136,0.0,0.0,0.0,0.0,0.2437,0.2452,0.2481,0.2516,0.2531,0.2519,0.2491,0.2491,0.2491,0.2491,0.2491,0.2491,0.2491,0.2491,0.2448,0.2424,0.2424,0.0,0.0,0.0,0.0,0.0,0.0,0.0,0.0,0.0,0.0,0.0,0.0,0.0,0.0,0.0,0.0,0.0,0.0,0.0,0.0,0.0,0.0,0.0,0.0,0.0,0.0,0.0,0.0,0.0,0.0923,-0.004,0.0,0.0,0.0,0.0,-0.2048,-0.205,-0.2111,-0.224,-0.2288,-0.2354,-0.2514,-0.2539,-0.2561,-0.2583,-0.2524,-0.248,-0.2478,-0.2485,-0.2484,-0.2456,-0.2458,-0.2458,-0.2456,-0.2456,-0.2453,-0.2398,-0.1657,-0.1362,-0.1361,-0.1361,-0.1361,-0.1361,-0.1403,-0.1424,-0.1424,-0.1466,-0.1487,-0.1633,-0.2489,-0.3286,-0.3938,-0.3959,-0.3411,0.0,0.0,-0.3369,-0.2949,-0.3686,-0.3897,-0.3813,-0.3374,-0.3287,-0.3204,-0.2791,-0.2178,-0.1485,0.0,-0.0176,0.0,-0.0411,0.0,0.0705,0.0705,0.1568,0.2234,0.2306,0.2426,0.2533,0.2591,0.2545,0.2491,0.2491,0.2491,0.2491,0.2491,0.2491,0.2491,0.2491,0.2487,0.2486,0.2486,0.2503,0.0,0.0,0.0,0.0,0.0,0.0,0.0,0.0,0.0,0.0,0.0,0.0,0.0,0.0,0.0,0.0,0.0,0.0,0.0,0.0,0.0,0.0,0.0,0.0,0.0,0.0,0.0,0.0,-0.1023,-0.1444,0.0,0.0,-0.23,-0.2564,-0.2642,-0.2768,-0.2865,-0.2908,-0.3445,-0.3834,-0.4005,-0.456,-0.4927,-0.5043,-0.5118,-0.5038,-0.4811,-0.496,-0.4845,-0.4562,-0.4644,-0.4611,-0.4506,-0.4506,-0.4456,-0.4344,-0.4116,-0.3296,-0.2208,-0.2208,-0.21,-0.2014,-0.2538,-0.2604,-0.254,-0.3108,-0.3276,-0.3272,-0.3502,-0.3762,-0.3994,-0.3994,-0.3804,-0.3634,-0.3909,-0.3804,-0.3634,-0.3929,-0.3994,-0.3987,-0.3937,-0.3844,-0.3777,-0.3704,-0.3246,-0.2819,-0.2795,-0.1597,-0.0757,-0.129,-0.0818,-0.0368,-0.0368,-0.0041,0.0431,0.1057,0.1175,0.146,0.2137,0.231,0.2346,0.231,0.2468,0.2552,0.2494,0.2491,0.2491,0.2491,0.2491,0.2491,0.2491,0.2491,0.2707,0.0,0.0,0.0,0.0,0.0,0.0,0.0,0.0,0.0,0.0,0.0,0.0,0.0,0.0,0.0,0.0,0.0,0.0,0.0,0.0,0.0,0.0,0.0,0.0,0.0,0.0,-0.1695,-0.2352,-0.2803,-0.311,-0.3288,-0.3683,-0.3957,-0.4032,-0.4184,-0.4292,-0.4343,-0.4894,-0.53,-0.5463,-0.604,-0.6409,-0.6534,-0.6615,-0.6563,-0.6338,-0.6461,-0.6375,-0.6078,-0.6153,-0.6136,-0.5999,-0.5999,-0.5956,-0.5861,-0.5861,-0.5136,-0.398,-0.3667,-0.3425,-0.3336,-0.3883,-0.3953,-0.3886,-0.4367,-0.4441,-0.4314,-0.4234,-0.4194,-0.4194,-0.4194,-0.4194,-0.4194,-0.4194,-0.4194,-0.4194,-0.4194,-0.4194,-0.4232,-0.4316,-0.4261,-0.4234,-0.4318,-0.406,-0.3886,-0.415,-0.2869,-0.1908,-0.2454,-0.1992,-0.1551,-0.1551,-0.1236,-0.0778,-0.0127,0.0274,0.0758,0.1444,0.1922,0.2174,0.214,0.2364,0.2442,0.2306,0.2442,0.2492,0.2413,0.247,0.2491,0.2491,0.2491,0.2707,0.3102,0.0,0.0,0.0,0.0,0.0,0.0,0.0,0.0,0.0,0.0,0.0,0.0,0.0,0.0,0.0,0.0,0.0,0.0,0.0,0.0,0.0,0.0,0.0,-0.2291,-0.2551,-0.2827,-0.2998,-0.4042,-0.4765,-0.4772,-0.5709,-0.6306,-0.6309,-0.6368,-0.646,-0.6593,-0.6604,-0.6658,-0.6804,-0.6812,-0.6815,-0.6815,-0.6815,-0.6815,-0.6815,-0.6815,-0.6815,-0.6815,-0.6815,-0.6812,-0.6806,-0.6806,-0.6806,-0.6801,-0.6801,-0.6801,-0.6702,-0.5796,-0.5441,-0.5415,-0.5412,-0.541,-0.5363,-0.5095,-0.4858,-0.4623,-0.4621,-0.4621,-0.4621,-0.4597,-0.4597,-0.4597,-0.4597,-0.4597,-0.4597,-0.4597,-0.4597,-0.4597,-0.4597,-0.4597,-0.4597,-0.4597,-0.4597,-0.4597,-0.4597,-0.3976,-0.3563,-0.3943,-0.3369,-0.2839,-0.2839,-0.1954,0.0,-0.1168,-0.0256,0.0446,0.0564,0.1408,0.1958,0.1978,0.2167,0.2188,0.1914,0.2338,0.2476,0.2223,0.2396,0.2493,0.2491,0.2491,0.2687,0.3082,0.0,0.0,0.0,0.0,0.0,0.0,0.0,0.0,0.0,0.0,0.0,0.0,0.0,0.0,0.0,0.0,0.0,0.0,0.0,0.0,0.0,0.0,-0.4002,-0.3696,-0.3989,-0.4533,-0.534,-0.573,-0.6012,-0.6205,-0.6408,-0.6559,-0.6649,-0.6687,-0.6719,-0.6749,-0.6836,-0.6902,-0.6934,-0.7043,-0.7084,-0.7084,-0.7084,-0.7084,-0.7084,-0.7084,-0.7084,-0.7084,-0.7084,-0.704,-0.6934,-0.6934,-0.6883,-0.6801,-0.6801,-0.6801,-0.6756,-0.6406,-0.6148,-0.5964,-0.5882,-0.5701,-0.5517,-0.5395,-0.5323,-0.5215,-0.497,-0.4901,-0.4853,-0.4666,-0.4597,-0.4597,-0.4597,-0.4597,-0.4597,-0.4597,-0.4597,-0.4597,-0.4597,-0.4597,-0.4597,-0.4597,-0.4597,-0.4597,-0.4597,-0.4422,-0.4265,-0.4291,-0.4069,-0.3893,-0.3893,-0.3628,0.0,-0.2506,-0.2142,-0.1412,0.0022,0.0575,0.1094,0.1724,0.2002,0.2111,0.1981,0.2103,0.2202,0.2271,0.2274,0.2355,0.2491,0.2491,0.255,0.0,0.0,0.0,0.0,0.0,0.0,0.0,0.0,0.0,0.0,0.0,0.0,0.0,0.0,0.0,0.0,0.0,0.0,0.0,0.0,0.0,0.0,-0.5186,-0.5346,-0.5293,-0.5443,-0.5805,-0.6491,-0.6563,-0.662,-0.6787,-0.6785,-0.6801,-0.6874,-0.6923,-0.6977,-0.6977,-0.7046,-0.7084,-0.7084,-0.7149,-0.721,-0.721,-0.721,-0.721,-0.721,-0.721,-0.721,-0.721,-0.721,-0.7147,0.0,-0.7084,-0.7043,-0.6977,-0.6977,-0.6977,0.0,0.0,0.0,0.0,0.0,-0.6154,-0.5937,-0.5878,-0.581,-0.5667,-0.541,-0.5252,-0.5123,-0.4915,-0.4781,-0.4683,-0.4683,-0.4683,-0.4683,-0.4683,-0.4683,-0.4683,-0.4683,-0.4683,-0.4683,-0.4683,-0.4683,-0.4683,-0.4683,-0.4655,0.0,-0.4535,-0.4475,-0.4437,-0.4437,-0.4437,-0.4066,-0.3078,-0.2963,-0.2358,-0.0749,-0.0114,0.0405,0.0948,0.1585,0.0,0.0,0.0,0.2123,0.2293,0.2263,0.0,0.0,0.0,0.2587,0.2587,0.0,0.0,0.0,0.3344,0.3503,0.0,0.0,0.0,0.0,0.0,0.0,0.0,0.0,0.0,0.0,0.0,0.0,0.0,0.0,0.0,0.0,-0.6192,-0.647,-0.6777,-0.6741,-0.6719,-0.6828,-0.6842,-0.6842,-0.6842,-0.694,-0.7032,-0.7032,-0.7125,-0.721,-0.721,0.0,0.0,0.0,0.0,-0.721,-0.721,-0.721,-0.721,-0.721,-0.721,-0.721,-0.721,-0.721,-0.721,-0.721,-0.721,-0.721,-0.721,-0.721,-0.721,-0.7188,-0.691,-0.6815,-0.6801,-0.6801,-0.664,-0.6453,-0.6453,0.0,0.0,-0.5921,-0.5712,-0.5491,-0.5325,-0.512,-0.4939,-0.4928,-0.4901,-0.4872,-0.4839,-0.4834,-0.4809,-0.4809,-0.4809,-0.4809,-0.4809,-0.4809,-0.4809,-0.4809,-0.4748,-0.4724,-0.4724,-0.4638,-0.4597,-0.4597,-0.4597,-0.4261,-0.3305,-0.3232,-0.2786,-0.1554,0.0,0.0,0.0135,0.1148,0.165,0.1418,0.181,0.2116,0.2218,0.2279,0.2424,0.265,0.2692,0.2692,0.2692,0.2692,0.2692,0.271,0.3367,0.3675,0.0,0.0,0.0,0.0,0.0,0.0,0.0,0.0,0.0,0.0,0.0,0.0,0.0,0.0,0.0,-0.6244,-0.654,-0.6757,-0.6926,-0.7035,-0.7087,-0.7111,-0.7114,-0.7114,-0.7114,-0.7136,-0.7149,-0.7149,-0.7196,-0.721,-0.721,-0.721,0.0,-0.721,-0.721,-0.721,-0.721,-0.721,-0.721,-0.721,0.0,0.0,-0.721,-0.721,-0.721,-0.721,-0.721,-0.721,-0.721,-0.721,-0.721,-0.7196,-0.7032,-0.6891,-0.6801,-0.6801,-0.6775,-0.6722,-0.6722,-0.6695,-0.6614,-0.6374,-0.6235,-0.6154,-0.5927,-0.5817,0.0,-0.5634,-0.546,-0.5265,-0.5159,-0.4962,-0.4809,-0.4809,-0.4809,-0.4809,-0.4809,-0.4809,-0.4809,-0.4809,-0.4795,-0.4785,-0.4785,-0.4677,-0.4597,-0.4597,-0.4597,-0.4524,-0.4308,-0.4308,-0.3588,-0.168,-0.1325,-0.0563,0.1059,0.1426,0.1505,0.1406,0.1694,0.1855,0.1815,0.2181,0.2378,0.2376,0.2587,0.2692,0.2692,0.2692,0.2692,0.2713,0.2855,0.2905,0.0,0.0,0.0,0.0,0.0,0.0,0.0,0.0,0.0,0.0,0.0,-0.5832,-0.5977,0.0,-0.6459,-0.674,-0.6981,-0.72,-0.7464,-0.7561,-0.7487,-0.7238,-0.721,-0.721,-0.721,-0.7324,-0.7407,-0.7407,-0.7518,-0.7598,-0.7598,-0.7598,-0.7598,-0.7598,-0.7598,-0.7598,-0.7598,-0.7598,-0.7598,-0.7598,-0.7598,-0.7518,-0.7407,-0.7407,-0.7324,-0.721,-0.721,-0.721,-0.721,-0.721,-0.721,-0.7204,-0.7119,-0.7059,-0.7005,-0.7005,-0.7005,-0.7005,-0.7005,-0.7005,-0.6967,-0.6776,-0.6621,-0.6477,-0.6259,-0.6112,-0.5996,-0.5917,-0.5799,-0.5685,-0.5606,-0.541,-0.5191,-0.512,-0.5006,-0.489,-0.4819,-0.4809,-0.4809,-0.4809,-0.4809,-0.4809,-0.4809,-0.4738,-0.4704,-0.4704,-0.4704,-0.4506,-0.3969,-0.436,-0.3879,-0.174,-0.1569,-0.0958,0.0659,0.1221,0.1491,0.146,0.1572,0.167,0.1746,0.1966,0.2198,0.2391,0.2522,0.2674,0.2805,0.2805,0.2805,0.2805,0.2805,0.2772,0.0,0.0,0.0,0.0,0.0,0.0,0.0,0.0,-0.568,-0.5821,-0.6087,-0.6319,-0.6442,-0.6681,-0.6954,-0.729,-0.7445,-0.7622,-0.7947,-0.7989,-0.7851,-0.7404,-0.7349,-0.7349,-0.7349,-0.7549,-0.769,-0.769,-0.7881,-0.7989,-0.7989,-0.7989,-0.8029,-0.8057,-0.8057,-0.8057,-0.8057,-0.8057,-0.8044,-0.7989,-0.7989,-0.7881,-0.769,-0.769,-0.7549,-0.7349,-0.7349,-0.7293,-0.721,-0.7265,-0.7238,-0.721,-0.721,-0.721,-0.721,-0.721,-0.721,-0.721,-0.721,-0.721,-0.7193,-0.7076,-0.6907,-0.6695,-0.6599,-0.6413,-0.6224,-0.6206,-0.6146,-0.6112,-0.6093,-0.5874,-0.5642,-0.5539,-0.5363,-0.5158,-0.5057,-0.5025,-0.4987,-0.4937,-0.4899,-0.486,-0.4809,-0.4809,-0.4809,-0.4809,-0.4809,-0.4481,-0.3626,-0.4255,-0.403,-0.2048,-0.1921,-0.1418,-0.0048,0.0956,0.1492,0.1491,0.1489,0.1571,0.1726,0.1794,0.1995,0.2349,0.2416,0.2569,0.2829,0.2829,0.2856,0.2912,0.2912,0.2855,-0.4935,-0.5116,0.0,-0.5243,-0.5381,-0.5586,0.0,0.0,-0.6219,-0.6309,-0.667,-0.7006,-0.702,-0.741,-0.7773,-0.7816,-0.788,-0.7947,-0.7986,-0.7989,-0.7989,-0.7906,-0.7906,-0.7906,-0.7906,-0.7934,-0.7962,-0.7962,-0.7989,-0.7989,-0.7989,-0.7989,-0.8072,-0.8253,-0.8256,-0.8256,-0.8256,-0.8256,-0.8167,-0.7989,-0.7989,-0.7989,-0.7962,-0.7962,-0.7934,-0.7906,-0.7906,-0.7626,-0.721,-0.7465,-0.741,-0.721,-0.721,-0.721,-0.721,-0.721,-0.721,-0.721,-0.721,-0.721,-0.721,-0.7196,-0.7163,-0.7133,-0.7119,-0.7089,-0.7039,-0.6913,-0.6718,-0.6503,-0.6372,-0.6165,-0.5953,-0.5941,-0.5912,-0.5881,-0.5869,-0.5766,-0.5625,-0.5371,-0.5224,-0.509,-0.4834,-0.4809,-0.4809,-0.4809,-0.4809,-0.4759,-0.4634,-0.4734,-0.4352,-0.3139,-0.3013,-0.2217,-0.0171,0.0914,0.1501,0.1498,0.1497,0.1519,0.154,0.1753,0.1879,0.1868,0.2122,0.2332,0.2536,0.2536,0.2696,0.2996,0.2996,0.296,-0.5588,0.0,0.0,0.0,-0.6334,-0.6541,-0.6693,-0.6867,-0.7017,-0.7041,-0.7321,-0.7572,-0.7572,-0.7871,-0.8193,0.0,-0.8376,-0.847,-0.8666,-0.8598,-0.8519,-0.8519,-0.8519,-0.838,-0.8045,-0.818,-0.8291,-0.8291,-0.8537,-0.8694,-0.8694,-0.8776,-0.8851,-0.8941,-0.8944,-0.8944,-0.8944,-0.8944,-0.8883,-0.8821,-0.8737,-0.8582,-0.8414,-0.8329,-0.818,-0.7989,-0.7989,-0.7878,-0.7681,-0.7795,-0.7687,-0.7438,-0.7438,-0.7324,-0.721,-0.721,-0.721,-0.721,-0.721,-0.721,-0.721,-0.721,-0.721,-0.721,-0.721,-0.721,-0.7199,-0.7125,-0.7029,-0.693,-0.6882,-0.6624,-0.6394,-0.6356,-0.6207,-0.6058,-0.5996,-0.5946,-0.5889,-0.576,-0.5699,-0.5589,-0.5302,-0.5208,-0.5095,-0.494,-0.4844,-0.4809,-0.4809,-0.4809,-0.4381,-0.3324,-0.2645,-0.1908,-0.0997,-0.0544,-0.0049,0.0582,0.063,0.0892,0.1479,0.1598,0.1734,0.1861,0.1979,0.2135,0.2326,0.2326,0.2406,0.2542,0.2704,0.2764,-0.6138,0.0,0.0,-0.6846,-0.7021,-0.7233,-0.7371,-0.7509,-0.7617,-0.7628,-0.7871,-0.8058,-0.8058,-0.8282,-0.8549,-0.8807,-0.8784,-0.8856,-0.9147,-0.9028,-0.8912,-0.8912,-0.8912,-0.8716,-0.8297,-0.846,-0.8642,-0.8678,-0.9005,-0.9228,-0.9243,-0.9349,-0.943,-0.9442,-0.9445,-0.9445,-0.9445,-0.9445,-0.9422,-0.941,-0.9298,-0.9129,-0.8898,-0.875,-0.8495,-0.8156,-0.8211,-0.8156,-0.8017,-0.81,-0.7934,-0.7607,-0.7607,-0.7438,-0.721,-0.721,-0.721,-0.721,-0.721,-0.721,-0.721,-0.721,-0.721,-0.721,-0.721,-0.721,-0.721,-0.721,-0.721,-0.721,-0.721,-0.7018,-0.6831,-0.6775,-0.6593,-0.6379,-0.6354,-0.6314,-0.6267,-0.6185,-0.6134,-0.6032,-0.5768,-0.5629,-0.5506,-0.5296,-0.5131,-0.4966,-0.4815,-0.4809,-0.4506,-0.3726,-0.267,-0.2041,-0.2041,-0.1765,-0.1278,-0.0494,-0.0173,0.0319,0.1066,0.1381,0.162,0.1804,0.1828,0.1919,0.2123,0.2123,0.2152,0.2235,0.2425,0.2528,0.0,0.0,-0.7103,-0.7082,-0.7285,-0.7522,-0.766,-0.7793,-0.7895,-0.7971,-0.8251,-0.8478,-0.8478,-0.8712,-0.8935,-0.9158,-0.9007,-0.8967,-0.9162,-0.9028,-0.8912,-0.8912,-0.8912,-0.8881,0.0,-0.8881,-0.8967,-0.9162,-0.9179,-0.9247,-0.9396,-0.941,-0.9449,-0.9598,-0.9602,-0.9602,-0.9602,-0.9602,-0.953,-0.941,-0.9403,-0.9403,-0.9367,-0.9243,-0.8925,-0.8512,-0.8768,-0.8546,-0.8017,-0.8346,-0.8128,-0.7607,-0.7607,-0.7438,-0.721,-0.721,-0.721,-0.721,-0.721,-0.721,-0.721,-0.721,-0.721,-0.721,-0.721,-0.721,-0.721,-0.721,-0.721,-0.721,-0.721,-0.7182,-0.7182,-0.7177,-0.7177,-0.7177,-0.7171,-0.7056,-0.6896,-0.662,-0.6477,-0.6294,-0.6035,-0.5979,-0.5977,-0.5977,-0.5735,-0.5398,-0.4857,-0.4809,-0.4784,-0.4759,-0.3802,-0.3148,-0.3148,-0.2192,-0.1588,-0.1562,-0.0579,0.0025,0.005,0.1033,0.16,0.162,0.1619,0.1701,0.1908,0.1908,0.2046,0.2302,0.2302,0.235,0.0,0.0,-0.7997,-0.7917,-0.8092,-0.8335,-0.8456,-0.8524,-0.8574,-0.8592,-0.8609,-0.8621,-0.8621,-0.8787,-0.8926,-0.9001,-0.9049,-0.9124,-0.9204,-0.9028,-0.8912,-0.8912,-0.8912,0.0,0.0,0.0,0.0,-0.9207,-0.9369,-0.9479,-0.953,-0.9622,-0.9696,-0.9717,-0.9721,-0.9721,-0.9721,-0.9721,-0.9724,-0.9673,-0.9578,-0.9479,-0.9403,-0.925,-0.9123,-0.896,-0.8922,-0.8685,-0.8346,-0.8457,-0.8156,-0.7607,-0.7607,-0.7438,-0.721,-0.721,-0.721,-0.721,-0.721,-0.721,-0.721,-0.721,-0.721,-0.721,-0.721,-0.721,-0.721,-0.721,-0.721,-0.721,-0.721,-0.721,-0.721,-0.721,-0.721,-0.721,-0.721,-0.7152,-0.7097,-0.7012,-0.6952,-0.6844,-0.6518,-0.6431,-0.6304,-0.6044,-0.5768,-0.5426,-0.4992,-0.4924,-0.4902,-0.4815,-0.4481,-0.4255,-0.4255,-0.3927,-0.3425,-0.2695,-0.2317,-0.1813,-0.1084,-0.0706,-0.0176,0.0525,0.055,0.0922,0.1711,0.1711,0.174,0.185,0.2026,0.2108,-0.7865,-0.822,-0.8629,-0.8616,-0.8763,-0.8893,-0.8991,-0.895,-0.8912,-0.8912,-0.8791,-0.8726,-0.8754,-0.8801,-0.8865,-0.8998,-0.9049,-0.9121,-0.9204,-0.9028,-0.8912,-0.8912,-0.8956,0.0,0.0,0.0,0.0,-0.9345,-0.95,-0.9632,-0.9683,-0.9741,-0.9792,-0.9792,-0.9792,-0.9792,-0.9792,-0.9792,-0.9792,-0.9788,-0.97,-0.9605,-0.9459,-0.939,-0.9315,-0.9254,-0.9079,-0.89,-0.8754,-0.8677,-0.8349,-0.7909,-0.7798,-0.7576,-0.7324,-0.7238,-0.721,-0.721,-0.721,-0.721,-0.721,-0.721,-0.721,-0.721,-0.721,-0.721,-0.721,-0.721,-0.721,-0.721,-0.721,-0.721,-0.721,-0.721,-0.721,-0.721,-0.721,-0.721,-0.721,-0.721,-0.721,-0.7127,-0.6907,-0.6844,-0.6689,-0.6293,-0.6092,-0.5799,-0.527,-0.5098,-0.4986,-0.4894,-0.4883,-0.4846,-0.4813,-0.4809,-0.4506,-0.3827,-0.3399,-0.2897,-0.2192,-0.1815,-0.1285,-0.058,-0.0202,0.0328,0.1035,0.1414,0.1592,0.1592,0.1768,0.1844,-0.8645,-0.8811,-0.8963,-0.9148,-0.921,-0.9207,-0.92,-0.9035,-0.8909,-0.8899,-0.8784,-0.8727,0.0,0.0,-0.8801,-0.9111,-0.9028,-0.897,-0.9162,-0.9042,-0.8933,0.0,0.0,0.0,0.0,0.0,0.0,-0.9618,0.0,-0.968,-0.9785,-0.9792,-0.9792,-0.9792,-0.9792,-0.9792,-0.9792,-0.9792,-0.9792,-0.9792,-0.9792,-0.9721,-0.9618,-0.9612,-0.953,-0.9413,-0.9257,-0.9192,-0.9182,-0.898,-0.8725,-0.8466,-0.8131,-0.7854,-0.7579,-0.7324,-0.721,-0.721,-0.721,-0.721,-0.721,-0.721,-0.721,-0.721,-0.721,-0.721,-0.721,-0.721,-0.721,-0.721,-0.721,-0.721,-0.721,-0.721,-0.721,-0.721,-0.721,-0.721,-0.721,-0.721,-0.721,-0.721,-0.721,-0.721,-0.7099,-0.6771,-0.6715,-0.6441,-0.572,-0.5324,-0.5106,-0.5039,-0.5003,-0.4943,-0.483,-0.4819,-0.4817,-0.4817,-0.3855,-0.3274,-0.3274,-0.2293,-0.1739,-0.1688,-0.068,-0.0126,-0.0076,0.0984,0.1515,0.1515,0.1566,0.1592,-0.8801,-0.9069,-0.9249,-0.9199,-0.921,-0.9152,-0.9018,-0.8936,-0.8879,-0.8767,-0.8737,-0.8686,0.0,0.0,0.0,-0.8811,-0.9005,0.0,-0.9204,-0.9247,0.0,0.0,0.0,-0.9396,-0.9483,-0.9564,0.0,0.0,-0.9737,-0.9751,-0.9788,-0.9792,-0.9792,-0.9792,-0.9792,-0.9792,-0.9792,-0.9792,-0.9792,-0.9792,-0.9792,-0.9771,-0.9734,-0.9656,-0.9588,-0.9544,-0.942,-0.9208,-0.8967,-0.882,-0.8592,-0.8329,-0.8084,-0.7962,-0.7851,-0.7604,-0.7493,-0.7465,-0.7268,-0.721,-0.721,-0.721,-0.721,-0.721,-0.721,-0.721,-0.721,-0.721,-0.721,-0.721,-0.721,-0.721,-0.721,-0.721,-0.721,-0.721,-0.721,-0.721,-0.721,-0.721,-0.721,-0.721,-0.721,-0.721,-0.7182,-0.7071,-0.6851,-0.6526,-0.6035,-0.5719,-0.552,-0.5448,-0.5229,-0.5063,-0.5014,-0.4975,-0.4937,-0.4937,-0.4593,-0.4381,-0.4381,-0.413,-0.3601,-0.2796,-0.2518,-0.199,-0.1184,-0.0126,0.0403,0.0429,0.1237,0.1592,-0.9129,-0.9354,-0.9459,-0.9403,-0.9332,-0.9243,-0.9066,-0.8956,-0.8885,-0.8801,-0.873,0.0,0.0,0.0,0.0,0.0,0.0,0.0,-0.921,-0.9315,-0.941,0.0,-0.9442,0.0,-0.9602,-0.9666,-0.9704,0.0,-0.9792,-0.9792,-0.9792,-0.9792,-0.9792,-0.9792,-0.9792,-0.9792,-0.9792,-0.9792,-0.9792,-0.9792,-0.9792,-0.9792,-0.9788,-0.9707,-0.9703,-0.9693,0.0,-0.9395,-0.9209,-0.9057,-0.8912,-0.8756,-0.8442,-0.8301,-0.8267,-0.7902,-0.7771,-0.7743,-0.7462,-0.7379,-0.7351,-0.7238,-0.721,-0.721,-0.721,-0.721,-0.721,-0.721,-0.721,-0.721,-0.721,-0.721,-0.721,-0.721,-0.721,-0.721,-0.721,-0.721,-0.721,-0.721,-0.721,-0.721,-0.721,-0.721,-0.721,-0.721,-0.7043,-0.6828,-0.6601,-0.6209,-0.5868,-0.5656,-0.5487,-0.5282,-0.5112,-0.5061,-0.5032,-0.5032,-0.4945,-0.4894,-0.4894,-0.483,-0.4508,-0.3904,-0.345,-0.2897,-0.2293,-0.1235,-0.0706,-0.068,0.0404,0.0908,-0.95,-0.9625,-0.9629,-0.9588,-0.9479,-0.9366,-0.9192,-0.9028,-0.8906,-0.8885,0.0,-0.8747,-0.8862,0.0,-0.8757,-0.8889,0.0,-0.9217,-0.9238,-0.9342,-0.9447,-0.9439,-0.9557,-0.9639,-0.9639,-0.9717,-0.9792,-0.9792,-0.9792,-0.9792,-0.9792,-0.9792,-0.9792,-0.9792,-0.9792,-0.9792,-0.9792,-0.9792,-0.9792,-0.9792,-0.9792,-0.9792,-0.9792,-0.9792,-0.9792,-0.9785,0.0,0.0,-0.9625,-0.9473,-0.9441,-0.9395,-0.8959,-0.8786,-0.8742,-0.8261,-0.81,-0.8041,-0.7749,-0.7635,-0.7551,-0.7296,-0.721,-0.721,-0.721,-0.721,-0.721,-0.721,-0.721,-0.721,-0.721,-0.721,-0.721,-0.721,-0.721,-0.721,-0.721,-0.721,-0.721,-0.721,-0.721,-0.721,-0.721,-0.721,-0.721,-0.721,-0.721,-0.721,-0.721,-0.6715,-0.6209,-0.5868,-0.5805,-0.5633,-0.5285,-0.5212,-0.518,-0.518,-0.5067,-0.5015,-0.5015,-0.4902,-0.4828,-0.4828,-0.3883,-0.3399,-0.3399,-0.2343,-0.1815,-0.179,-0.0706,-0.0126,-0.9554,-0.9696,-0.9727,-0.9483,-0.943,-0.931,-0.9011,-0.8929,0.0,0.0,0.0,-0.8841,-0.874,-0.8804,0.0,-0.8906,0.0,0.0,0.0,0.0,-0.9612,0.0,0.0,0.0,0.0,0.0,0.0,0.0,0.0,-0.9792,-0.9792,-0.9792,-0.9792,-0.9792,-0.9792,-0.9792,-0.9792,-0.9792,-0.9792,-0.9792,-0.9792,-0.9792,-0.9792,-0.9792,-0.9792,-0.9788,-0.9765,0.0,-0.9744,-0.9629,-0.9568,-0.9554,-0.9343,-0.9283,-0.9237,-0.8745,-0.858,-0.8508,-0.8084,-0.7798,-0.7551,-0.7296,-0.721,-0.721,-0.721,-0.721,-0.721,-0.721,-0.721,-0.721,-0.721,-0.721,-0.721,-0.721,-0.721,-0.721,-0.721,-0.721,-0.721,-0.721,-0.721,-0.721,-0.721,-0.721,-0.721,-0.721,-0.721,-0.721,-0.721,-0.6879,-0.6596,-0.6521,-0.6327,-0.6156,-0.6111,-0.5782,-0.5595,-0.5595,-0.5268,-0.5084,-0.5084,-0.4998,-0.4972,-0.4972,-0.4671,-0.4533,-0.4533,-0.345,-0.2922,-0.2897,-0.1814,-0.0857,-0.9656,-0.9741,-0.9751,-0.9456,-0.941,-0.9303,-0.8977,0.0,0.0,0.0,0.0,-0.8889,-0.8814,0.0,0.0,0.0,0.0,0.0,0.0,0.0,0.0,0.0,0.0,0.0,0.0,0.0,0.0,0.0,0.0,-0.9992,-0.9798,-0.9792,-0.9792,-0.9792,-0.9792,-0.9792,-0.9792,-0.9792,-0.9792,-0.9792,-0.9792,-0.9792,-0.9792,-0.9792,-0.9792,-0.9792,-0.9792,0.0,-0.9785,-0.9717,-0.972,-0.9703,-0.9557,-0.95,-0.9479,-0.9183,-0.9072,-0.9004,-0.8622,-0.8326,-0.8096,-0.7668,-0.7371,-0.721,-0.721,-0.721,-0.721,-0.721,-0.721,-0.721,-0.721,-0.721,-0.721,-0.721,-0.721,-0.721,-0.721,-0.721,-0.721,-0.721,-0.721,-0.721,-0.721,-0.721,-0.721,-0.721,-0.721,-0.721,-0.721,-0.7074,-0.6907,-0.6715,-0.6576,-0.6439,-0.6302,-0.6116,-0.5946,-0.5751,-0.5552,-0.5339,-0.5153,-0.5092,-0.5043,-0.5043,-0.5,-0.4952,-0.4952,-0.4433,-0.4198,-0.4173,-0.3086,-0.2308,-0.9713,-0.9768,-0.9751,-0.9456,-0.941,-0.9303,-0.8977,-0.8912,0.0,0.0,-0.8912,-0.8912,-0.8912,0.0,0.0,0.0,0.0,0.0,0.0,0.0,0.0,0.0,0.0,0.0,0.0,0.0,0.0,0.0,0.0,0.0,-0.9852,-0.9839,-0.9822,-0.9792,-0.9792,-0.9792,-0.9792,-0.9792,-0.9792,-0.9792,-0.9792,-0.9792,-0.9792,-0.9792,-0.9792,-0.9792,-0.9792,0.0,0.0,-0.9792,-0.9792,-0.9781,-0.9696,-0.9656,-0.9635,-0.9486,-0.9432,-0.9396,-0.9104,-0.89,-0.8657,-0.8167,-0.7674,-0.7268,-0.721,-0.721,-0.721,-0.721,-0.721,-0.7215,-0.7215,-0.7201,-0.721,-0.721,-0.721,-0.721,-0.721,-0.721,-0.721,-0.721,-0.721,-0.721,-0.721,-0.721,-0.721,-0.721,-0.721,-0.721,-0.721,-0.721,-0.7099,-0.6824,-0.6796,-0.6715,-0.6523,-0.6439,-0.6272,-0.6017,-0.5831,-0.5597,-0.5326,-0.5186,-0.511,-0.511,-0.5118,-0.5108,-0.5108,-0.5108,-0.5108,-0.5081,-0.4229,-0.3725,-0.9622,-0.9694,-0.9751,-0.9456,-0.941,-0.9303,-0.8977,0.0,0.0,-0.8912,-0.8912,-0.8912,-0.8912,-0.8912,0.0,0.0,0.0,0.0,0.0,0.0,0.0,0.0,0.0,0.0,0.0,0.0,0.0,0.0,0.0,0.0,-0.9967,-0.9998,-0.9934,-0.9795,-0.9792,-0.9792,-0.9792,-0.9792,-0.9792,-0.9792,-0.9792,-0.9792,-0.9792,-0.9792,-0.9792,-0.9792,-0.9792,0.0,0.0,-0.9792,-0.9792,-0.9788,-0.9775,-0.9771,-0.9754,-0.9642,-0.9588,-0.9568,-0.9399,-0.9142,-0.8849,-0.8685,-0.813,-0.7521,-0.7268,-0.721,-0.721,-0.721,-0.721,-0.7207,-0.7262,-0.7236,-0.721,-0.721,-0.721,-0.721,-0.721,-0.721,-0.721,-0.721,-0.721,-0.721,-0.721,-0.721,-0.721,-0.721,-0.721,-0.721,-0.721,-0.721,-0.7182,-0.7154,-0.7154,-0.7154,-0.7127,-0.6851,-0.6659,-0.6631,-0.6091,-0.578,-0.5753,-0.5389,-0.5205,-0.5205,-0.5124,-0.5108,-0.5108,-0.5108,-0.5108,-0.5108,-0.5002,-0.4443,-0.9557,-0.9683,-0.9751,-0.9456,-0.9342,-0.922,-0.8956,0.0,0.0,-0.8892,-0.8912,-0.8912,-0.8912,-0.8912,-0.8912,0.0,0.0,0.0,0.0,0.0,0.0,0.0,0.0,0.0,0.0,0.0,0.0,0.0,0.0,0.0,-0.9997,-0.993,-0.9852,-0.9792,-0.9792,-0.9792,-0.9792,-0.9792,-0.9792,-0.9792,-0.9792,-0.9792,-0.9792,-0.9792,-0.9792,-0.9792,-0.9792,0.0,0.0,-0.9792,-0.9792,-0.9792,-0.9792,-0.9792,-0.9785,-0.9727,-0.9707,-0.9727,-0.9669,-0.9502,-0.9275,-0.9062,-0.8717,-0.8277,-0.7737,-0.7432,-0.7279,-0.7353,-0.732,-0.729,-0.7387,-0.741,-0.7355,-0.7282,-0.7263,-0.7244,-0.7198,-0.721,-0.721,-0.721,-0.721,-0.721,-0.721,-0.721,-0.721,-0.721,-0.721,-0.721,-0.721,-0.721,-0.721,-0.721,-0.721,-0.721,-0.721,-0.7071,-0.6907,-0.6715,-0.6464,-0.6184,-0.5822,-0.5646,-0.549,-0.5326,-0.5292,-0.5271,-0.5271,-0.5271,-0.5271,-0.5271,-0.5271,-0.5052,-0.9351,-0.9547,-0.9632,-0.9407,-0.923,-0.9062,0.0,0.0,-0.8727,-0.8879,-0.8912,-0.8912,-0.8912,-0.8912,-0.8912,0.0,0.0,0.0,0.0,0.0,0.0,0.0,0.0,0.0,0.0,0.0,0.0,0.0,0.0,0.0,0.0,-0.9849,-0.9792,-0.9792,-0.9792,-0.9792,-0.9792,-0.9792,-0.9792,-0.9792,-0.9792,-0.9792,-0.9792,-0.9792,-0.9792,-0.9792,0.0,0.0,0.0,-0.9792,-0.9792,-0.9792,-0.9792,-0.9792,-0.9792,-0.9792,-0.9792,-0.9792,-0.9792,-0.9724,-0.9636,-0.938,-0.9176,-0.8928,-0.8344,-0.7875,-0.7522,-0.761,-0.7541,-0.7427,-0.7476,-0.7516,-0.7511,-0.7389,-0.7359,-0.733,-0.7261,-0.7237,-0.7226,-0.7218,-0.721,-0.721,-0.721,-0.721,-0.721,-0.721,-0.721,-0.721,-0.721,-0.721,-0.721,-0.721,-0.721,-0.721,-0.721,-0.721,-0.7099,-0.6851,-0.674,-0.6518,-0.6072,-0.5905,-0.5712,-0.5519,-0.5437,-0.5409,-0.5409,-0.5409,-0.5409,-0.5409,-0.5409,-0.5409,-0.8916,-0.9161,-0.9376,-0.9251,-0.9049,-0.8912,0.0,0.0,-0.8727,-0.8879,-0.8912,-0.8912,-0.8912,-0.8912,-0.8912,-0.8912,-0.8912,0.0,0.0,0.0,0.0,0.0,0.0,0.0,0.0,0.0,0.0,0.0,0.0,0.0,0.0,-0.9792,-0.9792,-0.9792,-0.9792,-0.9792,-0.9792,-0.9792,-0.9792,-0.9792,-0.9792,-0.9792,-0.9792,-0.9792,-0.9792,0.0,0.0,0.0,0.0,-0.9792,-0.9792,-0.9792,-0.9792,-0.9792,-0.9792,-0.9792,-0.9792,-0.9792,-0.9792,-0.9788,-0.9765,-0.9626,-0.9463,-0.9276,-0.9128,-0.8578,-0.7979,-0.7982,-0.7839,-0.7671,-0.7519,-0.7608,-0.7668,-0.7516,-0.7487,-0.7454,-0.733,-0.7305,-0.727,-0.7207,-0.721,-0.721,-0.721,-0.721,-0.721,-0.721,-0.721,-0.721,-0.721,-0.721,-0.721,-0.721,-0.721,-0.721,-0.721,-0.721,-0.721,-0.7182,-0.6879,-0.6687,-0.6687,-0.6128,-0.5794,-0.5794,-0.5547,-0.5409,-0.5409,-0.5409,-0.5409,-0.5409,-0.5409,-0.5409,-0.8727,-0.8899,-0.9041,-0.9018,-0.8865,-0.8784,-0.8885,0.0,-0.8727,-0.8879,-0.8912,-0.8912,-0.8912,-0.8912,-0.8912,-0.8912,-0.8912,0.0,0.0,0.0,0.0,0.0,0.0,0.0,0.0,0.0,0.0,0.0,0.0,0.0,0.0,-0.989,-0.99,-0.9795,-0.9792,-0.9792,-0.9792,-0.9792,-0.9792,-0.9792,-0.9792,-0.9792,-0.9792,-0.9792,0.0,0.0,0.0,0.0,0.0,-0.9792,-0.9792,-0.9792,-0.9792,-0.9792,-0.9792,-0.9792,-0.9792,-0.9792,-0.9792,-0.9792,-0.9785,-0.9737,-0.9694,-0.963,-0.9583,-0.9048,-0.8438,-0.8204,-0.8148,-0.8118,-0.7832,-0.7818,-0.7818,-0.7671,-0.7578,-0.7457,-0.7332,-0.7271,-0.7229,-0.7218,-0.721,-0.721,-0.721,-0.721,-0.721,-0.721,-0.721,-0.721,-0.721,-0.721,-0.721,-0.721,-0.721,-0.721,-0.721,-0.721,-0.721,-0.721,-0.7099,-0.6935,-0.6715,-0.6518,-0.6325,-0.6133,-0.5824,-0.5684,-0.5684,-0.5491,-0.5409,-0.5409,-0.5409,-0.5409,0.0,-0.8652,-0.8754,-0.8811,-0.8737,0.0,0.0,0.0,-0.8727,-0.8879,-0.8912,-0.8912,-0.8912,-0.8912,-0.8912,-0.8912,-0.8912,0.0,0.0,0.0,0.0,0.0,0.0,0.0,0.0,0.0,0.0,0.0,0.0,0.0,0.0,-0.9879,-0.989,-0.9795,-0.9792,-0.9792,-0.9792,-0.9792,-0.9792,-0.9792,-0.9792,-0.9792,-0.9792,-0.9792,0.0,0.0,0.0,0.0,0.0,-0.9792,-0.9792,-0.9792,-0.9792,-0.9792,-0.9792,-0.9792,-0.9792,-0.9792,-0.9792,-0.9792,-0.9792,-0.9792,-0.9792,-0.9792,-0.9792,-0.9395,-0.8876,-0.8546,-0.8427,-0.8339,-0.815,-0.7994,-0.7883,-0.7782,-0.7706,-0.7606,-0.7411,-0.7345,-0.7294,-0.7229,-0.721,-0.721,-0.721,-0.721,-0.721,-0.721,-0.721,-0.721,-0.721,-0.721,-0.721,-0.721,-0.721,-0.721,-0.721,-0.721,-0.721,-0.721,-0.721,-0.7099,-0.6907,-0.6771,-0.6631,-0.6467,-0.6161,-0.5991,-0.5991,-0.5687,-0.5547,-0.5547,-0.5437,-0.5409,0.0,-0.8376,-0.8489,-0.8655,-0.8587,-0.8564,0.0,0.0,0.0,-0.8882,-0.8912,-0.8912,-0.8912,-0.8912,-0.8912,-0.8912,-0.8912,0.0,0.0,0.0,0.0,0.0,0.0,0.0,0.0,0.0,0.0,0.0,0.0,0.0,0.0,-0.9792,-0.9792,-0.9792,-0.9792,-0.9792,-0.9792,-0.9792,-0.9792,-0.9792,-0.9792,-0.9792,-0.9792,-0.9792,0.0,0.0,0.0,0.0,0.0,-0.9792,-0.9792,-0.9792,-0.9792,-0.9792,-0.9792,-0.9792,-0.9792,-0.9792,-0.9792,-0.9792,-0.9792,-0.9792,-0.9792,-0.9792,-0.9792,-0.9579,-0.9278,-0.9004,-0.8705,-0.8461,-0.84,-0.8183,-0.7933,-0.7903,-0.7955,-0.7917,-0.7578,-0.7582,-0.7564,-0.727,-0.7196,-0.7221,-0.7213,-0.721,-0.721,-0.721,-0.721,-0.721,-0.721,-0.721,-0.721,-0.721,-0.721,-0.721,-0.721,-0.721,-0.721,-0.721,-0.721,-0.721,-0.721,-0.6907,-0.674,-0.674,-0.6467,-0.633,-0.6302,-0.5991,-0.5822,-0.5822,-0.5547,-0.5437,-0.8057,0.0,-0.8179,-0.8469,-0.8536,-0.8564,0.0,0.0,0.0,0.0,0.0,0.0,0.0,-0.8912,-0.8912,-0.8912,-0.8912,0.0,0.0,0.0,0.0,0.0,0.0,0.0,0.0,0.0,0.0,0.0,0.0,0.0,0.0,-0.9792,-0.9792,-0.9792,-0.9792,-0.9792,-0.9792,-0.9792,-0.9792,-0.9792,-0.9792,-0.9792,-0.9792,-0.9792,0.0,0.0,0.0,0.0,-0.9792,-0.9792,-0.9792,-0.9792,-0.9792,-0.9792,-0.9792,-0.9792,-0.9792,-0.9792,-0.9792,-0.9792,-0.9792,-0.9792,-0.9792,-0.9792,-0.9792,-0.9761,-0.9609,-0.9305,-0.9156,-0.8973,-0.8522,-0.8339,-0.8214,-0.7964,-0.8554,-0.8913,-0.7876,-0.8342,-0.8621,-0.7491,-0.7265,-0.7263,-0.7198,-0.721,-0.721,-0.721,-0.721,-0.721,-0.721,-0.721,-0.721,-0.721,-0.721,-0.721,-0.721,-0.721,-0.721,-0.721,-0.721,-0.721,-0.721,-0.7127,-0.7071,-0.7071,-0.6771,-0.6495,-0.6302,-0.6219,-0.6188,-0.6161,-0.5852,-0.5712,-0.7988,-0.7988,-0.8084,-0.8408,-0.8509,-0.8564,-0.8841,0.0,0.0,0.0,0.0,0.0,0.0,0.0,0.0,0.0,0.0,0.0,0.0,0.0,0.0,0.0,0.0,0.0,0.0,0.0,0.0,0.0,0.0,0.0,0.0,-0.9792,-0.9792,-0.9792,-0.9792,-0.9792,-0.9792,-0.9792,-0.9792,-0.9792,-0.9792,-0.9792,-0.9792,-0.9792,-0.9792,0.0,0.0,0.0,-0.9792,-0.9792,-0.9792,-0.9792,-0.9792,-0.9792,-0.9792,-0.9792,-0.9792,-0.9792,-0.9792,-0.9792,-0.9792,-0.9792,-0.9792,-0.9792,-0.9792,-0.9792,-0.9761,-0.9579,-0.9427,-0.9217,-0.8885,-0.861,-0.8369,-0.8183,-0.849,-0.86,-0.7861,-0.818,-0.838,-0.7558,-0.7346,-0.7305,-0.7323,-0.7256,-0.7201,-0.723,-0.7218,-0.721,-0.721,-0.721,-0.721,-0.721,-0.721,-0.721,-0.721,-0.721,-0.721,-0.721,-0.721,-0.721,-0.721,-0.721,-0.721,-0.721,-0.7018,-0.6851,-0.6715,-0.655,-0.6495,-0.6467,-0.6019,-0.5794,-0.7988,-0.8033,-0.8115,-0.8414,-0.8526,-0.8591,-0.8845,0.0,0.0,0.0,0.0,0.0,0.0,0.0,0.0,0.0,0.0,0.0,0.0,0.0,0.0,0.0,0.0,0.0,0.0,0.0,0.0,0.0,0.0,0.0,0.0,-0.997,-1.0001,-0.9822,-0.9792,-0.9792,-0.9792,-0.9792,-0.9792,-0.9792,-0.9792,-0.9792,-0.9792,-0.9792,-0.9792,0.0,0.0,0.0,-0.9792,-0.9792,-0.9792,-0.9792,-0.9792,-0.9792,-0.9792,-0.9792,-0.9792,-0.9792,-0.9792,-0.9792,-0.9792,-0.9792,-0.9792,-0.9792,-0.9792,-0.9792,-0.9792,-0.9792,-0.9609,-0.9366,-0.9305,-0.8912,-0.8522,-0.843,-0.8333,-0.8177,-0.7807,-0.7875,-0.7929,-0.76,-0.7419,-0.7368,-0.747,-0.7331,-0.725,-0.7316,-0.726,-0.7209,-0.7209,-0.7193,-0.721,-0.721,-0.721,-0.721,-0.721,-0.721,-0.721,-0.721,-0.721,-0.721,-0.721,-0.721,-0.721,-0.721,-0.721,-0.721,-0.721,-0.6907,-0.6768,-0.6771,-0.6156,-0.588,-0.7988,-0.8136,-0.8301,-0.8468,-0.8577,-0.872,0.0,0.0,0.0,0.0,0.0,0.0,0.0,0.0,0.0,0.0,0.0,0.0,0.0,0.0,0.0,0.0,0.0,0.0,0.0,0.0,0.0,0.0,0.0,0.0,0.0,-1.0815,-1.0906,-0.9819,-0.9792,-0.9792,-0.9792,-0.9792,-0.9792,-0.9792,-0.9792,-0.9792,-0.9792,-0.9792,-0.9792,0.0,0.0,-0.9792,-0.9792,-0.9792,-0.9792,-0.9792,-0.9792,-0.9792,-0.9792,-0.9792,-0.9792,-0.9792,-0.9792,-0.9792,-0.9792,-0.9792,-0.9792,-0.9792,-0.9792,-0.9792,-0.9792,-0.9792,-0.9761,-0.967,-0.9366,-0.9217,-0.9034,-0.8522,-0.9186,-0.9539,-0.8182,-0.8721,-0.9131,-0.7901,-0.7576,-0.7468,-0.7487,-0.7373,-0.7322,-0.7443,-0.7357,-0.7278,-0.7278,-0.7248,-0.721,-0.721,-0.721,-0.721,-0.721,-0.721,-0.721,-0.721,-0.721,-0.721,-0.721,-0.721,-0.721,-0.721,-0.721,-0.721,-0.721,-0.7154,-0.7127,-0.7099,-0.6492,-0.6219,-0.8958,-0.9129,-0.932,-0.9542,-0.9614,-0.9527,0.0,0.0,0.0,0.0,0.0,0.0,0.0,0.0,0.0,0.0,0.0,0.0,0.0,0.0,0.0,0.0,0.0,0.0,0.0,0.0,0.0,0.0,0.0,0.0,0.0,0.0,-1.142,-1.0846,-1.0815,-1.0516,-0.9822,-0.9792,-0.9792,-0.9792,-0.9792,-0.9792,-0.9792,-0.9792,-0.9792,-0.9792,0.0,-0.9792,-0.9792,-0.9792,-0.9792,-0.9792,-0.9792,-0.9792,-0.9792,-0.9792,-0.9792,-0.9792,-0.9792,-0.9792,-0.9792,-0.9792,-0.9792,-0.9792,-0.9792,-0.9792,-0.9792,-0.9792,-0.9792,-0.9761,-0.9609,-0.9427,-0.9183,-0.8763,-0.8976,-0.9034,-0.8086,-0.89,-0.9603,-0.8971,-0.9318,-0.9507,-0.8852,-0.854,-0.8196,-0.7678,-0.7402,-0.726,-0.73,-0.723,-0.721,-0.721,-0.721,-0.721,-0.721,-0.721,-0.721,-0.721,-0.721,-0.721,-0.721,-0.721,-0.721,-0.721,-0.721,-0.721,-0.721,-0.721,-0.721,-0.7182,-0.6743,-0.6439,-1.0117,-1.0218,-1.0316,-1.0778,0.0,0.0,0.0,0.0,0.0,0.0,0.0,0.0,0.0,0.0,0.0,0.0,0.0,0.0,0.0,0.0,0.0,0.0,0.0,0.0,0.0,0.0,0.0,0.0,0.0,0.0,0.0,0.0,-1.247,-1.2169,-1.2169,-1.1687,-1.0725,-1.0725,-1.0422,-0.9792,-0.9792,-0.9792,-0.9792,-0.9792,-0.9792,-0.9792,-0.9792,-0.9792,-0.9792,-0.9792,-0.9792,-0.9792,-0.9792,-0.9792,-0.9792,-0.9792,-0.9792,-0.9792,-0.9792,-0.9792,-0.9792,-0.9792,-0.9792,-0.9792,-0.9792,-0.9792,-0.9792,-0.9792,-0.9792,-0.9792,-0.9792,-0.9609,-0.9339,-0.8976,-0.8705,-0.8397,-0.7994,-0.8656,-0.935,-0.935,-1.0311,-1.0843,-0.9959,-0.9552,-0.9106,-0.8301,-0.7681,-0.7335,-0.734,-0.7296,-0.7245,-0.7215,-0.7207,-0.7212,-0.7213,-0.721,-0.721,-0.721,-0.721,-0.721,-0.721,-0.721,-0.721,-0.721,-0.721,-0.721,-0.721,-0.721,-0.721,-0.7182,-0.6851,-0.655,-1.1146,-1.0979,-1.072,-1.1809,-1.1388,0.0,0.0,0.0,0.0,0.0,0.0,0.0,0.0,0.0,0.0,0.0,0.0,0.0,0.0,0.0,0.0,0.0,0.0,0.0,0.0,0.0,0.0,0.0,0.0,0.0,0.0,0.0,0.0,-1.3575,-1.3545,-1.3515,-1.3426,-1.3426,-1.2195,-0.9792,-0.9792,-0.9792,-0.9792,-0.9792,-0.9792,-0.9792,-0.9792,-0.9792,-0.9792,-0.9792,-0.9792,-0.9792,-0.9792,-0.9792,-0.9792,-0.9792,-0.9792,-0.9792,-0.9792,-0.9792,-0.9792,-0.9792,-0.9792,-0.9792,-0.9792,-0.9792,-0.9792,-0.9792,-0.9792,-0.9792,-0.9792,-0.9788,-0.9609,-0.9037,-0.8885,-0.8699,-0.8025,-0.7961,-0.8022,-0.8022,-0.8973,-0.9755,-0.9778,-0.9669,-0.9582,-0.9647,-0.8522,-0.7625,-0.7489,-0.7468,-0.7404,-0.7207,-0.7255,-0.7277,-0.7193,-0.721,-0.721,-0.721,-0.721,-0.721,-0.721,-0.721,-0.721,-0.721,-0.721,-0.721,-0.721,-0.721,-0.721,-0.7182,-0.6851,-0.655,-1.185,-1.2197,-1.2695,-1.3288,-1.3175,0.0,0.0,0.0,0.0,0.0,0.0,0.0,0.0,0.0,0.0,0.0,0.0,0.0,0.0,0.0,0.0,0.0,0.0,0.0,0.0,0.0,0.0,0.0,0.0,0.0,0.0,0.0,0.0,-1.4887,-1.4887,-1.45,-1.3695,-1.3695,-1.3211,-1.2225,-1.2225,-1.2225,-1.2225,-1.2225,-1.1774,-1.0967,-1.0967,-1.0516,-0.9792,-0.9792,-0.9792,-0.9792,-0.9792,-0.9792,-0.9792,-0.9792,-0.9792,-0.9792,-0.9792,-0.9792,-0.9792,-0.9792,-0.9792,-0.9792,-0.9792,-0.9792,-0.9792,-0.9792,-0.9792,-0.9792,-0.9792,-0.9792,-0.964,-0.9037,-0.8885,-0.8702,-0.8055,-0.8538,-0.9079,-0.9079,-1.0752,-1.1898,-1.1121,-1.0901,-1.061,-0.9902,-0.8537,-0.76,-0.7627,-0.7568,-0.7424,-0.7285,-0.7241,-0.7231,-0.7215,-0.721,-0.721,-0.721,-0.721,-0.721,-0.721,-0.721,-0.721,-0.721,-0.721,-0.721,-0.721,-0.721,-0.721,-0.7182,-0.6851,-0.655,-1.3008,-1.3373,-1.3941,0.0,0.0,0.0,0.0,0.0,0.0,0.0,0.0,0.0,0.0,0.0,0.0,0.0,0.0,0.0,0.0,0.0,0.0,0.0,0.0,0.0,0.0,0.0,0.0,0.0,0.0,0.0,0.0,0.0,0.0,0.0,-1.6196,-1.5782,-1.4917,-1.4887,-1.4887,-1.4887,-1.4887,-1.447,-1.3695,-1.3695,-1.3186,-1.232,-1.1868,-1.1209,-1.0365,-0.9974,-0.9792,-0.9792,-0.9792,-0.9792,-0.9792,-0.9792,-0.9792,-0.9792,-0.9792,-0.9792,-0.9792,-0.9792,-0.9792,-0.9792,-0.9792,-0.9792,-0.9792,-0.9792,-1.0092,-1.0395,-1.0395,-1.0031,-0.9518,-0.9007,-0.8824,-0.858,-0.8025,-0.8599,-0.9201,-0.9201,-1.0982,-1.2307,-1.1792,-1.166,-1.15,-1.1083,-0.9423,-0.8236,-0.8286,-0.7895,-0.757,-0.7381,-0.7285,-0.7223,-0.7213,-0.721,-0.721,-0.721,-0.721,-0.721,-0.721,-0.721,-0.721,-0.721,-0.721,-0.721,-0.721,-0.721,-0.7154,-0.7043,-0.6796,-0.6492,-1.4706,-1.4464,-1.4086,0.0,0.0,0.0,0.0,0.0,0.0,0.0,0.0,0.0,0.0,0.0,0.0,0.0,0.0,0.0,0.0,0.0,0.0,0.0,0.0,0.0,0.0,0.0,0.0,0.0,0.0,0.0,0.0,0.0,0.0,0.0,-1.7514,-1.7514,-1.7514,-1.7514,-1.7514,-1.7514,-1.7514,-1.6172,-1.3725,-1.3725,-1.3725,-1.3635,-1.232,-1.1722,-1.1631,-1.0334,-0.9822,-0.9792,-0.9792,-0.9822,-0.9822,-0.9792,-0.9822,-0.9822,-0.9792,-0.9792,-0.9792,-0.9792,-0.9792,-0.9792,-0.9792,-0.9792,-0.9792,-0.9792,-1.0698,-1.1692,-1.1692,-1.0516,-0.9244,-0.8976,-0.8644,-0.8308,-0.7964,-0.7903,-0.7903,-0.7903,-0.8927,-1.0195,-1.146,-1.1701,-1.2153,-1.3481,-1.1464,-0.9754,-0.9612,-0.8609,-0.781,-0.7516,-0.7381,-0.7288,-0.7196,-0.721,-0.721,-0.721,-0.721,-0.721,-0.721,-0.721,-0.721,-0.721,-0.721,-0.721,-0.721,-0.721,-0.7018,-0.6687,-0.6687,-0.6381,-1.4528,-1.4858,0.0,0.0,0.0,0.0,0.0,0.0,0.0,0.0,0.0,0.0,0.0,0.0,0.0,0.0,0.0,0.0,0.0,0.0,0.0,0.0,0.0,0.0,0.0,0.0,0.0,0.0,0.0,0.0,0.0,0.0,0.0,0.0,-1.7514,-1.7514,-1.7514,-1.7514,-1.7514,-1.7514,-1.7514,-1.7091,-1.6378,-1.6378,-1.5871,-1.5006,-1.4619,-1.3934,-1.3006,-1.1687,-1.0607,-0.9792,-0.9792,-1.0365,-1.1027,-1.0122,-1.0365,-1.0997,-1.0122,-0.9792,-0.9792,-0.9792,-0.9792,-0.9792,-0.9792,-0.9792,-0.9792,-0.9792,-1.0061,-1.0577,-1.148,-1.1201,-1.0626,-1.0324,-0.9484,-0.861,-0.8025,-0.7903,-0.7903,-0.7903,-0.8927,-0.9923,-1.0286,-1.1099,-1.1822,-1.2243,-1.0861,-0.9458,-0.8515,-0.8021,-0.7725,-0.7655,-0.7433,-0.7294,-0.7285,-0.7231,-0.721,-0.721,-0.721,-0.721,-0.721,-0.721,-0.721,-0.721,-0.721,-0.721,-0.721,-0.6963,-0.6796,-0.6687,-0.6267,-0.5961,-1.4693,0.0,0.0,0.0,0.0,0.0,0.0,0.0,0.0,0.0,0.0,0.0,0.0,0.0,0.0,0.0,0.0,0.0,0.0,0.0,0.0,0.0,0.0,0.0,0.0,0.0,0.0,0.0,0.0,0.0,0.0,0.0,0.0,0.0,-1.7514,-1.7514,-1.7514,-1.7514,-1.7514,-1.7514,-1.7514,-1.7514,-1.7514,-1.7514,-1.7091,-1.6319,-1.5811,-1.4887,-1.3635,-1.2831,-1.2049,-1.1295,-1.0755,-1.1027,-1.1601,-1.0846,-1.0728,-1.0906,-1.0634,-1.0213,-0.9792,-0.9792,-0.9792,-0.9792,-0.9792,-0.9792,-0.9792,-0.9792,-1.0152,-1.0725,-1.1511,-1.1985,-1.2127,-1.1675,-1.0868,-1.0054,-0.9535,-0.9019,-0.8656,-0.8656,-0.887,-0.9201,-0.9714,-1.0438,-1.131,-1.2337,-1.14,-1.0074,-0.8809,-0.8143,-0.775,-0.7706,-0.757,-0.7433,-0.7384,-0.7296,-0.7228,-0.7228,-0.7209,-0.721,-0.721,-0.721,-0.721,-0.721,-0.721,-0.721,-0.721,-0.6851,-0.6659,-0.6523,-0.6017,-0.5738,-1.5179,0.0,0.0,0.0,0.0,0.0,0.0,0.0,0.0,0.0,0.0,0.0,0.0,0.0,0.0,0.0,0.0,0.0,0.0,0.0,0.0,0.0,0.0,0.0,0.0,0.0,0.0,0.0,0.0,0.0,0.0,0.0,0.0,-1.7514,-1.7514,-1.7514,-1.7514,-1.7514,-1.7514,0.0,-1.7514,-1.7514,-1.7514,-1.7514,-1.7514,-1.7455,-1.629,-1.5065,-1.3874,-1.3874,-1.3814,-1.3575,-1.235,-1.1963,-1.2023,-1.1782,-1.1118,-1.0452,-1.139,-1.0936,-0.997,-0.997,-0.9879,-0.9792,-0.9792,-0.9792,-0.9792,-0.9792,-1.0634,-1.1541,-1.1661,-1.2586,-1.3396,-1.2967,-1.2457,-1.1972,-1.1611,-1.0528,-0.9623,-0.9623,-0.8687,-0.8263,-0.9441,-0.9714,-1.0649,-1.3151,-1.2487,-1.128,-1.0135,-0.887,-0.8011,-0.7905,-0.7758,-0.7641,-0.75,-0.7368,-0.7289,-0.7289,-0.7245,-0.721,-0.721,-0.721,-0.721,-0.721,-0.721,-0.7182,-0.7154,-0.6824,-0.6523,-0.6246,-0.5907,-0.5629,0.0,-1.5765,0.0,0.0,0.0,0.0,0.0,0.0,0.0,0.0,0.0,0.0,0.0,0.0,0.0,0.0,0.0,0.0,0.0,0.0,0.0,0.0,0.0,0.0,0.0,0.0,0.0,0.0,0.0,0.0,0.0,0.0,0.0,-1.7514,-1.7514,-1.7514,-1.7514,-1.7514,-1.7514,0.0,-1.7514,-1.7514,-1.7514,-1.7514,-1.7514,-1.7479,-1.7214,-1.6378,-1.5184,-1.5184,-1.4589,-1.3665,-1.3366,-1.3874,-1.45,-1.247,-1.2826,-1.4108,-1.232,-1.1511,-1.1299,-1.1299,-1.0607,-0.9792,-0.9792,-0.9792,-0.9792,-0.9792,-1.0001,-1.0425,-1.145,-1.1774,-1.2217,-1.3814,-1.2607,-1.0952,-1.0347,-0.9201,-0.8294,-0.8294,-0.8083,-0.7991,-0.8263,-0.914,-1.0317,-1.1912,-1.1882,-1.1611,-1.134,-1.0165,-0.937,-0.9341,-0.8257,-0.7516,-0.7492,-0.7317,-0.722,-0.722,-0.7196,-0.721,-0.721,-0.721,-0.721,-0.721,-0.721,-0.7074,-0.6796,-0.6523,-0.6216,-0.5907,-0.5631,-0.5465,0.0,0.0,0.0,0.0,0.0,0.0,0.0,0.0,0.0,0.0,0.0,0.0,0.0,0.0,0.0,0.0,0.0,0.0,0.0,0.0,0.0,0.0,0.0,0.0,0.0,0.0,0.0,0.0,0.0,0.0,0.0,-1.7514,-1.7514,-1.7514,-1.7514,-1.7514,-1.7514,-1.7514,-1.7514,-1.7514,-1.7514,-1.7514,-1.7514,-1.7514,-1.7514,-1.7514,-1.7514,-1.7126,-1.6496,-1.6496,-1.6107,-1.5456,-1.4857,-1.5006,-1.5421,-1.4078,-1.4048,-1.4589,-1.3844,-1.3156,-1.256,-1.1903,-1.1239,-1.0604,-0.997,-0.9792,-0.9792,-0.9792,-0.97,-0.97,-1.0395,-1.0808,-1.1464,-1.3057,-1.2907,-1.2427,-1.2547,-1.1072,-0.9714,-0.9714,-0.8748,-0.7903,-0.7903,-0.8961,-1.0044,-1.0676,-1.0797,-1.1008,-1.1611,-1.0585,-0.9805,-0.9805,-0.9013,-0.8248,-0.7635,-0.738,-0.7241,-0.7241,-0.7215,-0.721,-0.721,-0.721,-0.721,-0.721,-0.7043,-0.6879,-0.6687,-0.627,-0.5963,-0.5794,-0.5519,-0.5409,0.0,0.0,0.0,0.0,0.0,0.0,0.0,0.0,0.0,0.0,0.0,0.0,0.0,0.0,0.0,0.0,0.0,0.0,0.0,0.0,0.0,0.0,0.0,0.0,0.0,0.0,0.0,0.0,0.0,0.0,-1.7514,-1.7514,-1.7514,-1.7514,-1.7514,-1.7514,-1.7514,-1.7514,-1.7514,-1.7514,-1.7514,-1.7514,-1.7514,-1.7514,-1.7514,-1.7514,-1.7514,-1.7514,-1.7514,-1.7514,-1.7514,-1.7397,-1.6349,-1.593,-1.59,-1.5693,-1.5065,-1.447,-1.5302,-1.4917,-1.3844,-1.2736,-1.223,-1.1842,-1.0785,-1.0304,-1.0122,-1.0061,-0.9697,-0.9275,-0.9244,-0.9815,-1.0653,-1.1645,-1.2637,-1.372,-1.4992,-1.3391,-1.1701,-1.1701,-0.9835,-0.8233,-0.8233,-0.893,-0.9562,-0.9775,-0.9805,-1.0256,-1.1551,-1.0585,-0.9805,-0.9805,-0.947,-0.8846,-0.776,-0.7435,-0.73,-0.7278,-0.7239,-0.721,-0.721,-0.721,-0.721,-0.721,-0.6879,-0.6687,-0.6631,-0.6072,-0.5766,-0.574,-0.5491,-0.5409,0.0,0.0,0.0,0.0,0.0,0.0,0.0,0.0,0.0,0.0,0.0,0.0,0.0,0.0,0.0,0.0,0.0,0.0,0.0,0.0,0.0,0.0,0.0,0.0,0.0,0.0,0.0,0.0,0.0,0.0,-1.7514,-1.7514,-1.7514,-1.7514,-1.7514,-1.7514,-1.7514,-1.7514,-1.7514,-1.7514,-1.7514,-1.7514,-1.7514,-1.7514,-1.7514,-1.7514,-1.7514,-1.7514,-1.7514,-1.7514,-1.7514,-1.7479,-1.7303,-1.7244,-1.712,-1.6018,-1.6196,-1.6856,-1.593,-1.5486,-1.5332,-1.5154,-1.4321,-1.3396,-1.3216,-1.2376,-1.1386,-1.1167,-1.0236,-0.9244,-0.9007,-0.8824,-0.9034,-1.027,-1.0445,-1.1042,-1.3451,-1.2757,-1.1701,-1.1701,-1.0528,-0.9532,-0.9532,-0.8778,-0.8538,-0.9623,-0.9805,-1.0256,-1.1551,-1.0585,-0.9805,-0.9805,-0.8696,-0.7835,-0.7551,-0.7387,-0.7262,-0.7212,-0.7218,-0.721,-0.721,-0.721,-0.721,-0.721,-0.6879,-0.6576,-0.6358,-0.5991,-0.5684,-0.5465,-0.5409,-0.5409,0.0,0.0,0.0,0.0,0.0,0.0,0.0,0.0,0.0,0.0,0.0,0.0,0.0,0.0,0.0,0.0,0.0,0.0,0.0,0.0,0.0,0.0,0.0,0.0,0.0,0.0,0.0,0.0,0.0,-1.7514,-1.7514,-1.7514,-1.7514,-1.7514,-1.7514,-1.7514,-1.7514,-1.7514,-1.7514,-1.7514,-1.7514,-1.7514,-1.7514,-1.7514,-1.7514,-1.7514,-1.7514,-1.7514,-1.7514,-1.7514,-1.7514,-1.7514,-1.7514,-1.7514,-1.742,-1.6856,-1.7003,-1.742,-1.6856,-1.6644,-1.6555,-1.5841,-1.5213,-1.4589,-1.369,-1.2522,-1.1412,-1.111,-0.9937,-0.8763,-0.8644,-0.8366,-0.8452,-0.9721,-0.9899,-1.0317,-1.2187,-1.2127,-1.1701,-1.1701,-1.1249,-1.0646,-0.9923,-0.9323,-0.89,-0.8748,-0.8748,-0.9201,-1.0468,-1.0135,-0.9805,-0.9805,-0.917,-0.8447,-0.7684,-0.7416,-0.7284,-0.7258,-0.722,-0.721,-0.721,-0.721,-0.7099,-0.6935,-0.6631,-0.6411,-0.6302,-0.5826,-0.5519,-0.5409,-0.5409,-0.5409,0.0,0.0,0.0,0.0,0.0,0.0,0.0,0.0,0.0,0.0,0.0,0.0,0.0,0.0,0.0,0.0,0.0,0.0,0.0,0.0,0.0,0.0,0.0,0.0,0.0,0.0,0.0,0.0,0.0,-1.7514,-1.7514,-1.7514,-1.7514,-1.7514,-1.7514,-1.7514,-1.7514,-1.7514,-1.7514,-1.7514,-1.7514,-1.7514,-1.7514,-1.7514,-1.7514,-1.7514,-1.7514,-1.7514,-1.7514,-1.7514,-1.7514,-1.7514,-1.7514,-1.7514,-1.7514,-1.7514,-1.7514,-1.7514,-1.7514,-1.7514,-1.7332,-1.6378,-1.6077,-1.5841,-1.456,-1.3267,-1.2183,-1.1774,-1.0304,-0.8854,-0.879,-0.833,-0.8144,-0.9079,-0.9319,-0.9835,-1.1792,-1.2217,-1.2307,-1.2637,-1.2427,-1.1912,-1.0948,-1.0226,-0.9471,-0.8538,-0.8113,-0.8236,-0.9201,-0.9319,-0.9319,-0.9319,-0.9229,-0.877,-0.7793,-0.7506,-0.7387,-0.7354,-0.7269,-0.7229,-0.7229,-0.7198,-0.7043,-0.6715,-0.6439,-0.6246,-0.6161,-0.5661,-0.5409,-0.5409,-0.5409,-0.5409,0.0,0.0,0.0,0.0,0.0,0.0,0.0,0.0,0.0,0.0,0.0,0.0,0.0,0.0,0.0,0.0,0.0,0.0,0.0,0.0,0.0,0.0,0.0,0.0,0.0,0.0,0.0,0.0,0.0,-1.7514,-1.7514,-1.7514,-1.7514,-1.7514,-1.7514,-1.7514,-1.7514,-1.7514,-1.7514,-1.7514,-1.7514,-1.7514,-1.7514,-1.7514,-1.7514,-1.7514,-1.7514,-1.7514,-1.7514,-1.7514,-1.7514,-1.7514,-1.7514,-1.7514,-1.7514,-1.7514,-1.7514,-1.7514,-1.7514,-1.7514,-1.7479,-1.742,-1.7397,-1.7332,-1.6926,-1.5906,-1.4763,-1.4113,-1.2135,-1.0122,-0.9808,-0.8809,-0.7903,-0.7991,-0.7991,-0.9022,-1.2792,-1.3605,-1.3938,-1.5175,-1.4421,-1.3575,-1.3515,-1.143,-0.9771,-0.9714,-0.8687,-0.793,-0.7991,-0.7991,-0.7991,-0.7991,-0.7986,-0.7909,-0.7709,-0.769,-0.7633,-0.7487,-0.7365,-0.7297,-0.7297,-0.7245,-0.7043,-0.6715,-0.6439,-0.6133,-0.5822,-0.5547,-0.5409,-0.5409,-0.5409,-0.5409,0.0,0.0,0.0,0.0,0.0,0.0,0.0,0.0,0.0,0.0,0.0,0.0,0.0,0.0,0.0,0.0,0.0,0.0,0.0,0.0,0.0,0.0,0.0,0.0,0.0,0.0,0.0,0.0,0.0,0.0,-1.7514,-1.7514,-1.7514,-1.7514,-1.7514,-1.7514,-1.7514,-1.7514,-1.7514,-1.7514,-1.7514,-1.7514,-1.7514,-1.7514,-1.7514,-1.7514,-1.7514,-1.7514,-1.7514,-1.7514,-1.7514,-1.7514,-1.7514,-1.7514,-1.7514,-1.7514,-1.7514,-1.7514,-1.7514,-1.7514,-1.7449,-1.7256,-1.7168,-1.7079,-1.6584,-1.5496,-1.4381,-1.3963,-1.1981,-0.996,-0.9835,-0.887,-0.7903,-0.7903,-0.7903,-0.8507,-1.071,-1.2517,-1.4088,-1.5359,-1.5235,-1.4664,-1.3844,-1.2912,-1.2002,-1.1159,-0.9923,-0.911,-0.911,-0.8416,-0.7903,-0.7903,-0.7903,-0.7883,-0.7842,-0.7744,-0.7684,-0.7638,-0.7419,-0.7308,-0.7308,-0.7248,-0.6963,-0.6439,-0.6358,-0.6133,-0.5794,-0.5519,-0.5409,-0.5409,-0.5409,-0.5409,0.0,0.0,0.0,0.0,0.0,0.0,0.0,0.0,0.0,0.0,0.0,0.0,0.0,0.0,0.0,0.0,0.0,0.0,0.0,0.0,0.0,0.0,0.0,0.0,0.0,0.0,0.0,0.0,0.0,0.0,-1.7514,-1.7514,-1.7514,-1.7514,-1.7514,-1.7514,-1.7514,-1.7514,-1.7514,-1.7514,-1.7514,-1.7514,-1.7514,-1.7514,-1.7514,-1.7514,-1.7514,-1.7514,-1.7514,-1.7514,-1.7514,-1.7514,-1.7514,-1.7514,-1.7514,-1.7514,-1.7514,-1.7514,-1.7514,-1.7514,-1.7455,-1.7109,-1.6997,-1.6879,-1.6288,-1.5477,-1.4719,-1.4421,-1.2792,-1.1008,-1.0555,-0.9171,-0.7903,-0.7903,-0.7903,-0.8236,-0.9532,-1.1491,-1.3421,-1.4724,-1.5294,-1.5329,-1.448,-1.3968,-1.3391,-1.2517,-1.0887,-0.9805,-0.9805,-0.8687,-0.7903,-0.7903,-0.7903,-0.7903,-0.7903,-0.7766,-0.7701,-0.7701,-0.7481,-0.7351,-0.7308,-0.7258,-0.6946,-0.6302,-0.6302,-0.6077,-0.5656,-0.5491,-0.5409,-0.5409,-0.5409,-0.5409,0.0,0.0,0.0,0.0,0.0,0.0,0.0,0.0,0.0,0.0,0.0,0.0,0.0,0.0,0.0,0.0,0.0,0.0,0.0,0.0,0.0,0.0,0.0,0.0,0.0,0.0,0.0,0.0,0.0,-1.7514,-1.7514,-1.7514,-1.7514,-1.7514,-1.7514,-1.7514,-1.7514,-1.7514,-1.7514,-1.7514,-1.7514,-1.7514,-1.7514,-1.7514,-1.7514,-1.7514,-1.7514,-1.7514,-1.7514,-1.7514,-1.7514,-1.7514,-1.7514,-1.7514,-1.7514,-1.7514,-1.7514,-1.7514,-1.7514,-1.7479,-1.7426,-1.7079,-1.6967,-1.6849,-1.6259,-1.6087,-1.6028,-1.569,-1.4689,-1.3391,-1.2002,-0.9805,-0.7961,-0.7903,-0.7903,-0.8236,-0.9471,-1.0736,-1.2062,-1.3421,-1.4694,-1.5566,-1.5596,-1.457,-1.3754,-1.3754,-1.1555,-0.9926,-0.9926,-0.8778,-0.7961,-0.7961,-0.7933,-0.7903,-0.7903,-0.7769,-0.7706,-0.7706,-0.7592,-0.7441,-0.7322,-0.7313,-0.7005,-0.6309,-0.6307,-0.5998,-0.5409,-0.5409,-0.5409,-0.5409,-0.5412,-0.5414,-1.258,0.0,0.0,0.0,0.0,0.0,0.0,-1.5573,0.0,0.0,0.0,0.0,0.0,0.0,0.0,0.0,0.0,0.0,0.0,0.0,0.0,0.0,0.0,0.0,0.0,0.0,0.0,0.0,-1.7514,-1.7514,-1.7514,-1.7514,-1.7514,-1.7514,-1.7514,-1.7514,-1.7514,-1.7514,-1.7514,-1.7514,-1.7514,-1.7514,-1.7514,-1.7514,-1.7514,-1.7514,-1.7514,-1.7514,-1.7514,-1.7514,-1.7514,-1.7514,-1.7514,-1.7514,-1.7514,-1.7514,-1.7514,-1.7514,-1.7514,-1.7338,-1.7079,-1.6749,-1.6519,-1.6259,-1.5868,-1.575,-1.572,-1.5626,-1.4689,-1.3181,-1.0918,-0.9805,-0.9049,-0.8113,-0.7903,-0.7991,-0.8355,-0.941,-1.0978,-1.3271,-1.3968,-1.451,-1.5448,-1.5294,-1.5086,-1.5086,-1.3665,-1.2607,-1.2607,-1.0649,-0.9262,-0.9262,-0.8446,-0.7903,-0.7903,-0.7872,-0.7853,-0.7853,-0.7717,-0.7635,-0.7603,-0.7487,-0.7093,-0.6381,-0.6381,-0.6064,-0.5409,-0.5409,-0.5409,-0.5409,-0.5445,-0.5473,0.0,0.0,0.0,0.0,0.0,0.0,-1.4288,-1.4118,-1.4075,0.0,0.0,0.0,0.0,0.0,0.0,0.0,0.0,0.0,0.0,0.0,0.0,0.0,0.0,0.0,0.0,0.0,0.0,-1.7514,-1.7514,-1.7514,-1.7514,-1.7514,-1.7514,-1.7514,-1.7514,-1.7514,-1.7514,-1.7514,-1.7514,-1.7514,-1.7514,-1.7514,-1.7514,-1.7514,-1.7514,-1.7514,-1.7514,-1.7514,-1.7514,-1.7514,-1.7514,-1.7514,-1.7514,-1.7514,-1.7514,-1.7514,-1.7514,-1.7485,-1.7338,-1.7168,-1.6932,-1.649,-1.6229,-1.6052,-1.569,-1.5601,-1.5601,-1.5601,-1.4689,-1.3211,-1.1129,-1.0195,-0.9471,-0.8205,-0.7903,-0.7903,-0.7903,-0.8477,-0.9623,-1.1675,-1.2942,-1.3938,-1.4689,-1.5264,-1.5601,-1.5601,-1.451,-1.3695,-1.3695,-1.1882,-1.0377,-0.9866,-0.914,-0.8477,-0.793,-0.7859,-0.7832,-0.7832,-0.7739,-0.7679,-0.7627,-0.7606,-0.7242,-0.6491,-0.6417,-0.606,-0.5409,-0.5409,-0.5409,-0.5409,-0.5433,-0.5455,0.0,0.0,0.0,0.0,0.0,0.0,-1.2363,-1.2504,-1.2608,0.0,0.0,0.0,0.0,0.0,0.0,0.0,0.0,0.0,0.0,0.0,0.0,0.0,0.0,0.0,0.0,-1.7514,-1.7514,-1.7514,-1.7514,-1.7514,-1.7514,-1.7514,-1.7514,-1.7514,-1.7514,-1.7514,-1.7514,-1.7514,-1.7514,-1.7514,-1.7514,-1.7514,-1.7514,-1.7514,-1.7514,-1.7514,-1.7514,-1.7514,-1.7514,-1.7514,-1.7514,-1.7514,-1.7514,-1.7514,-1.7514,-1.7514,-1.7514,-1.7455,-1.7109,-1.6991,-1.6844,-1.6288,-1.6057,-1.5992,-1.569,-1.5601,-1.5601,-1.5601,-1.4783,-1.3605,-1.2277,-1.0978,-0.9684,-0.8416,-0.7991,-0.7903,-0.7903,-0.7903,-0.8233,-0.938,-1.1585,-1.3301,-1.3455,-1.454,-1.5388,-1.5388,-1.454,-1.3909,-1.3909,-1.2757,-1.1491,-1.0347,-0.9983,-0.9353,-0.8205,-0.7867,-0.772,-0.772,-0.772,-0.7671,-0.7562,-0.7663,-0.7392,-0.6688,-0.6464,-0.6055,-0.541,-0.542,-0.5416,-0.5424,-0.5424,-0.5424,0.0,0.0,0.0,0.0,0.0,0.0,-1.22,-1.1737,-1.1423,0.0,0.0,0.0,0.0,0.0,0.0,0.0,0.0,0.0,0.0,0.0,0.0,0.0,0.0,0.0,0.0,-1.7514,-1.7514,-1.7514,-1.7514,-1.7514,-1.7514,-1.7514,-1.7514,-1.7514,-1.7514,-1.7514,-1.7514,-1.7514,-1.7514,-1.7514,-1.7514,-1.7514,-1.7514,-1.7514,-1.7514,-1.7514,-1.7514,-1.7514,-1.7514,-1.7514,-1.7514,-1.7514,-1.7514,-1.7514,-1.7514,-1.7514,-1.7514,-1.7455,-1.7109,-1.6814,-1.6537,-1.62,-1.5933,-1.569,-1.5631,-1.5601,-1.5601,-1.5601,-1.5418,-1.4932,-1.3635,-1.2307,-1.1008,-0.9744,-0.8656,-0.7903,-0.7903,-0.7903,-0.7961,-0.8233,-0.9502,-1.0891,-1.1912,-1.3181,-1.4058,-1.4058,-1.4719,-1.5235,-1.5235,-1.4118,-1.3211,-1.2972,-1.1068,-0.9714,-0.9441,-0.8453,-0.787,-0.787,-0.787,-0.7859,-0.7834,-0.7856,-0.7631,-0.7187,-0.649,-0.5962,-0.5563,-0.5451,-0.5416,-0.5484,-0.5484,-0.5484,0.0,0.0,0.0,-0.9644,0.0,0.0,0.0,-1.0213,-0.9993,0.0,0.0,0.0,0.0,0.0,0.0,0.0,0.0,0.0,0.0,0.0,0.0,0.0,0.0,0.0,0.0,-1.7514,-1.7514,-1.7514,-1.7514,-1.7514,-1.7514,-1.7514,-1.7514,-1.7514,-1.7514,-1.7514,-1.7514,-1.7514,-1.7514,-1.7514,-1.7514,-1.7514,-1.7514,-1.7514,-1.7514,-1.7514,-1.7514,-1.7514,-1.7514,-1.7514,-1.7514,-1.7514,-1.7514,-1.7514,-1.7514,-1.7514,-1.7397,-1.7191,-1.6867,-1.6549,-1.6253,-1.5963,-1.575,-1.5601,-1.5601,-1.5601,-1.5601,-1.5601,-1.5601,-1.5294,-1.4028,-1.3211,-1.2217,-1.0256,-0.9319,-0.8687,-0.8022,-0.7903,-0.7903,-0.7903,-0.8416,-0.9259,-1.0528,-1.1856,-1.2697,-1.2697,-1.3814,-1.4659,-1.4659,-1.4659,-1.4147,-1.2847,-1.1521,-1.0226,-0.8961,-0.8263,-0.7903,-0.7903,-0.7903,-0.7903,-0.7903,-0.7903,-0.7633,-0.707,-0.648,-0.6015,-0.5614,-0.5526,-0.5504,-0.5547,-0.5547,-0.5547,0.0,0.0,0.0,0.0,0.0,-0.8919,0.0,0.0,0.0,-0.8983,0.0,0.0,0.0,0.0,0.0,0.0,0.0,0.0,0.0,0.0,0.0,0.0,0.0,0.0,0.0,-1.7361,-1.7514,-1.7514,-1.7514,-1.7514,-1.7514,-1.7514,-1.7514,-1.7514,-1.7514,-1.7514,-1.7514,-1.7514,-1.7538,-1.7587,-1.7587,-1.7587,-1.7636,-1.7636,-1.7641,-1.7587,-1.7587,-1.7556,-1.7514,-1.7514,-1.7514,-1.7514,-1.7514,-1.7514,-1.7479,-1.7426,-1.7226,-1.6932,-1.6572,-1.6283,-1.6052,-1.572,-1.5601,-1.5601,-1.5601,-1.5601,-1.5601,-1.5601,-1.5601,-1.5359,-1.4331,-1.3874,-1.3181,-1.1038,-1.0165,-0.9532,-0.8477,-0.8083,-0.7903,-0.7903,-0.7903,-0.8233,-0.9259,-1.0495,-1.134,-1.134,-1.2457,-1.3301,-1.3301,-1.4451,-1.4326,-1.1942,-1.1701,-1.077,-0.8477,-0.8052,-0.7903,-0.7903,-0.7903,-0.7903,-0.7903,-0.7903,-0.7555,-0.6834,-0.6559,-0.6156,-0.5666,-0.5666,-0.5648,-0.5614,-0.5614,-0.5614,0.0,0.0,0.0,0.0,-0.9032,0.0,0.0,0.0,-0.8983,-0.9276,0.0,0.0,0.0,0.0,0.0,0.0,0.0,0.0,0.0,0.0,0.0,0.0,0.0,0.0,0.0,0.0,-1.7514,-1.7514,-1.7514,-1.7514,-1.7514,-1.7514,-1.7514,-1.7514,-1.7514,-1.7514,-1.7514,-1.7514,-1.7629,-1.7859,-1.7859,-1.7992,-1.8203,-1.8203,-1.8094,-1.7859,-1.7859,-1.7726,-1.7514,-1.7514,-1.7514,-1.7514,-1.7514,-1.7514,-1.7449,-1.7168,-1.7026,-1.6908,-1.6348,-1.6146,-1.6052,-1.572,-1.5601,-1.5601,-1.5601,-1.5601,-1.5601,-1.5601,-1.5601,-1.5572,-1.5418,-1.454,-1.3635,-1.3336,-1.1491,-0.9775,-0.9623,-0.8687,-0.7903,-0.7903,-0.7903,-0.793,-0.8083,-0.9171,-1.0014,-1.0014,-1.1099,-1.1942,-1.1942,-1.3092,-1.3361,-1.1852,-1.1701,-1.1129,-0.9714,-0.8535,-0.7903,-0.7903,-0.7903,-0.7903,-0.7903,-0.7903,-0.7592,-0.6912,-0.6851,-0.651,-0.5855,-0.5855,-0.5772,-0.5614,-0.5614,-0.5614,0.0,0.0,0.0,0.0,0.0,0.0,0.0,0.0,-0.8663,0.0,0.0,0.0,0.0,0.0,0.0,0.0,0.0,0.0,0.0,0.0,0.0,0.0,0.0,0.0,0.0,0.0,0.0,0.0,0.0,-1.7514,-1.7514,-1.7514,-1.7514,-1.7514,-1.7514,-1.7514,-1.7514,-1.7514,-1.7641,-1.7901,-1.7901,-1.8052,-1.8294,-1.8294,-1.8227,-1.8118,-1.793,-1.7805,-1.7708,-1.7321,-1.7173,-1.7197,-1.7015,-1.7044,-1.7197,-1.705,-1.679,-1.6436,-1.6205,-1.5963,-1.5779,-1.5661,-1.5601,-1.5601,-1.5601,-1.5601,-1.5601,-1.5601,-1.5601,-1.5601,-1.5601,-1.5205,-1.4629,-1.3874,-1.2847,-1.1641,-1.0135,-0.938,-0.8778,-0.8052,-0.7903,-0.7903,-0.7903,-0.8355,-0.8687,-0.8687,-0.9771,-1.0585,-1.0585,-1.1732,-1.2032,-1.0736,-1.0585,-1.0074,-0.8809,-0.8205,-0.7903,-0.7903,-0.7903,-0.7903,-0.7903,-0.7903,-0.7689,-0.7204,-0.7204,-0.6865,-0.6191,-0.6191,-0.6059,-0.5772,-0.5772,-0.5772,-0.9503,0.0,0.0,0.0,0.0,0.0,0.0,0.0,0.0,0.0,0.0,0.0,0.0,0.0,0.0,0.0,0.0,0.0,0.0,0.0,0.0,0.0,0.0,0.0,0.0,0.0,0.0,0.0,0.0,0.0,-1.7405,-1.7405,-1.7406,-1.7508,-1.7514,-1.7514,-1.7514,-1.7581,-1.775,-1.8022,-1.8088,-1.827,-1.8511,-1.8511,-1.8438,-1.8273,-1.8019,-1.7835,-1.7678,-1.7118,-1.6926,-1.6937,-1.6625,-1.6602,-1.6761,-1.6761,-1.6466,-1.6087,-1.5992,-1.5809,-1.5601,-1.5601,-1.5601,-1.5601,-1.5601,-1.5601,-1.5601,-1.5601,-1.5601,-1.5601,-1.5601,-1.5324,-1.4932,-1.4361,-1.3665,-1.2637,-1.074,-1.0044,-0.941,-0.8144,-0.7903,-0.7903,-0.7903,-0.7903,-0.7903,-0.7903,-0.8687,-0.9292,-0.9292,-1.0377,-1.0676,-0.941,-0.9593,-0.9292,-0.8022,-0.7903,-0.7903,-0.7903,-0.7903,-0.7903,-0.7903,-0.7903,-0.775,-0.7416,-0.7385,-0.7079,-0.6403,-0.6403,-0.6221,-0.5886,-0.5886,-0.5886,0.0,0.0,0.0,-0.9083,0.0,0.0,0.0,0.0,-0.8501,0.0,0.0,0.0,0.0,0.0,0.0,0.0,0.0,0.0,0.0,0.0,0.0,0.0,0.0,0.0,0.0,0.0,0.0,0.0,0.0,0.0,-1.7105,-1.7105,-1.7219,-1.7473,-1.7514,-1.7514,-1.7514,-1.7762,-1.8034,-1.8281,-1.8535,-1.8794,-1.908,-1.908,-1.8744,-1.8185,-1.8185,-1.7857,-1.7299,-1.7017,-1.6903,-1.6868,-1.6599,-1.6342,-1.6146,-1.6146,-1.6116,-1.6057,-1.572,-1.5601,-1.5601,-1.5601,-1.5601,-1.5601,-1.5601,-1.5601,-1.5601,-1.5601,-1.5601,-1.5601,-1.5601,-1.4689,-1.4058,-1.5264,-1.36,-1.1732,-1.1671,-1.068,-0.941,-0.8144,-0.7903,-0.7903,-0.7903,-0.7903,-0.7903,-0.7903,-0.793,-0.7964,-0.7964,-0.9079,-0.938,-0.8083,-0.9079,-0.9292,-0.8022,-0.7903,-0.7903,-0.7903,-0.7903,-0.7903,-0.7903,-0.7903,-0.775,-0.7416,-0.7385,-0.7079,-0.6403,-0.6403,-0.6221,-0.5886,-0.5886,-0.5886,0.0,0.0,-0.9204,-0.9026,0.0,0.0,0.0,0.0,0.0,0.0,0.0,0.0,0.0,0.0,0.0,0.0,0.0,0.0,0.0,0.0,0.0,0.0,0.0,0.0,0.0,0.0,0.0,0.0,0.0,0.0,0.0,-1.7092,-1.7213,-1.7502,-1.7514,-1.7514,-1.7514,-1.7774,-1.8016,-1.83,-1.8559,-1.885,-1.9072,-1.8854,-1.8652,-1.8436,-1.7951,-1.7649,-1.7474,-1.6983,-1.6694,-1.6546,-1.6276,-1.6005,-1.5809,-1.6028,-1.5963,-1.575,-1.5631,-1.5601,-1.5448,-1.4629,-1.4902,-1.5448,-1.46,-1.4932,-1.5601,-1.5601,-1.5601,-1.5601,-1.5601,-1.5269,-1.5086,-1.5507,-1.4267,-1.2787,-1.1882,-1.0706,-0.941,-0.8144,-0.7903,-0.7903,-0.7903,-0.7903,-0.7903,-0.7903,-0.7903,-0.7903,-0.7903,-0.8263,-0.8385,-0.793,-0.8294,-0.8355,-0.793,-0.7903,-0.7903,-0.7903,-0.7903,-0.7903,-0.7903,-0.7903,-0.7841,-0.7719,-0.7719,-0.7505,-0.7049,-0.6837,-0.6559,-0.6221,-0.6009,-0.5886,-1.2156,-1.1382,0.0,-1.0149,-0.9815,0.0,-0.872,0.0,0.0,0.0,0.0,0.0,0.0,0.0,0.0,0.0,0.0,0.0,0.0,-0.8398,0.0,0.0,0.0,0.0,0.0,0.0,0.0,0.0,0.0,0.0,0.0,0.0,-1.7117,-1.7502,-1.7514,-1.7514,-1.7514,-1.7871,-1.8143,-1.83,-1.8656,-1.8947,-1.9072,-1.8886,-1.8629,-1.8372,-1.7884,-1.7569,-1.7343,-1.6885,-1.6556,-1.6345,-1.6105,-1.5836,-1.5626,-1.5839,-1.5779,-1.5601,-1.5601,-1.5601,-1.5448,-1.4629,-1.4932,-1.5448,-1.4629,-1.4962,-1.5601,-1.5601,-1.5601,-1.5601,-1.5601,-1.5264,-1.5056,-1.5477,-1.4629,-1.3331,-1.2002,-1.1068,-0.9957,-0.8233,-0.7903,-0.7903,-0.7903,-0.7903,-0.7903,-0.7903,-0.7903,-0.7903,-0.7903,-0.7903,-0.7903,-0.7903,-0.7903,-0.7903,-0.7903,-0.7903,-0.7903,-0.7903,-0.7903,-0.7903,-0.7903,-0.7903,-0.7903,-0.7903,-0.7903,-0.775,-0.7385,-0.7174,-0.6837,-0.6403,-0.6191,-0.6009]},{"header":{"parameterUnit":"m.s-1","parameterCategory":1,"la1":30.6,"la2":29.2853,"lo1":-89.7004,"lo2":-87.6739,"dy":0.0162,"dx":0.0183,"nx":112,"ny":82,"refTime":"2024-03-18T06:00:00:Z","depth":0,"parameterNumber":3,"parameterNumberName":"V-component_of_WINDS"},"data":[0.0,0.0,0.0,0.0,0.0,0.0,0.0,0.0,0.0,0.0,0.0,0.0,0.0,0.0,0.0,0.0,0.0,0.0,0.0,0.0,0.0,0.0,0.0,0.0,0.0,0.0,0.0,0.0,0.0,0.0,0.0,0.0,0.0,0.0,0.0,0.0,0.0,0.0,0.0,0.0,0.0,0.0,0.0,0.0,0.0,0.0,0.0,0.0,0.0,0.0,0.0,0.0,0.0,0.0,0.0,0.0,0.0,0.0,0.0,0.0,0.0,0.0,0.0,0.0,0.0,0.0,0.0,0.0,0.0,0.0,0.0,0.0,0.0,0.0,0.0,0.0,0.0,0.0,0.0,0.0,0.0,0.0,0.0,0.0,0.0,0.0,0.0,0.0,0.0,0.0,0.0,3.0772,3.0675,3.0656,3.0772,3.1292,3.1311,3.0636,0.0,0.0,0.0,0.0,0.0,0.0,0.0,0.0,0.0,0.0,0.0,0.0,0.0,0.0,0.0,0.0,0.0,0.0,0.0,0.0,0.0,0.0,0.0,0.0,0.0,0.0,0.0,0.0,0.0,0.0,0.0,0.0,0.0,0.0,0.0,0.0,0.0,0.0,0.0,0.0,0.0,0.0,0.0,0.0,0.0,0.0,0.0,0.0,0.0,0.0,0.0,0.0,0.0,0.0,0.0,0.0,0.0,0.0,0.0,0.0,0.0,0.0,0.0,0.0,0.0,0.0,0.0,0.0,0.0,0.0,0.0,0.0,0.0,0.0,0.0,0.0,0.0,0.0,0.0,0.0,0.0,0.0,0.0,0.0,0.0,0.0,0.0,0.0,0.0,0.0,0.0,0.0,0.0,0.0,0.0,0.0,0.0,0.0,0.0,0.0,0.0,0.0,0.0,0.0,3.0868,3.1543,3.1001,3.0888,3.1562,3.1098,3.0733,3.0617,0.0,0.0,0.0,0.0,0.0,0.0,0.0,0.0,0.0,0.0,0.0,0.0,0.0,0.0,0.0,0.0,0.0,0.0,0.0,0.0,0.0,0.0,0.0,0.0,0.0,0.0,0.0,0.0,0.0,0.0,0.0,0.0,0.0,0.0,0.0,0.0,0.0,0.0,0.0,0.0,0.0,0.0,0.0,0.0,0.0,0.0,0.0,0.0,0.0,0.0,0.0,0.0,0.0,0.0,0.0,0.0,0.0,0.0,0.0,0.0,0.0,0.0,0.0,0.0,0.0,0.0,0.0,0.0,0.0,0.0,0.0,0.0,0.0,0.0,0.0,0.0,0.0,0.0,0.0,0.0,0.0,0.0,0.0,0.0,0.0,0.0,0.0,0.0,0.0,0.0,0.0,0.0,0.0,0.0,0.0,0.0,0.0,0.0,0.0,0.0,0.0,0.0,0.0,3.0591,3.0733,3.1117,3.083,3.0752,3.1117,3.081,3.0598,3.0598,3.0946,0.0,0.0,0.0,0.0,0.0,0.0,0.0,0.0,0.0,0.0,0.0,0.0,0.0,0.0,0.0,0.0,0.0,0.0,0.0,0.0,0.0,0.0,0.0,0.0,0.0,0.0,0.0,0.0,0.0,0.0,0.0,0.0,0.0,0.0,0.0,0.0,0.0,0.0,0.0,0.0,0.0,0.0,0.0,0.0,0.0,0.0,0.0,0.0,0.0,0.0,0.0,0.0,0.0,0.0,0.0,0.0,0.0,0.0,0.0,0.0,0.0,0.0,0.0,0.0,0.0,0.0,0.0,0.0,0.0,0.0,0.0,0.0,0.0,0.0,0.0,0.0,0.0,0.0,0.0,0.0,0.0,0.0,0.0,0.0,0.0,0.0,0.0,0.0,0.0,0.0,0.0,0.0,0.0,0.0,0.0,0.0,0.0,0.0,0.0,0.0,0.0,0.0,3.0598,3.0598,3.0598,3.0598,3.0598,3.0598,3.0598,3.0598,3.0598,3.0598,0.0,0.0,0.0,0.0,0.0,0.0,0.0,0.0,0.0,0.0,0.0,0.0,0.0,0.0,0.0,0.0,0.0,0.0,0.0,0.0,0.0,0.0,0.0,0.0,0.0,0.0,0.0,0.0,0.0,0.0,0.0,0.0,0.0,0.0,0.0,0.0,0.0,0.0,0.0,0.0,0.0,0.0,0.0,0.0,0.0,0.0,0.0,0.0,0.0,0.0,0.0,0.0,0.0,0.0,0.0,0.0,0.0,0.0,0.0,0.0,0.0,0.0,0.0,0.0,0.0,0.0,0.0,0.0,0.0,0.0,0.0,0.0,0.0,0.0,0.0,0.0,0.0,0.0,0.0,0.0,0.0,0.0,0.0,0.0,0.0,0.0,0.0,0.0,0.0,0.0,0.0,0.0,0.0,0.0,0.0,0.0,0.0,0.0,0.0,0.0,0.0,0.0,3.0598,3.0598,3.0598,3.0598,3.0598,3.0598,3.0598,3.0598,3.0598,3.0598,0.0,0.0,0.0,0.0,0.0,0.0,0.0,0.0,0.0,0.0,0.0,0.0,0.0,0.0,0.0,0.0,0.0,0.0,0.0,0.0,0.0,0.0,0.0,0.0,0.0,0.0,0.0,0.0,0.0,0.0,0.0,0.0,0.0,0.0,0.0,0.0,0.0,0.0,0.0,0.0,0.0,0.0,0.0,0.0,0.0,0.0,0.0,0.0,0.0,0.0,0.0,0.0,0.0,0.0,0.0,0.0,0.0,0.0,0.0,0.0,0.0,0.0,0.0,0.0,0.0,0.0,0.0,0.0,0.0,0.0,0.0,0.0,0.0,0.0,0.0,0.0,0.0,0.0,0.0,0.0,0.0,0.0,0.0,0.0,0.0,0.0,0.0,0.0,0.0,0.0,0.0,0.0,0.0,0.0,0.0,0.0,0.0,0.0,0.0,0.0,0.0,0.0,3.0598,3.0598,0.0,3.0598,3.0598,3.0598,3.0604,3.0608,3.06,0.0,0.0,0.0,0.0,0.0,0.0,0.0,0.0,0.0,0.0,0.0,0.0,0.0,0.0,0.0,0.0,0.0,0.0,0.0,0.0,0.0,0.0,0.0,0.0,0.0,0.0,0.0,0.0,0.0,0.0,0.0,0.0,0.0,0.0,0.0,0.0,0.0,0.0,0.0,0.0,0.0,0.0,0.0,0.0,0.0,0.0,0.0,0.0,0.0,0.0,0.0,0.0,0.0,0.0,0.0,0.0,0.0,0.0,0.0,0.0,0.0,0.0,0.0,0.0,0.0,0.0,0.0,0.0,0.0,0.0,0.0,0.0,0.0,0.0,0.0,0.0,0.0,0.0,0.0,0.0,0.0,0.0,0.0,0.0,0.0,0.0,0.0,0.0,0.0,0.0,0.0,0.0,0.0,0.0,0.0,0.0,0.0,0.0,0.0,0.0,0.0,0.0,3.0598,3.083,3.0982,0.0,3.0982,3.0992,3.1008,3.0763,3.0593,3.0601,0.0,0.0,0.0,0.0,0.0,0.0,0.0,0.0,0.0,0.0,0.0,0.0,0.0,0.0,0.0,0.0,0.0,0.0,0.0,0.0,0.0,0.0,0.0,0.0,0.0,0.0,0.0,0.0,0.0,0.0,0.0,0.0,0.0,0.0,0.0,0.0,0.0,0.0,0.0,0.0,0.0,0.0,0.0,0.0,0.0,0.0,0.0,0.0,0.0,0.0,0.0,0.0,0.0,0.0,0.0,0.0,0.0,0.0,0.0,0.0,0.0,0.0,0.0,0.0,0.0,0.0,0.0,0.0,0.0,0.0,0.0,0.0,0.0,0.0,0.0,0.0,0.0,0.0,0.0,0.0,0.0,0.0,0.0,0.0,0.0,0.0,0.0,0.0,0.0,0.0,0.0,0.0,0.0,0.0,0.0,0.0,0.0,0.0,0.0,0.0,0.0,0.0,3.0617,3.1311,3.1792,3.1814,3.1814,3.1835,3.1907,3.1112,3.0606,0.0,0.0,0.0,0.0,0.0,0.0,0.0,0.0,0.0,0.0,0.0,0.0,0.0,0.0,0.0,0.0,0.0,0.0,0.0,0.0,0.0,0.0,0.0,0.0,0.0,0.0,0.0,0.0,0.0,0.0,0.0,0.0,0.0,0.0,0.0,0.0,0.0,0.0,0.0,0.0,0.0,0.0,0.0,0.0,0.0,0.0,0.0,0.0,0.0,0.0,0.0,0.0,0.0,0.0,0.0,0.0,0.0,0.0,0.0,0.0,0.0,0.0,0.0,0.0,0.0,0.0,0.0,0.0,0.0,0.0,0.0,0.0,0.0,0.0,0.0,0.0,0.0,0.0,0.0,0.0,0.0,0.0,0.0,0.0,0.0,0.0,0.0,0.0,0.0,0.0,0.0,0.0,0.0,0.0,0.0,0.0,0.0,0.0,0.0,0.0,0.0,0.0,0.0,3.1369,3.1657,3.2041,3.2722,3.2785,3.2572,3.2016,3.1729,3.1324,3.0715,0.0,0.0,0.0,0.0,0.0,0.0,0.0,0.0,0.0,0.0,0.0,0.0,0.0,0.0,0.0,0.0,0.0,0.0,0.0,0.0,0.0,0.0,0.0,0.0,0.0,0.0,0.0,0.0,0.0,0.0,0.0,0.0,0.0,0.0,0.0,0.0,0.0,0.0,0.0,0.0,0.0,0.0,0.0,0.0,0.0,0.0,0.0,0.0,0.0,0.0,0.0,0.0,0.0,0.0,0.0,0.0,0.0,0.0,0.0,0.0,0.0,0.0,0.0,0.0,0.0,0.0,0.0,0.0,0.0,0.0,0.0,0.0,0.0,0.0,0.0,0.0,0.0,0.0,0.0,0.0,0.0,0.0,0.0,0.0,0.0,0.0,0.0,0.0,0.0,0.0,0.0,0.0,0.0,0.0,0.0,0.0,0.0,0.0,0.0,0.0,0.0,0.0,3.2256,3.2659,3.3091,3.3667,3.3727,3.3532,3.3086,3.2717,3.2154,3.1279,0.0,0.0,0.0,0.0,0.0,0.0,0.0,0.0,0.0,0.0,0.0,0.0,0.0,0.0,0.0,0.0,0.0,0.0,0.0,0.0,0.0,0.0,0.0,0.0,0.0,0.0,0.0,0.0,0.0,0.0,0.0,0.0,0.0,0.0,0.0,0.0,0.0,0.0,0.0,0.0,0.0,0.0,0.0,0.0,0.0,0.0,0.0,0.0,0.0,0.0,0.0,0.0,0.0,0.0,0.0,0.0,0.0,0.0,0.0,0.0,0.0,0.0,0.0,0.0,0.0,0.0,0.0,0.0,0.0,0.0,0.0,0.0,0.0,0.0,0.0,0.0,0.0,0.0,0.0,0.0,0.0,0.0,0.0,0.0,0.0,0.0,0.0,0.0,0.0,0.0,0.0,0.0,0.0,0.0,0.0,0.0,0.0,0.0,0.0,0.0,0.0,0.0,3.3216,3.4009,3.4521,3.4622,3.4622,3.4619,3.4599,3.3881,3.3044,3.2186,0.0,0.0,0.0,0.0,0.0,0.0,0.0,0.0,0.0,0.0,0.0,0.0,0.0,0.0,0.0,0.0,0.0,0.0,0.0,0.0,0.0,0.0,0.0,0.0,0.0,0.0,0.0,0.0,0.0,0.0,0.0,0.0,0.0,0.0,0.0,0.0,0.0,0.0,0.0,0.0,0.0,0.0,0.0,0.0,0.0,0.0,0.0,0.0,0.0,0.0,0.0,0.0,0.0,0.0,0.0,0.0,0.0,0.0,0.0,0.0,3.2856,0.0,0.0,0.0,0.0,0.0,0.0,0.0,0.0,0.0,0.0,0.0,0.0,0.0,0.0,0.0,0.0,0.0,0.0,0.0,0.0,0.0,0.0,0.0,0.0,0.0,0.0,0.0,0.0,0.0,0.0,0.0,0.0,0.0,0.0,0.0,0.0,0.0,0.0,0.0,0.0,0.0,3.4111,3.4378,3.4785,3.5516,3.5597,3.534,3.465,3.4439,3.3971,3.3155,0.0,0.0,0.0,0.0,0.0,0.0,0.0,0.0,0.0,0.0,0.0,0.0,0.0,0.0,0.0,0.0,0.0,0.0,0.0,0.0,0.0,0.0,0.0,0.0,0.0,0.0,0.0,0.0,0.0,0.0,0.0,0.0,0.0,0.0,0.0,0.0,0.0,0.0,0.0,0.0,0.0,0.0,0.0,0.0,0.0,0.0,0.0,0.0,0.0,0.0,0.0,0.0,0.0,0.0,0.0,0.0,0.0,0.0,0.0,0.0,0.0,3.3405,0.0,0.0,0.0,0.0,0.0,0.0,0.0,0.0,0.0,0.0,0.0,0.0,0.0,0.0,0.0,0.0,0.0,0.0,0.0,0.0,0.0,0.0,0.0,0.0,0.0,0.0,0.0,0.0,0.0,0.0,0.0,0.0,0.0,0.0,0.0,0.0,0.0,0.0,0.0,0.0,3.5067,3.5175,3.5361,3.5846,3.5906,3.5717,3.5265,3.5228,3.4877,3.402,3.3553,0.0,0.0,0.0,0.0,0.0,0.0,0.0,0.0,0.0,0.0,0.0,0.0,0.0,0.0,0.0,0.0,0.0,0.0,0.0,0.0,0.0,0.0,0.0,0.0,0.0,0.0,0.0,0.0,0.0,0.0,0.0,0.0,0.0,0.0,0.0,0.0,0.0,0.0,0.0,0.0,0.0,0.0,0.0,0.0,0.0,0.0,0.0,0.0,0.0,0.0,0.0,0.0,0.0,3.5313,3.5762,3.6451,3.6444,3.6444,3.6373,3.4924,3.412,3.3845,0.0,0.0,0.0,0.0,0.0,0.0,0.0,0.0,0.0,0.0,0.0,0.0,0.0,0.0,0.0,0.0,0.0,0.0,0.0,0.0,0.0,0.0,0.0,0.0,0.0,3.3833,3.3815,0.0,0.0,0.0,0.0,0.0,0.0,0.0,0.0,0.0,0.0,0.0,0.0,3.5804,3.5891,3.591,3.591,3.591,3.591,3.591,3.591,3.5598,3.4877,3.4682,3.4292,0.0,0.0,0.0,0.0,0.0,0.0,0.0,0.0,0.0,0.0,0.0,0.0,0.0,0.0,0.0,0.0,0.0,0.0,0.0,0.0,0.0,0.0,0.0,0.0,0.0,0.0,0.0,0.0,0.0,0.0,0.0,0.0,3.3396,3.3396,0.0,0.0,0.0,0.0,0.0,0.0,0.0,0.0,0.0,0.0,0.0,0.0,0.0,3.5658,3.5658,3.6401,3.6831,3.6968,3.7729,3.816,3.8258,3.8257,3.8257,3.8238,3.8003,0.0,3.5667,3.5655,0.0,0.0,0.0,0.0,0.0,0.0,0.0,0.0,0.0,0.0,0.0,0.0,0.0,0.0,0.0,0.0,0.0,0.0,0.0,0.0,0.0,0.0,3.557,3.5566,3.5566,3.5584,0.0,3.4395,3.3283,3.3211,3.3248,0.0,0.0,0.0,0.0,0.0,0.0,0.0,3.5885,3.5891,3.591,3.591,3.591,3.591,3.591,3.591,3.5851,3.5734,3.5013,3.4546,3.4448,3.3651,0.0,0.0,0.0,0.0,0.0,0.0,0.0,0.0,0.0,0.0,0.0,0.0,0.0,0.0,0.0,0.0,0.0,0.0,0.0,0.0,0.0,0.0,0.0,0.0,0.0,0.0,0.0,0.0,0.0,3.486,3.486,3.486,3.486,3.5016,0.0,0.0,0.0,0.0,0.0,0.0,0.0,0.0,0.0,3.7402,3.7362,3.7359,3.7357,3.8176,3.8373,3.7926,3.9292,3.9469,3.8554,3.9002,3.8963,3.8534,3.8534,3.8105,3.7363,3.6922,3.644,3.6007,0.0,0.0,0.0,0.0,3.5933,3.5934,3.5937,3.5937,0.0,0.0,0.0,0.0,0.0,0.0,0.0,0.0,0.0,0.0,0.0,0.0,0.0,3.6477,3.6224,3.6027,3.6503,3.564,3.4758,0.0,3.4769,3.4769,3.4753,0.0,0.0,0.0,0.0,0.0,3.5891,3.5901,3.591,3.591,3.591,3.591,3.591,3.591,3.591,3.591,3.5539,3.5325,3.5325,3.4526,3.4078,0.0,0.0,0.0,0.0,0.0,0.0,0.0,0.0,0.0,0.0,0.0,0.0,0.0,0.0,0.0,0.0,0.0,0.0,0.0,0.0,0.0,0.0,0.0,0.0,0.0,0.0,0.0,0.0,3.5994,3.5996,3.5996,3.6179,3.63,0.0,0.0,0.0,0.0,0.0,0.0,3.7871,3.8451,3.8873,3.9101,3.906,3.9042,3.9034,3.985,3.9954,3.9399,4.0917,4.0981,3.9805,4.0407,4.0348,3.9785,3.9785,3.9649,3.9341,3.8125,3.7222,3.6636,3.6636,3.6636,3.6637,3.6582,3.656,3.6579,3.6565,3.6576,3.6554,3.6549,0.0,3.6542,3.6537,0.0,0.0,0.0,0.0,3.6535,3.6531,3.6532,3.6682,3.7286,3.6989,3.6707,3.7336,3.6962,3.6424,0.0,3.5939,3.5898,3.59,0.0,0.0,0.0,0.0,3.5972,3.6206,3.6047,3.5986,3.6201,3.6025,3.591,3.591,3.591,3.591,3.591,3.591,3.591,3.591,3.5286,3.4935,3.4935,0.0,0.0,0.0,0.0,0.0,0.0,0.0,0.0,0.0,0.0,0.0,0.0,0.0,0.0,0.0,0.0,0.0,0.0,0.0,0.0,0.0,0.0,0.0,0.0,0.0,0.0,0.0,0.0,0.0,3.6004,3.668,0.0,0.0,0.0,0.0,3.8285,3.8324,3.8673,3.9448,3.9524,3.9911,4.0743,4.078,4.0779,4.0778,4.1642,4.2056,4.2017,4.2936,4.3327,4.3251,4.329,4.329,4.3251,4.3251,4.2781,4.1826,3.9438,3.8413,3.8374,3.8374,3.8374,3.8374,3.8373,3.8372,3.8372,3.837,3.837,3.8364,3.8298,3.8277,3.8274,3.8272,3.8266,0.0,0.0,3.827,3.8265,3.828,3.8279,3.8287,3.8328,3.8297,3.8304,3.8414,3.8356,3.7803,0.0,3.5898,3.5898,3.5896,0.0,3.5891,3.5891,3.5903,3.6201,3.7038,3.6404,3.622,3.7058,3.6395,3.591,3.591,3.591,3.591,3.591,3.591,3.591,3.591,3.5851,3.5832,3.5832,3.5791,0.0,0.0,0.0,0.0,0.0,0.0,0.0,0.0,0.0,0.0,0.0,0.0,0.0,0.0,0.0,0.0,0.0,0.0,0.0,0.0,0.0,0.0,0.0,0.0,0.0,0.0,0.0,0.0,3.7486,3.7804,0.0,0.0,3.9366,3.9448,3.9971,4.0531,4.0974,4.1265,4.2301,4.3013,4.3331,4.3845,4.4101,4.4048,4.4924,4.509,4.4604,4.5983,4.6094,4.5062,4.5623,4.5293,4.4263,4.4263,4.3778,4.2906,4.2025,4.102,4.0037,4.0037,4.0062,4.0106,4.0056,4.0072,4.0095,4.0055,3.9689,3.9121,3.8572,3.841,3.8406,3.8406,3.8406,3.8403,3.8395,3.8406,3.8403,3.8393,3.8406,3.8544,3.9099,3.8814,3.8565,3.9141,3.881,3.8216,3.7611,3.7505,3.7512,3.7517,3.7511,3.7518,3.7518,3.7519,3.7634,3.7993,3.7775,3.7686,3.8006,3.7761,3.7348,3.6783,3.6734,3.6493,3.5949,3.591,3.591,3.591,3.591,3.591,3.591,3.591,3.5894,0.0,0.0,0.0,0.0,0.0,0.0,0.0,0.0,0.0,0.0,0.0,0.0,0.0,0.0,0.0,0.0,0.0,0.0,0.0,0.0,0.0,0.0,0.0,0.0,0.0,0.0,3.8341,3.9148,3.9471,4.0075,4.1197,4.132,4.157,4.2112,4.2961,4.3578,4.3848,4.491,4.5631,4.5946,4.6464,4.6711,4.6674,4.7254,4.7261,4.676,4.7867,4.7819,4.6755,4.7336,4.7003,4.5958,4.5958,4.5628,4.5089,4.5089,4.4431,4.3314,4.2185,4.1774,4.1801,4.1753,4.1766,4.1792,4.1764,4.1383,4.0827,4.0286,4.0113,4.0113,4.0113,4.0113,4.0113,4.0113,4.0113,4.0113,4.0113,4.0113,4.0266,4.0847,4.0538,4.0286,4.0866,4.0539,4.0125,4.0118,3.9192,3.841,3.8398,3.8405,3.8406,3.8406,3.8398,3.8527,3.8867,3.8671,3.8606,3.8918,3.8683,3.8278,3.7693,3.7641,3.7264,3.6392,3.6344,3.6203,3.5915,3.5892,3.591,3.591,3.591,3.5894,3.5901,0.0,0.0,0.0,0.0,0.0,0.0,0.0,0.0,0.0,0.0,0.0,0.0,0.0,0.0,0.0,0.0,0.0,0.0,0.0,0.0,0.0,0.0,0.0,3.8486,3.9253,4.0115,4.0945,4.1738,4.2232,4.229,4.373,4.4694,4.4713,4.5494,4.6329,4.7099,4.7177,4.7563,4.8411,4.8469,4.8488,4.8488,4.8488,4.8488,4.8488,4.8488,4.8488,4.8488,4.8488,4.8469,4.843,4.843,4.843,4.8392,4.8392,4.8392,4.807,4.4783,4.3528,4.3512,4.3493,4.3473,4.3479,4.3452,4.3479,4.3525,4.3505,4.3505,4.3505,4.3508,4.3508,4.3508,4.3508,4.3508,4.3508,4.3508,4.3508,4.3508,4.3508,4.3508,4.3508,4.3508,4.3508,4.3508,4.3508,4.0822,3.8547,3.8529,3.8505,3.8489,3.8489,3.8486,0.0,3.9631,3.9062,3.8904,3.9742,3.9096,3.8564,3.8543,3.8533,3.816,3.7295,3.7231,3.685,3.6025,3.5955,3.5929,3.591,3.591,3.5896,3.5903,0.0,0.0,0.0,0.0,0.0,0.0,0.0,0.0,0.0,0.0,0.0,0.0,0.0,0.0,0.0,0.0,0.0,0.0,0.0,0.0,0.0,0.0,4.0859,4.0221,4.1429,4.2906,4.4289,4.4653,4.5286,4.6541,4.6514,4.667,4.7308,4.7579,4.7811,4.8024,4.8643,4.9107,4.9339,4.9916,5.0206,5.0206,5.0206,5.0206,5.0206,5.0206,5.0206,5.0206,5.0206,4.9896,4.9339,4.9339,4.8972,4.8392,4.8392,4.8392,4.826,4.6691,4.6115,4.608,4.5441,4.5208,4.5133,4.4538,4.435,4.4264,4.3624,4.3435,4.3441,4.3481,4.3508,4.3508,4.3508,4.3508,4.3508,4.3508,4.3508,4.3508,4.3508,4.3508,4.3508,4.3508,4.3508,4.3508,4.3508,4.2741,4.1893,4.1262,4.0636,4.0202,4.0202,4.0208,0.0,4.0606,4.0451,4.0424,4.0703,4.0523,4.0122,3.9494,3.9441,3.9064,3.8191,3.8145,3.8042,3.7803,3.7177,3.6545,3.591,3.591,3.5906,0.0,0.0,0.0,0.0,0.0,0.0,0.0,0.0,0.0,0.0,0.0,0.0,0.0,0.0,0.0,0.0,0.0,0.0,0.0,0.0,0.0,0.0,4.2045,4.3343,4.3901,4.4532,4.5431,4.6739,4.6886,4.7293,4.8295,4.8275,4.8392,4.8914,4.9262,4.9451,4.9451,4.9935,5.0206,5.0206,5.067,5.0898,5.0898,5.0898,5.0898,5.0898,5.0898,5.0898,5.0898,5.0898,5.0651,0.0,5.0206,4.9916,4.9451,4.9451,4.9451,0.0,0.0,0.0,0.0,0.0,4.6942,4.6871,4.6406,4.6277,4.6157,4.5283,4.5007,4.4963,4.4652,4.4549,4.4559,4.4559,4.4559,4.4559,4.4559,4.4559,4.4559,4.4559,4.4559,4.4559,4.4559,4.4559,4.4559,4.4559,4.4287,0.0,4.3377,4.2578,4.1993,4.1993,4.1993,4.1991,4.2036,4.2044,4.1926,4.1634,4.1621,4.1287,4.0418,4.034,0.0,0.0,0.0,3.8887,3.8525,3.8019,0.0,0.0,0.0,3.6999,3.6999,0.0,0.0,0.0,3.5958,3.557,0.0,0.0,0.0,0.0,0.0,0.0,0.0,0.0,0.0,0.0,0.0,0.0,0.0,0.0,0.0,0.0,4.3882,4.5854,4.8217,4.7966,4.7811,4.8585,4.8682,4.8682,4.8682,4.9378,4.9838,4.9838,5.0496,5.0898,5.0898,0.0,0.0,0.0,0.0,5.0898,5.0898,5.0898,5.0898,5.0898,5.0898,5.0898,5.0898,5.0898,5.0898,5.0898,5.0898,5.0898,5.0898,5.0898,5.0898,5.0743,4.9165,4.8488,4.8392,4.8392,4.8394,4.84,4.84,0.0,0.0,4.7582,4.7372,4.728,4.6512,4.628,4.626,4.6163,4.6147,4.611,4.6035,4.5997,4.5999,4.5999,4.5999,4.5999,4.5999,4.5999,4.5999,4.5999,4.5416,4.4948,4.4948,4.4132,4.3508,4.3508,4.3508,4.3503,4.3507,4.3493,4.3231,4.2511,0.0,0.0,4.1328,4.1253,4.0865,3.9994,3.9959,3.9553,3.8686,3.8644,3.8596,3.8503,3.85,3.85,3.85,3.85,3.85,3.8459,3.6858,3.6102,0.0,0.0,0.0,0.0,0.0,0.0,0.0,0.0,0.0,0.0,0.0,0.0,0.0,0.0,0.0,4.4782,4.6535,4.8082,4.9281,4.9858,5.0225,5.0399,5.0418,5.0418,5.0418,5.0573,5.067,5.067,5.0801,5.0898,5.0898,5.0898,0.0,5.0898,5.0898,5.0898,5.0898,5.0898,5.0898,5.0898,0.0,0.0,5.0898,5.0898,5.0898,5.0898,5.0898,5.0898,5.0898,5.0898,5.0898,5.0801,4.9838,4.903,4.8392,4.8392,4.8395,4.8403,4.8403,4.8406,4.8398,4.8213,4.8172,4.8163,4.8054,4.8028,0.0,4.7165,4.7008,4.6893,4.6177,4.6003,4.5999,4.5999,4.5999,4.5999,4.5999,4.5999,4.5999,4.5999,4.5863,4.5766,4.5766,4.4501,4.3508,4.3508,4.3508,4.3496,4.3498,4.3498,4.3465,4.3366,4.3359,4.3043,4.2213,4.2144,4.1789,4.0894,4.0844,4.0465,3.9587,3.9549,3.9225,3.8501,3.8507,3.85,3.85,3.85,3.85,3.8498,3.8135,3.7975,0.0,0.0,0.0,0.0,0.0,0.0,0.0,0.0,0.0,0.0,0.0,4.1664,4.2531,0.0,4.5599,4.6842,4.8149,4.9281,5.0131,5.059,5.0858,5.0894,5.0898,5.0898,5.0898,5.0901,5.0889,5.0889,5.0873,5.0841,5.0841,5.0841,5.0841,5.0841,5.0841,5.0841,5.0841,5.0841,5.0841,5.0841,5.0841,5.0873,5.0889,5.0889,5.0901,5.0898,5.0898,5.0898,5.0898,5.0898,5.0898,5.0859,5.0457,5.0032,4.9645,4.9645,4.9645,4.9645,4.9645,4.9645,4.9571,4.9184,4.9047,4.8988,4.8563,4.8464,4.8399,4.7976,4.7873,4.7808,4.7365,4.725,4.7156,4.6752,4.6646,4.6521,4.6096,4.5999,4.5999,4.5999,4.5999,4.5999,4.5999,4.5319,4.4753,4.4753,4.4753,4.4754,4.4805,4.4769,4.4617,4.4282,4.4249,4.3915,4.312,4.3049,4.2689,4.181,4.1748,4.1353,4.049,4.046,4.0252,3.9811,3.9803,3.9793,3.9804,3.9804,3.9804,3.9804,3.9804,3.9336,0.0,0.0,0.0,0.0,0.0,0.0,0.0,0.0,4.0739,4.1587,4.2969,4.4258,4.4951,4.6436,4.7778,4.8419,4.9265,5.0068,5.0709,5.0801,5.0823,5.087,5.0878,5.0878,5.0878,5.0888,5.0887,5.0887,5.0838,5.0801,5.0801,5.0801,5.0874,5.1048,5.1048,5.1048,5.1048,5.1048,5.0971,5.0801,5.0801,5.0838,5.0887,5.0887,5.0888,5.0878,5.0878,5.0886,5.0898,5.089,5.0894,5.0898,5.0898,5.0898,5.0898,5.0898,5.0898,5.0898,5.0898,5.0898,5.0782,5.0148,4.9935,4.9806,4.909,4.8917,4.8922,4.8786,4.8735,4.868,4.8525,4.8493,4.8344,4.7687,4.753,4.7337,4.6641,4.6349,4.6236,4.6241,4.6127,4.5994,4.5999,4.5999,4.5999,4.5999,4.5999,4.6013,4.6068,4.6034,4.578,4.5207,4.5135,4.4802,4.4004,4.3798,4.3392,4.2708,4.265,4.2334,4.1624,4.1602,4.1534,4.1359,4.1355,4.1268,4.1094,4.1094,4.117,4.1323,4.1323,4.0505,3.8454,3.8214,0.0,3.8216,3.938,4.0712,0.0,0.0,4.4253,4.5068,4.6003,4.6704,4.68,4.8144,4.9254,4.9346,5.0107,5.0709,5.0782,5.0801,5.0801,5.0814,5.0814,5.0814,5.0814,5.081,5.0806,5.0806,5.0801,5.0801,5.0801,5.0801,5.1144,5.1926,5.1945,5.1945,5.1945,5.1945,5.1564,5.0801,5.0801,5.0801,5.0806,5.0806,5.081,5.0814,5.0814,5.0837,5.0898,5.0901,5.0909,5.0898,5.0898,5.0898,5.0898,5.0898,5.0898,5.0898,5.0898,5.0898,5.0898,5.0801,5.0767,5.0751,5.0654,5.0639,5.0488,4.9776,4.9566,4.9398,4.8607,4.8457,4.8483,4.8387,4.837,4.8335,4.8238,4.7601,4.7087,4.7136,4.6524,4.6008,4.5997,4.5999,4.5999,4.5999,4.5999,4.6004,4.6017,4.6007,4.5986,4.5967,4.5975,4.563,4.4824,4.4112,4.3666,4.3568,4.3548,4.3509,4.341,4.3402,4.3045,4.2263,4.2251,4.1869,4.1094,4.1094,4.1475,4.2179,4.2179,4.1672,4.0397,0.0,0.0,0.0,4.2381,4.312,4.3966,4.5105,4.609,4.6422,4.7565,4.8494,4.8494,4.9871,5.1006,0.0,5.1254,5.1476,5.1443,5.1039,5.0735,5.0735,5.0735,5.0758,5.0793,5.0751,5.0733,5.0733,5.1187,5.1438,5.1438,5.192,5.2363,5.2724,5.2743,5.2743,5.2743,5.2743,5.2555,5.2189,5.1689,5.1457,5.1485,5.0964,5.0751,5.0801,5.0801,5.0819,5.0829,5.0831,5.0868,5.0905,5.0905,5.0901,5.0898,5.0898,5.0898,5.0898,5.0898,5.0898,5.0898,5.0898,5.0898,5.0898,5.0898,5.0898,5.0821,5.0496,5.0411,5.0306,4.9958,4.9894,4.9826,4.9319,4.9219,4.912,4.8616,4.8209,4.796,4.7995,4.7708,4.7445,4.7459,4.7076,4.6754,4.6751,4.6329,4.5999,4.5999,4.5999,4.6022,4.6091,4.6135,4.6015,4.5692,4.5348,4.4941,4.443,4.4409,4.419,4.3725,4.3701,4.352,4.3163,4.3158,4.2974,4.2612,4.2612,4.2784,4.3109,4.306,4.288,4.2173,0.0,0.0,4.4318,4.4805,4.5345,4.6213,4.7081,4.7756,4.7991,4.9001,4.9821,4.9821,5.0853,5.1779,5.1934,5.1799,5.1708,5.1875,5.1202,5.0707,5.0707,5.0707,5.0721,5.0772,5.0725,5.0793,5.1005,5.1563,5.2,5.2255,5.2851,5.3313,5.3549,5.3568,5.3568,5.3568,5.3568,5.3433,5.3197,5.2563,5.2275,5.2295,5.1429,5.0937,5.0775,5.0766,5.0775,5.0797,5.0784,5.081,5.0899,5.0899,5.0905,5.0898,5.0898,5.0898,5.0898,5.0898,5.0898,5.0898,5.0898,5.0898,5.0898,5.0898,5.0898,5.0898,5.0898,5.0898,5.0898,5.0898,5.0945,5.0812,5.0189,5.0076,4.9926,4.9299,4.8989,4.8838,4.8829,4.8638,4.8474,4.8506,4.8011,4.7632,4.7636,4.7084,4.6513,4.6057,4.5999,4.601,4.606,4.6134,4.6166,4.6166,4.6197,4.5939,4.529,4.5253,4.4999,4.4401,4.4412,4.4306,4.4065,4.4064,4.3942,4.3698,4.3698,4.3814,4.4025,4.3976,4.4088,0.0,0.0,4.4376,4.44,4.5673,4.7158,4.8026,4.8855,4.9669,5.0508,5.0661,5.0663,5.0663,5.0702,5.1,5.1774,5.1246,5.1015,5.1793,5.1202,5.0707,5.0707,5.0707,5.0693,0.0,5.0693,5.1015,5.1793,5.189,5.2274,5.3121,5.3197,5.3587,5.4434,5.4453,5.4453,5.4453,5.4453,5.4049,5.3197,5.3159,5.3159,5.3126,5.2255,5.1438,5.0696,5.0693,5.073,5.0797,5.0724,5.0779,5.0899,5.0899,5.0905,5.0898,5.0898,5.0898,5.0898,5.0898,5.0898,5.0898,5.0898,5.0898,5.0898,5.0898,5.0898,5.0898,5.0898,5.0898,5.0898,5.0898,5.0902,5.0902,5.0863,5.0863,5.0863,5.0825,5.021,4.966,4.9658,4.8988,4.8421,4.8493,4.848,4.8461,4.8461,4.8451,4.7841,4.621,4.5999,4.6002,4.6004,4.6054,4.6103,4.6103,4.6159,4.6184,4.6165,4.6168,4.6152,4.6133,4.6199,4.5812,4.4971,4.4951,4.4538,4.3708,4.3708,4.4093,4.4863,4.4863,4.531,0.0,0.0,4.7,4.7628,4.8192,4.8825,4.9696,5.01,5.0389,5.0663,5.0264,4.9846,4.9846,5.0313,5.0784,5.1048,5.1318,5.1582,5.1865,5.1202,5.0707,5.0707,5.0707,0.0,0.0,0.0,0.0,5.1885,5.2967,5.376,5.4049,5.4568,5.4991,5.5285,5.5304,5.5304,5.5304,5.5304,5.5145,5.4857,5.4318,5.376,5.3159,5.2294,5.1741,5.1472,5.0923,5.0707,5.0724,5.0706,5.0775,5.0899,5.0899,5.0905,5.0898,5.0898,5.0898,5.0898,5.0898,5.0898,5.0898,5.0898,5.0898,5.0898,5.0898,5.0898,5.0898,5.0898,5.0898,5.0898,5.0898,5.0898,5.0898,5.0898,5.0898,5.0898,5.0898,5.0689,5.05,5.0492,5.0264,5.0081,5.0144,4.9683,4.9128,4.8571,4.8506,4.8093,4.7001,4.6851,4.6638,4.6057,4.6013,4.6034,4.6034,4.6044,4.6084,4.6132,4.6133,4.6156,4.6198,4.6225,4.6093,4.5798,4.5797,4.5674,4.5436,4.5436,4.5553,4.5822,4.5834,4.5987,4.6844,4.7992,4.925,5.0144,5.0337,5.0433,5.0991,5.0919,5.0707,5.0707,5.0014,4.949,4.9803,5.0072,5.0438,5.1029,5.1318,5.1563,5.1865,5.1202,5.0707,5.0707,5.0957,0.0,0.0,0.0,0.0,5.2832,5.3876,5.4626,5.4914,5.542,5.5708,5.5708,5.5708,5.5708,5.5708,5.5708,5.5708,5.5689,5.5189,5.4472,5.3645,5.3082,5.2659,5.2313,5.1491,5.1126,5.1111,5.0827,5.0743,5.0834,5.0851,5.0884,5.0901,5.0894,5.0898,5.0898,5.0898,5.0898,5.0898,5.0898,5.0898,5.0898,5.0898,5.0898,5.0898,5.0898,5.0898,5.0898,5.0898,5.0898,5.0898,5.0898,5.0898,5.0898,5.0898,5.0898,5.0898,5.0898,5.0898,5.091,5.096,5.0495,4.9964,4.9465,4.9391,4.8994,4.7875,4.7756,4.7434,4.656,4.6463,4.6349,4.6038,4.5999,4.601,4.6052,4.6086,4.612,4.6159,4.6195,4.6193,4.6207,4.6191,4.6229,4.6258,4.6287,4.6301,4.6301,4.6294,4.6291,4.9029,5.013,5.0996,5.1717,5.1904,5.1885,5.1846,5.1241,5.0688,5.063,4.9976,4.9649,0.0,0.0,4.9913,5.1505,5.1202,5.1034,5.1793,5.1279,5.0822,0.0,0.0,0.0,0.0,0.0,0.0,5.4549,0.0,5.4895,5.567,5.5708,5.5708,5.5708,5.5708,5.5708,5.5708,5.5708,5.5708,5.5708,5.5708,5.5304,5.4549,5.4511,5.4049,5.3217,5.2332,5.1967,5.1909,5.1092,5.0779,5.0764,5.0799,5.0842,5.0904,5.0901,5.0898,5.0898,5.0898,5.0898,5.0898,5.0898,5.0898,5.0898,5.0898,5.0898,5.0898,5.0898,5.0898,5.0898,5.0898,5.0898,5.0898,5.0898,5.0898,5.0898,5.0898,5.0898,5.0898,5.0898,5.0898,5.0898,5.0898,5.0898,5.0914,5.0998,5.1005,5.041,4.8787,4.8615,4.8325,4.7448,4.7354,4.7026,4.6193,4.6096,4.6077,4.6077,4.6089,4.6095,4.6095,4.6154,4.6198,4.618,4.6186,4.6191,4.6191,4.6259,4.6284,4.6284,4.6302,4.6301,5.0072,5.1433,5.2452,5.2005,5.1904,5.1736,5.1144,5.0842,5.0515,4.988,4.9548,4.926,0.0,0.0,0.0,4.9971,5.0909,0.0,5.1865,5.2274,0.0,0.0,0.0,5.3121,5.378,5.4241,0.0,0.0,5.5401,5.5478,5.5689,5.5708,5.5708,5.5708,5.5708,5.5708,5.5708,5.5708,5.5708,5.5708,5.5708,5.5593,5.5381,5.4761,5.4376,5.4126,5.3255,5.2896,5.2878,5.2011,5.1693,5.1677,5.1043,5.0806,5.0823,5.088,5.0897,5.0901,5.0909,5.0898,5.0898,5.0898,5.0898,5.0898,5.0898,5.0898,5.0898,5.0898,5.0898,5.0898,5.0898,5.0898,5.0898,5.0898,5.0898,5.0898,5.0898,5.0898,5.0898,5.0898,5.0898,5.0898,5.0898,5.0898,5.0902,5.0917,5.0967,5.0636,4.9595,4.9475,4.9164,4.8287,4.8233,4.8172,4.7961,4.7337,4.6968,4.6968,4.6375,4.6022,4.6022,4.6046,4.607,4.6126,4.6123,4.6148,4.6196,4.6211,4.6229,4.6228,4.6272,4.6301,5.1938,5.3049,5.3645,5.3159,5.2755,5.2255,5.1414,5.0957,5.0553,5.0072,4.9668,0.0,0.0,0.0,0.0,0.0,0.0,0.0,5.1904,5.2659,5.3197,0.0,5.3549,0.0,5.4453,5.4818,5.5208,0.0,5.5708,5.5708,5.5708,5.5708,5.5708,5.5708,5.5708,5.5708,5.5708,5.5708,5.5708,5.5708,5.5708,5.5708,5.5689,5.5228,5.503,5.4972,0.0,5.3795,5.3768,5.2882,5.255,5.2497,5.1658,5.1325,5.1291,5.0973,5.0855,5.0859,5.0881,5.0893,5.0897,5.0894,5.0898,5.0898,5.0898,5.0898,5.0898,5.0898,5.0898,5.0898,5.0898,5.0898,5.0898,5.0898,5.0898,5.0898,5.0898,5.0898,5.0898,5.0898,5.0898,5.0898,5.0898,5.0898,5.0898,5.0898,5.0921,5.0793,5.035,5.0341,5.0048,4.9168,4.9108,4.8974,4.8638,4.8153,4.7881,4.7881,4.7045,4.656,4.656,4.6193,4.603,4.6065,4.6082,4.612,4.6154,4.6194,4.6205,4.6206,4.6248,4.6261,5.3876,5.4587,5.4607,5.4376,5.376,5.2947,5.1967,5.1202,5.0668,5.0553,0.0,4.9764,5.0418,0.0,4.9822,5.0572,0.0,5.1942,5.2058,5.2813,5.3409,5.353,5.4203,5.4664,5.4664,5.5285,5.5708,5.5708,5.5708,5.5708,5.5708,5.5708,5.5708,5.5708,5.5708,5.5708,5.5708,5.5708,5.5708,5.5708,5.5708,5.5708,5.5708,5.5708,5.5708,5.567,0.0,0.0,5.4587,5.3722,5.3371,5.328,5.2483,5.2156,5.2064,5.1252,5.0962,5.0951,5.0898,5.0895,5.0908,5.0905,5.0898,5.0898,5.0898,5.0898,5.0898,5.0898,5.0898,5.0898,5.0898,5.0898,5.0898,5.0898,5.0898,5.0898,5.0898,5.0898,5.0898,5.0898,5.0898,5.0898,5.0898,5.0898,5.0898,5.0898,5.0898,5.0898,5.0898,5.1005,5.0794,5.0048,4.9976,4.9682,4.8993,4.8824,4.8769,4.8769,4.7956,4.747,4.747,4.6638,4.6174,4.6174,4.6126,4.6086,4.6086,4.6151,4.6195,4.6196,4.6205,4.6191,5.4184,5.4991,5.5164,5.378,5.3313,5.2799,5.1265,5.0803,0.0,0.0,0.0,5.0303,4.9726,5.0091,0.0,5.0668,0.0,0.0,0.0,0.0,5.4511,0.0,0.0,0.0,0.0,0.0,0.0,0.0,0.0,5.5708,5.5708,5.5708,5.5708,5.5708,5.5708,5.5708,5.5708,5.5708,5.5708,5.5708,5.5708,5.5708,5.5708,5.5708,5.5708,5.5689,5.5555,0.0,5.5439,5.4607,5.426,5.4184,5.3328,5.2982,5.2891,5.2083,5.1794,5.1707,5.1043,5.0851,5.0908,5.0905,5.0898,5.0898,5.0898,5.0898,5.0898,5.0898,5.0898,5.0898,5.0898,5.0898,5.0898,5.0898,5.0898,5.0898,5.0898,5.0898,5.0898,5.0898,5.0898,5.0898,5.0898,5.0898,5.0898,5.0898,5.0898,5.0898,5.0898,5.0963,5.0961,5.0814,5.0838,5.082,5.0687,5.0018,4.9588,4.9588,4.8838,4.8366,4.8366,4.755,4.7062,4.7062,4.6386,4.6027,4.6027,4.6082,4.6118,4.612,4.6175,4.6203,5.4761,5.542,5.5299,5.3626,5.3197,5.276,5.1072,0.0,0.0,0.0,0.0,5.0572,5.0149,0.0,0.0,0.0,0.0,0.0,0.0,0.0,0.0,0.0,0.0,0.0,0.0,0.0,0.0,0.0,0.0,5.6665,5.5747,5.5708,5.5708,5.5708,5.5708,5.5708,5.5708,5.5708,5.5708,5.5708,5.5708,5.5708,5.5708,5.5708,5.5708,5.5708,5.5708,0.0,5.567,5.5285,5.5126,5.503,5.4203,5.3876,5.376,5.292,5.2622,5.2574,5.2223,5.1835,5.1477,5.1502,5.123,5.0898,5.0898,5.0898,5.0898,5.0898,5.0898,5.0898,5.0898,5.0898,5.0898,5.0898,5.0898,5.0898,5.0898,5.0898,5.0898,5.0898,5.0898,5.0898,5.0898,5.0898,5.0898,5.0898,5.0898,5.0898,5.0898,5.0937,5.096,5.1005,5.1023,5.106,5.1097,5.0726,5.0471,5.0474,4.9691,4.9243,4.9282,4.8444,4.7978,4.7978,4.757,4.7359,4.7359,4.7391,4.7392,4.7395,4.7478,4.7502,5.5088,5.5574,5.5299,5.3626,5.3197,5.276,5.1072,5.0707,0.0,0.0,5.0707,5.0707,5.0707,0.0,0.0,0.0,0.0,0.0,0.0,0.0,0.0,0.0,0.0,0.0,0.0,0.0,0.0,0.0,0.0,0.0,5.6055,5.5978,5.5882,5.5708,5.5708,5.5708,5.5708,5.5708,5.5708,5.5708,5.5708,5.5708,5.5708,5.5708,5.5708,5.5708,5.5708,0.0,0.0,5.5708,5.5708,5.5651,5.4991,5.4761,5.4645,5.3799,5.3491,5.3458,5.333,5.283,5.2256,5.2118,5.1541,5.0909,5.0898,5.0898,5.0898,5.0898,5.0898,5.0937,5.1134,5.1037,5.0898,5.0898,5.0898,5.0898,5.0898,5.0898,5.0898,5.0898,5.0898,5.0898,5.0898,5.0898,5.0898,5.0898,5.0898,5.0898,5.0898,5.0898,5.0914,5.0971,5.0975,5.1005,5.105,5.106,5.1081,5.1072,5.0445,5.0098,5.0148,4.9337,4.8874,4.8874,4.8696,4.8599,4.8599,4.8599,4.8599,4.8602,4.8645,4.8686,5.4568,5.5151,5.5299,5.3626,5.3197,5.276,5.1072,0.0,0.0,5.0707,5.0707,5.0707,5.0707,5.0707,0.0,0.0,0.0,0.0,0.0,0.0,0.0,0.0,0.0,0.0,0.0,0.0,0.0,0.0,0.0,0.0,5.6887,5.6882,5.6516,5.5728,5.5708,5.5708,5.5708,5.5708,5.5708,5.5708,5.5708,5.5708,5.5708,5.5708,5.5708,5.5708,5.5708,0.0,0.0,5.5708,5.5708,5.5689,5.5612,5.5593,5.5497,5.4684,5.4376,5.426,5.3477,5.3205,5.3056,5.2252,5.1511,5.0892,5.0909,5.0898,5.0898,5.0898,5.0898,5.1076,5.1877,5.1486,5.0898,5.0898,5.0898,5.0898,5.0898,5.0898,5.0898,5.0898,5.0898,5.0898,5.0898,5.0898,5.0898,5.0898,5.0898,5.0898,5.0898,5.0898,5.0902,5.0906,5.0906,5.0906,5.091,5.0967,5.1012,5.1016,5.0985,5.0982,5.0985,5.0219,4.9787,4.9787,4.901,4.8599,4.8599,4.8599,4.8599,4.8599,4.861,4.8645,5.4203,5.5093,5.5299,5.3626,5.2813,5.212,5.0957,0.0,0.0,5.0592,5.0707,5.0707,5.0707,5.0707,5.0707,0.0,0.0,0.0,0.0,0.0,0.0,0.0,0.0,0.0,0.0,0.0,0.0,0.0,0.0,0.0,5.706,5.6497,5.6055,5.5708,5.5708,5.5708,5.5708,5.5708,5.5708,5.5708,5.5708,5.5708,5.5708,5.5708,5.5708,5.5708,5.5708,0.0,0.0,5.5708,5.5708,5.5708,5.5708,5.5708,5.567,5.5343,5.5228,5.5164,5.4838,5.4411,5.3974,5.3614,5.2979,5.2259,5.1769,5.1655,5.1796,5.2318,5.2086,5.1873,5.2767,5.2724,5.2337,5.1815,5.1679,5.1544,5.1018,5.0898,5.0898,5.0898,5.0898,5.0898,5.0898,5.0898,5.0898,5.0898,5.0898,5.0898,5.0898,5.0898,5.0898,5.0898,5.0898,5.0898,5.0898,5.0917,5.096,5.1005,5.1037,5.1053,5.1095,5.0781,5.0641,5.0678,5.0348,5.0153,5.0153,5.0153,5.0153,5.0153,5.0153,5.0176,5.3029,5.4145,5.4626,5.3178,5.2178,5.1395,0.0,0.0,4.9649,5.0515,5.0707,5.0707,5.0707,5.0707,5.0707,0.0,0.0,0.0,0.0,0.0,0.0,0.0,0.0,0.0,0.0,0.0,0.0,0.0,0.0,0.0,0.0,5.6035,5.5708,5.5708,5.5708,5.5708,5.5708,5.5708,5.5708,5.5708,5.5708,5.5708,5.5708,5.5708,5.5708,5.5708,0.0,0.0,0.0,5.5708,5.5708,5.5708,5.5708,5.5708,5.5708,5.5708,5.5708,5.5708,5.5708,5.5324,5.4824,5.459,5.4288,5.3894,5.3059,5.2696,5.2688,5.3307,5.3238,5.3057,5.3405,5.3695,5.3656,5.2786,5.2573,5.236,5.1463,5.1289,5.1211,5.0956,5.0898,5.0898,5.0898,5.0898,5.0898,5.0898,5.0898,5.0898,5.0898,5.0898,5.0898,5.0898,5.0898,5.0898,5.0898,5.0898,5.0914,5.0967,5.0982,5.1011,5.1066,5.1085,5.1127,5.1168,5.1196,5.1199,5.1199,5.1199,5.1199,5.1199,5.1199,5.1199,5.0726,5.1952,5.3005,5.2135,5.1318,5.0707,0.0,0.0,4.9649,5.0515,5.0707,5.0707,5.0707,5.0707,5.0707,5.0707,5.0707,0.0,0.0,0.0,0.0,0.0,0.0,0.0,0.0,0.0,0.0,0.0,0.0,0.0,0.0,5.5708,5.5708,5.5708,5.5708,5.5708,5.5708,5.5708,5.5708,5.5708,5.5708,5.5708,5.5708,5.5708,5.5708,0.0,0.0,0.0,0.0,5.5708,5.5708,5.5708,5.5708,5.5708,5.5708,5.5708,5.5708,5.5708,5.5708,5.5689,5.5555,5.4766,5.5072,5.5618,5.4732,5.3971,5.3391,5.3411,5.4063,5.4581,5.3714,5.4136,5.4561,5.3695,5.3482,5.325,5.236,5.2186,5.1935,5.1076,5.0898,5.0898,5.0898,5.0898,5.0898,5.0898,5.0898,5.0898,5.0898,5.0898,5.0898,5.0898,5.0898,5.0898,5.0898,5.0898,5.0898,5.0902,5.0963,5.1009,5.1009,5.1059,5.1098,5.1098,5.1165,5.1199,5.1199,5.1199,5.1199,5.1199,5.1199,5.1199,4.9649,5.063,5.1438,5.1144,5.0438,4.9976,5.0553,0.0,4.9649,5.0515,5.0707,5.0707,5.0707,5.0707,5.0707,5.0707,5.0707,0.0,0.0,0.0,0.0,0.0,0.0,0.0,0.0,0.0,0.0,0.0,0.0,0.0,0.0,5.6266,5.6324,5.5728,5.5708,5.5708,5.5708,5.5708,5.5708,5.5708,5.5708,5.5708,5.5708,5.5708,0.0,0.0,0.0,0.0,0.0,5.5708,5.5708,5.5708,5.5708,5.5708,5.5708,5.5708,5.5708,5.5708,5.5708,5.5708,5.567,5.5401,5.5507,5.5677,5.5408,5.4805,5.423,5.4286,5.4926,5.5562,5.5288,5.5408,5.5408,5.4581,5.3923,5.327,5.238,5.1738,5.1231,5.0956,5.0898,5.0898,5.0898,5.0898,5.0898,5.0898,5.0898,5.0898,5.0898,5.0898,5.0898,5.0898,5.0898,5.0898,5.0898,5.0898,5.0898,5.0898,5.0914,5.0956,5.1005,5.1011,5.1055,5.1098,5.1114,5.113,5.113,5.1171,5.1199,5.1199,5.1199,5.1199,0.0,4.9067,4.9803,5.013,4.9548,0.0,0.0,0.0,4.9649,5.0515,5.0707,5.0707,5.0707,5.0707,5.0707,5.0707,5.0707,0.0,0.0,0.0,0.0,0.0,0.0,0.0,0.0,0.0,0.0,0.0,0.0,0.0,0.0,5.6209,5.6266,5.5728,5.5708,5.5708,5.5708,5.5708,5.5708,5.5708,5.5708,5.5708,5.5708,5.5708,0.0,0.0,0.0,0.0,0.0,5.5708,5.5708,5.5708,5.5708,5.5708,5.5708,5.5708,5.5708,5.5708,5.5708,5.5708,5.5708,5.5708,5.5708,5.5708,5.5708,5.54,5.507,5.5123,5.5556,5.6004,5.5992,5.5995,5.5872,5.5374,5.4832,5.4116,5.2941,5.226,5.1695,5.1033,5.0898,5.0898,5.0898,5.0898,5.0898,5.0898,5.0898,5.0898,5.0898,5.0898,5.0898,5.0898,5.0898,5.0898,5.0898,5.0898,5.0898,5.0898,5.0898,5.0914,5.096,5.0998,5.1016,5.1057,5.1095,5.1095,5.1095,5.115,5.1165,5.1165,5.1196,5.1199,0.0,4.7351,4.8144,4.9086,4.8702,4.8567,0.0,0.0,0.0,5.0534,5.0707,5.0707,5.0707,5.0707,5.0707,5.0707,5.0707,0.0,0.0,0.0,0.0,0.0,0.0,0.0,0.0,0.0,0.0,0.0,0.0,0.0,0.0,5.5708,5.5708,5.5708,5.5708,5.5708,5.5708,5.5708,5.5708,5.5708,5.5708,5.5708,5.5708,5.5708,0.0,0.0,0.0,0.0,0.0,5.5708,5.5708,5.5708,5.5708,5.5708,5.5708,5.5708,5.5708,5.5708,5.5708,5.5708,5.5708,5.5708,5.5708,5.5708,5.5708,5.5745,5.5816,5.5861,5.5948,5.5985,5.5994,5.6007,5.6003,5.6008,5.5941,5.5453,5.3923,5.3528,5.2978,5.1323,5.0999,5.0975,5.0917,5.0898,5.0898,5.0898,5.0898,5.0898,5.0898,5.0898,5.0898,5.0898,5.0898,5.0898,5.0898,5.0898,5.0898,5.0898,5.0898,5.0898,5.0898,5.096,5.0982,5.0982,5.1057,5.1094,5.1097,5.1095,5.1095,5.1095,5.1165,5.1196,4.584,0.0,4.6533,4.8029,4.8255,4.8567,0.0,0.0,0.0,0.0,0.0,0.0,0.0,5.0707,5.0707,5.0707,5.0707,0.0,0.0,0.0,0.0,0.0,0.0,0.0,0.0,0.0,0.0,0.0,0.0,0.0,0.0,5.5708,5.5708,5.5708,5.5708,5.5708,5.5708,5.5708,5.5708,5.5708,5.5708,5.5708,5.5708,5.5708,0.0,0.0,0.0,0.0,5.5708,5.5708,5.5708,5.5708,5.5708,5.5708,5.5708,5.5708,5.5708,5.5708,5.5708,5.5708,5.5708,5.5708,5.5708,5.5708,5.5708,5.5714,5.574,5.5792,5.5836,5.5866,5.5976,5.6004,5.6002,5.5999,5.5378,5.4728,5.4532,5.381,5.2935,5.2061,5.1896,5.1679,5.1018,5.0898,5.0898,5.0898,5.0898,5.0898,5.0898,5.0898,5.0898,5.0898,5.0898,5.0898,5.0898,5.0898,5.0898,5.0898,5.0898,5.0898,5.0898,5.091,5.0917,5.0917,5.0998,5.1053,5.1097,5.1107,5.1091,5.1095,5.1111,5.1127,4.5594,4.5594,4.5994,4.7682,4.8101,4.8567,5.0303,0.0,0.0,0.0,0.0,0.0,0.0,0.0,0.0,0.0,0.0,0.0,0.0,0.0,0.0,0.0,0.0,0.0,0.0,0.0,0.0,0.0,0.0,0.0,0.0,5.5708,5.5708,5.5708,5.5708,5.5708,5.5708,5.5708,5.5708,5.5708,5.5708,5.5708,5.5708,5.5708,5.5708,0.0,0.0,0.0,5.5708,5.5708,5.5708,5.5708,5.5708,5.5708,5.5708,5.5708,5.5708,5.5708,5.5708,5.5708,5.5708,5.5708,5.5708,5.5708,5.5708,5.5708,5.5714,5.5745,5.5771,5.5826,5.59,5.5943,5.5999,5.6007,5.5566,5.5075,5.485,5.4329,5.3666,5.294,5.2476,5.2186,5.2105,5.1424,5.1037,5.1447,5.1153,5.0898,5.0898,5.0898,5.0898,5.0898,5.0898,5.0898,5.0898,5.0898,5.0898,5.0898,5.0898,5.0898,5.0898,5.0898,5.0898,5.0898,5.0945,5.0967,5.1005,5.1046,5.1053,5.1057,5.1092,5.1098,4.5594,4.5706,4.6167,4.7721,4.8197,4.8721,5.0322,0.0,0.0,0.0,0.0,0.0,0.0,0.0,0.0,0.0,0.0,0.0,0.0,0.0,0.0,0.0,0.0,0.0,0.0,0.0,0.0,0.0,0.0,0.0,0.0,5.5657,5.5651,5.5703,5.5708,5.5708,5.5708,5.5708,5.5708,5.5708,5.5708,5.5708,5.5708,5.5708,5.5708,0.0,0.0,0.0,5.5708,5.5708,5.5708,5.5708,5.5708,5.5708,5.5708,5.5708,5.5708,5.5708,5.5708,5.5708,5.5708,5.5708,5.5708,5.5708,5.5708,5.5708,5.5708,5.5708,5.574,5.5782,5.5792,5.5876,5.5976,5.599,5.5965,5.5751,5.5114,5.4946,5.4682,5.3861,5.2999,5.2631,5.3366,5.2163,5.1385,5.2264,5.166,5.1095,5.1095,5.0979,5.0898,5.0898,5.0898,5.0898,5.0898,5.0898,5.0898,5.0898,5.0898,5.0898,5.0898,5.0898,5.0898,5.0898,5.0898,5.0898,5.0898,5.096,5.0978,5.0998,5.1056,5.1108,4.5594,4.6144,4.6928,4.787,4.8644,4.9452,0.0,0.0,0.0,0.0,0.0,0.0,0.0,0.0,0.0,0.0,0.0,0.0,0.0,0.0,0.0,0.0,0.0,0.0,0.0,0.0,0.0,0.0,0.0,0.0,0.0,5.5479,5.5461,5.5684,5.5708,5.5708,5.5708,5.5708,5.5708,5.5708,5.5708,5.5708,5.5708,5.5708,5.5708,0.0,0.0,5.5708,5.5708,5.5708,5.5708,5.5708,5.5708,5.5708,5.5708,5.5708,5.5708,5.5708,5.5708,5.5708,5.5708,5.5708,5.5708,5.5708,5.5708,5.5708,5.5708,5.5708,5.5714,5.573,5.5782,5.5826,5.5856,5.5976,5.5831,5.5693,5.579,5.5649,5.5306,5.4706,5.3904,5.3347,5.3482,5.267,5.2302,5.3173,5.2554,5.1993,5.1993,5.1366,5.0898,5.0898,5.0898,5.0898,5.0898,5.0898,5.0898,5.0898,5.0898,5.0898,5.0898,5.0898,5.0898,5.0898,5.0898,5.0898,5.0898,5.0906,5.091,5.0914,5.1034,5.1107,4.5951,4.6694,4.7532,4.8384,4.8888,4.9442,0.0,0.0,0.0,0.0,0.0,0.0,0.0,0.0,0.0,0.0,0.0,0.0,0.0,0.0,0.0,0.0,0.0,0.0,0.0,0.0,0.0,0.0,0.0,0.0,0.0,0.0,5.5358,5.5473,5.5479,5.5556,5.5703,5.5708,5.5708,5.5708,5.5708,5.5708,5.5708,5.5708,5.5708,5.5708,0.0,5.5708,5.5708,5.5708,5.5708,5.5708,5.5708,5.5708,5.5708,5.5708,5.5708,5.5708,5.5708,5.5708,5.5708,5.5708,5.5708,5.5708,5.5708,5.5708,5.5708,5.5708,5.5708,5.5714,5.574,5.5771,5.5812,5.5919,5.5885,5.5856,5.5981,5.5798,5.5523,5.5273,5.4403,5.3914,5.454,5.3166,5.2489,5.3988,5.2666,5.166,5.2148,5.1447,5.0898,5.0898,5.0898,5.0898,5.0898,5.0898,5.0898,5.0898,5.0898,5.0898,5.0898,5.0898,5.0898,5.0898,5.0898,5.0898,5.0898,5.0898,5.0898,5.0902,5.1001,5.106,4.623,4.7187,4.8145,4.8744,0.0,0.0,0.0,0.0,0.0,0.0,0.0,0.0,0.0,0.0,0.0,0.0,0.0,0.0,0.0,0.0,0.0,0.0,0.0,0.0,0.0,0.0,0.0,0.0,0.0,0.0,0.0,0.0,5.5111,5.5178,5.5178,5.5282,5.5497,5.5497,5.5554,5.5708,5.5708,5.5708,5.5708,5.5708,5.5708,5.5708,5.5708,5.5708,5.5708,5.5708,5.5708,5.5708,5.5708,5.5708,5.5708,5.5708,5.5708,5.5708,5.5708,5.5708,5.5708,5.5708,5.5708,5.5708,5.5708,5.5708,5.5708,5.5708,5.5708,5.5708,5.5708,5.574,5.5806,5.5885,5.5948,5.5975,5.5995,5.5837,5.5685,5.5685,5.48,5.4359,5.5421,5.3827,5.2993,5.4725,5.3179,5.1985,5.2438,5.1912,5.1347,5.0937,5.1076,5.1115,5.0917,5.0898,5.0898,5.0898,5.0898,5.0898,5.0898,5.0898,5.0898,5.0898,5.0898,5.0898,5.0898,5.0898,5.0898,5.0902,5.0967,5.1046,4.6093,4.7437,4.8857,4.8605,4.9327,0.0,0.0,0.0,0.0,0.0,0.0,0.0,0.0,0.0,0.0,0.0,0.0,0.0,0.0,0.0,0.0,0.0,0.0,0.0,0.0,0.0,0.0,0.0,0.0,0.0,0.0,0.0,0.0,5.4829,5.4836,5.4843,5.4866,5.4866,5.5152,5.5708,5.5708,5.5708,5.5708,5.5708,5.5708,5.5708,5.5708,5.5708,5.5708,5.5708,5.5708,5.5708,5.5708,5.5708,5.5708,5.5708,5.5708,5.5708,5.5708,5.5708,5.5708,5.5708,5.5708,5.5708,5.5708,5.5708,5.5708,5.5708,5.5708,5.5708,5.5708,5.5689,5.574,5.5875,5.59,5.5909,5.599,5.598,5.5971,5.5971,5.5094,5.4624,5.5453,5.4838,5.4516,5.5416,5.4968,5.4252,5.3502,5.3347,5.2685,5.1076,5.1621,5.1776,5.0979,5.0898,5.0898,5.0898,5.0898,5.0898,5.0898,5.0898,5.0898,5.0898,5.0898,5.0898,5.0898,5.0898,5.0898,5.0902,5.0967,5.1046,4.7308,4.8026,4.8543,4.8951,4.9386,0.0,0.0,0.0,0.0,0.0,0.0,0.0,0.0,0.0,0.0,0.0,0.0,0.0,0.0,0.0,0.0,0.0,0.0,0.0,0.0,0.0,0.0,0.0,0.0,0.0,0.0,0.0,0.0,5.4487,5.4487,5.4591,5.4799,5.4799,5.4897,5.5145,5.5145,5.5145,5.5145,5.5145,5.5244,5.5449,5.5449,5.5556,5.5708,5.5708,5.5708,5.5708,5.5708,5.5708,5.5708,5.5708,5.5708,5.5708,5.5708,5.5708,5.5708,5.5708,5.5708,5.5708,5.5708,5.5708,5.5708,5.5708,5.5708,5.5708,5.5708,5.5708,5.5735,5.5875,5.59,5.5929,5.5986,5.5875,5.575,5.575,5.5153,5.4797,5.5279,5.4646,5.4425,5.5451,5.4669,5.4078,5.4271,5.3846,5.3037,5.1834,5.1525,5.125,5.0937,5.0898,5.0898,5.0898,5.0898,5.0898,5.0898,5.0898,5.0898,5.0898,5.0898,5.0898,5.0898,5.0898,5.0898,5.0902,5.0967,5.1046,4.7509,4.8016,4.822,0.0,0.0,0.0,0.0,0.0,0.0,0.0,0.0,0.0,0.0,0.0,0.0,0.0,0.0,0.0,0.0,0.0,0.0,0.0,0.0,0.0,0.0,0.0,0.0,0.0,0.0,0.0,0.0,0.0,0.0,0.0,5.4133,5.4255,5.4479,5.4487,5.4487,5.4487,5.4487,5.4599,5.4799,5.4799,5.4924,5.5144,5.5243,5.5401,5.5585,5.5676,5.5708,5.5708,5.5708,5.5708,5.5708,5.5708,5.5708,5.5708,5.5708,5.5708,5.5708,5.5708,5.5708,5.5708,5.5708,5.5708,5.5708,5.5708,5.5635,5.5579,5.5579,5.5646,5.5756,5.588,5.5909,5.5947,5.599,5.5865,5.573,5.573,5.5367,5.5087,5.518,5.4709,5.4543,5.5247,5.4662,5.4301,5.4629,5.445,5.3865,5.2728,5.1834,5.1192,5.0917,5.0898,5.0898,5.0898,5.0898,5.0898,5.0898,5.0898,5.0898,5.0898,5.0898,5.0898,5.0898,5.0898,5.0906,5.0921,5.0975,5.1034,4.6376,4.7311,4.8036,0.0,0.0,0.0,0.0,0.0,0.0,0.0,0.0,0.0,0.0,0.0,0.0,0.0,0.0,0.0,0.0,0.0,0.0,0.0,0.0,0.0,0.0,0.0,0.0,0.0,0.0,0.0,0.0,0.0,0.0,0.0,5.3803,5.3803,5.3803,5.3803,5.3803,5.3803,5.3803,5.4161,5.4791,5.4791,5.4791,5.4814,5.5144,5.5295,5.5314,5.559,5.5703,5.5708,5.5708,5.5703,5.5703,5.5708,5.5703,5.5703,5.5708,5.5708,5.5708,5.5708,5.5708,5.5708,5.5708,5.5708,5.5708,5.5708,5.5522,5.5301,5.5301,5.5556,5.5802,5.5885,5.5957,5.6008,5.5999,5.6008,5.6008,5.6008,5.5774,5.5517,5.525,5.5199,5.5101,5.4832,5.5269,5.5318,5.4511,5.533,5.535,5.3695,5.2728,5.1854,5.0999,5.0898,5.0898,5.0898,5.0898,5.0898,5.0898,5.0898,5.0898,5.0898,5.0898,5.0898,5.0898,5.0898,5.0945,5.1009,5.1009,5.1048,4.8271,4.86,0.0,0.0,0.0,0.0,0.0,0.0,0.0,0.0,0.0,0.0,0.0,0.0,0.0,0.0,0.0,0.0,0.0,0.0,0.0,0.0,0.0,0.0,0.0,0.0,0.0,0.0,0.0,0.0,0.0,0.0,0.0,0.0,5.3803,5.3803,5.3803,5.3803,5.3803,5.3803,5.3803,5.3898,5.4098,5.4098,5.4229,5.4455,5.456,5.4739,5.4966,5.5282,5.5539,5.5708,5.5708,5.5585,5.5437,5.5629,5.5585,5.5443,5.5629,5.5708,5.5708,5.5708,5.5708,5.5708,5.5708,5.5708,5.5708,5.5708,5.564,5.5545,5.5345,5.5363,5.5476,5.5533,5.5742,5.5943,5.599,5.6008,5.6008,5.6008,5.5774,5.5566,5.55,5.5323,5.5173,5.5081,5.539,5.5588,5.5523,5.532,5.4967,5.4465,5.3095,5.2109,5.1834,5.125,5.0898,5.0898,5.0898,5.0898,5.0898,5.0898,5.0898,5.0898,5.0898,5.0898,5.0898,5.0952,5.0975,5.1009,5.1042,5.1079,4.8058,0.0,0.0,0.0,0.0,0.0,0.0,0.0,0.0,0.0,0.0,0.0,0.0,0.0,0.0,0.0,0.0,0.0,0.0,0.0,0.0,0.0,0.0,0.0,0.0,0.0,0.0,0.0,0.0,0.0,0.0,0.0,0.0,0.0,5.3803,5.3803,5.3803,5.3803,5.3803,5.3803,5.3803,5.3803,5.3803,5.3803,5.3898,5.4116,5.4246,5.4487,5.4814,5.5028,5.5204,5.5363,5.5491,5.5437,5.532,5.5473,5.5516,5.5461,5.5514,5.5613,5.5708,5.5708,5.5708,5.5708,5.5708,5.5708,5.5708,5.5708,5.5624,5.5497,5.5339,5.5198,5.5127,5.5224,5.5429,5.5602,5.5674,5.576,5.5837,5.5837,5.5803,5.573,5.5623,5.5472,5.5281,5.508,5.5262,5.5539,5.5813,5.5519,5.5142,5.4832,5.3865,5.3095,5.2747,5.1912,5.1428,5.1428,5.1095,5.0898,5.0898,5.0898,5.0898,5.0898,5.0898,5.0898,5.0898,5.0967,5.1012,5.105,5.1072,5.1105,4.6717,0.0,0.0,0.0,0.0,0.0,0.0,0.0,0.0,0.0,0.0,0.0,0.0,0.0,0.0,0.0,0.0,0.0,0.0,0.0,0.0,0.0,0.0,0.0,0.0,0.0,0.0,0.0,0.0,0.0,0.0,0.0,0.0,5.3803,5.3803,5.3803,5.3803,5.3803,5.3803,0.0,5.3803,5.3803,5.3803,5.3803,5.3803,5.3822,5.4125,5.4438,5.4754,5.4754,5.4769,5.4829,5.5138,5.5243,5.523,5.5282,5.5419,5.5549,5.5364,5.5455,5.5657,5.5657,5.5673,5.5708,5.5708,5.5708,5.5708,5.5708,5.5514,5.5333,5.5307,5.5064,5.4873,5.4936,5.5053,5.5141,5.5218,5.5455,5.5639,5.5639,5.5832,5.5916,5.567,5.5623,5.5431,5.4912,5.5047,5.5287,5.5528,5.5803,5.5677,5.4942,5.4766,5.4368,5.3579,5.2631,5.207,5.207,5.1347,5.0898,5.0898,5.0898,5.0898,5.0898,5.0898,5.0902,5.0906,5.0971,5.105,5.1104,5.1105,5.1136,0.0,4.8519,0.0,0.0,0.0,0.0,0.0,0.0,0.0,0.0,0.0,0.0,0.0,0.0,0.0,0.0,0.0,0.0,0.0,0.0,0.0,0.0,0.0,0.0,0.0,0.0,0.0,0.0,0.0,0.0,0.0,0.0,0.0,5.3803,5.3803,5.3803,5.3803,5.3803,5.3803,0.0,5.3803,5.3803,5.3803,5.3803,5.3803,5.3794,5.3879,5.4098,5.4405,5.4405,5.4568,5.4806,5.488,5.4754,5.4591,5.5111,5.5009,5.4674,5.5144,5.5339,5.5382,5.5382,5.5539,5.5708,5.5708,5.5708,5.5708,5.5708,5.5651,5.5573,5.5351,5.5244,5.5107,5.4769,5.5019,5.5373,5.5489,5.573,5.5912,5.5912,5.5962,5.5975,5.5916,5.574,5.5494,5.5154,5.516,5.5218,5.5274,5.5522,5.5622,5.5449,5.4436,5.3695,5.3521,5.2066,5.1173,5.1173,5.0999,5.0898,5.0898,5.0898,5.0898,5.0898,5.0898,5.0937,5.0975,5.105,5.1088,5.1105,5.1156,5.1193,0.0,0.0,0.0,0.0,0.0,0.0,0.0,0.0,0.0,0.0,0.0,0.0,0.0,0.0,0.0,0.0,0.0,0.0,0.0,0.0,0.0,0.0,0.0,0.0,0.0,0.0,0.0,0.0,0.0,0.0,0.0,5.3803,5.3803,5.3803,5.3803,5.3803,5.3803,5.3803,5.3803,5.3803,5.3803,5.3803,5.3803,5.3803,5.3803,5.3803,5.3803,5.3907,5.4063,5.4063,5.4159,5.4349,5.4495,5.4455,5.4338,5.4682,5.4689,5.4568,5.4761,5.4931,5.509,5.5256,5.5395,5.552,5.5657,5.5708,5.5708,5.5708,5.5724,5.5724,5.5579,5.5441,5.5269,5.4914,5.495,5.506,5.5033,5.5349,5.5623,5.5623,5.5823,5.6008,5.6008,5.5789,5.5544,5.5406,5.5383,5.5341,5.5218,5.5424,5.5607,5.5607,5.4593,5.3983,5.4112,5.2511,5.1525,5.1525,5.1134,5.0898,5.0898,5.0898,5.0898,5.0898,5.0921,5.0963,5.1009,5.1062,5.1098,5.1098,5.1168,5.1199,0.0,0.0,0.0,0.0,0.0,0.0,0.0,0.0,0.0,0.0,0.0,0.0,0.0,0.0,0.0,0.0,0.0,0.0,0.0,0.0,0.0,0.0,0.0,0.0,0.0,0.0,0.0,0.0,0.0,0.0,5.3803,5.3803,5.3803,5.3803,5.3803,5.3803,5.3803,5.3803,5.3803,5.3803,5.3803,5.3803,5.3803,5.3803,5.3803,5.3803,5.3803,5.3803,5.3803,5.3803,5.3803,5.3841,5.4107,5.4212,5.422,5.4281,5.4438,5.4599,5.4372,5.4479,5.4761,5.503,5.5164,5.5269,5.5485,5.5596,5.5629,5.564,5.5705,5.5797,5.5802,5.5665,5.5451,5.5231,5.5012,5.4773,5.4519,5.4854,5.5199,5.5199,5.5602,5.5921,5.5921,5.5794,5.5649,5.5612,5.5607,5.5506,5.5231,5.5424,5.5607,5.5607,5.4932,5.4502,5.4568,5.3115,5.2148,5.1993,5.1308,5.0898,5.0898,5.0898,5.0898,5.0898,5.0963,5.1009,5.1016,5.1066,5.1101,5.1124,5.1171,5.1199,0.0,0.0,0.0,0.0,0.0,0.0,0.0,0.0,0.0,0.0,0.0,0.0,0.0,0.0,0.0,0.0,0.0,0.0,0.0,0.0,0.0,0.0,0.0,0.0,0.0,0.0,0.0,0.0,0.0,0.0,5.3803,5.3803,5.3803,5.3803,5.3803,5.3803,5.3803,5.3803,5.3803,5.3803,5.3803,5.3803,5.3803,5.3803,5.3803,5.3803,5.3803,5.3803,5.3803,5.3803,5.3803,5.3794,5.3851,5.387,5.3889,5.4186,5.4133,5.3972,5.4212,5.434,5.4364,5.4413,5.4639,5.4873,5.4916,5.5112,5.5345,5.535,5.5569,5.5802,5.588,5.5909,5.5856,5.5582,5.551,5.5355,5.4839,5.4985,5.5199,5.5199,5.5455,5.5654,5.5654,5.5818,5.5875,5.5639,5.5607,5.5506,5.5231,5.5424,5.5607,5.5607,5.5099,5.4459,5.373,5.2767,5.1877,5.1115,5.0956,5.0898,5.0898,5.0898,5.0898,5.0898,5.0963,5.1023,5.109,5.1095,5.113,5.1193,5.1199,5.1199,0.0,0.0,0.0,0.0,0.0,0.0,0.0,0.0,0.0,0.0,0.0,0.0,0.0,0.0,0.0,0.0,0.0,0.0,0.0,0.0,0.0,0.0,0.0,0.0,0.0,0.0,0.0,0.0,0.0,5.3803,5.3803,5.3803,5.3803,5.3803,5.3803,5.3803,5.3803,5.3803,5.3803,5.3803,5.3803,5.3803,5.3803,5.3803,5.3803,5.3803,5.3803,5.3803,5.3803,5.3803,5.3803,5.3803,5.3803,5.3803,5.3813,5.3972,5.3926,5.3813,5.3972,5.4017,5.4044,5.4238,5.4397,5.4568,5.478,5.5059,5.5319,5.5381,5.5643,5.5919,5.5957,5.598,5.5927,5.5661,5.561,5.5494,5.5114,5.5127,5.5199,5.5199,5.5293,5.5412,5.5566,5.571,5.5798,5.5823,5.5823,5.573,5.5466,5.5528,5.5607,5.5607,5.4983,5.4486,5.4244,5.2979,5.2032,5.1641,5.1173,5.0898,5.0898,5.0898,5.0914,5.0956,5.1016,5.1064,5.1097,5.1134,5.1168,5.1199,5.1199,5.1199,0.0,0.0,0.0,0.0,0.0,0.0,0.0,0.0,0.0,0.0,0.0,0.0,0.0,0.0,0.0,0.0,0.0,0.0,0.0,0.0,0.0,0.0,0.0,0.0,0.0,0.0,0.0,0.0,0.0,5.3803,5.3803,5.3803,5.3803,5.3803,5.3803,5.3803,5.3803,5.3803,5.3803,5.3803,5.3803,5.3803,5.3803,5.3803,5.3803,5.3803,5.3803,5.3803,5.3803,5.3803,5.3803,5.3803,5.3803,5.3803,5.3803,5.3803,5.3803,5.3803,5.3803,5.3803,5.3841,5.4098,5.4168,5.4238,5.4576,5.4864,5.5095,5.5244,5.5596,5.5905,5.5895,5.5946,5.5953,5.575,5.569,5.5602,5.518,5.5107,5.5087,5.5012,5.506,5.5154,5.5353,5.5511,5.5665,5.5875,5.5958,5.594,5.573,5.569,5.569,5.569,5.5151,5.4791,5.48,5.3618,5.2767,5.2535,5.1718,5.1231,5.1231,5.1018,5.0921,5.1005,5.106,5.1104,5.1095,5.1172,5.1199,5.1199,5.1199,5.1199,0.0,0.0,0.0,0.0,0.0,0.0,0.0,0.0,0.0,0.0,0.0,0.0,0.0,0.0,0.0,0.0,0.0,0.0,0.0,0.0,0.0,0.0,0.0,0.0,0.0,0.0,0.0,0.0,0.0,5.3803,5.3803,5.3803,5.3803,5.3803,5.3803,5.3803,5.3803,5.3803,5.3803,5.3803,5.3803,5.3803,5.3803,5.3803,5.3803,5.3803,5.3803,5.3803,5.3803,5.3803,5.3803,5.3803,5.3803,5.3803,5.3803,5.3803,5.3803,5.3803,5.3803,5.3803,5.3794,5.3813,5.3841,5.3841,5.3991,5.4239,5.4501,5.4693,5.5165,5.5629,5.5626,5.5813,5.6008,5.5975,5.5975,5.5779,5.4997,5.4821,5.4758,5.4489,5.4653,5.4829,5.4843,5.5256,5.5593,5.5623,5.5832,5.5984,5.5975,5.5975,5.5975,5.5975,5.5937,5.5612,5.4851,5.4716,5.431,5.3482,5.2612,5.2128,5.2128,5.1347,5.0921,5.1005,5.106,5.1098,5.1095,5.1165,5.1199,5.1199,5.1199,5.1199,0.0,0.0,0.0,0.0,0.0,0.0,0.0,0.0,0.0,0.0,0.0,0.0,0.0,0.0,0.0,0.0,0.0,0.0,0.0,0.0,0.0,0.0,0.0,0.0,0.0,0.0,0.0,0.0,0.0,0.0,5.3803,5.3803,5.3803,5.3803,5.3803,5.3803,5.3803,5.3803,5.3803,5.3803,5.3803,5.3803,5.3803,5.3803,5.3803,5.3803,5.3803,5.3803,5.3803,5.3803,5.3803,5.3803,5.3803,5.3803,5.3803,5.3803,5.3803,5.3803,5.3803,5.3803,5.3804,5.3907,5.3935,5.3963,5.4138,5.4378,5.4623,5.4731,5.5179,5.5599,5.5602,5.5803,5.6008,5.6008,5.6008,5.5879,5.542,5.504,5.4719,5.4458,5.4472,5.4608,5.4761,5.4969,5.5134,5.5311,5.5566,5.5745,5.5745,5.5893,5.6008,5.6008,5.6008,5.5872,5.5582,5.5103,5.4677,5.4349,5.2999,5.2206,5.2206,5.1366,5.0952,5.106,5.109,5.1098,5.1098,5.1168,5.1199,5.1199,5.1199,5.1199,0.0,0.0,0.0,0.0,0.0,0.0,0.0,0.0,0.0,0.0,0.0,0.0,0.0,0.0,0.0,0.0,0.0,0.0,0.0,0.0,0.0,0.0,0.0,0.0,0.0,0.0,0.0,0.0,0.0,0.0,5.3803,5.3803,5.3803,5.3803,5.3803,5.3803,5.3803,5.3803,5.3803,5.3803,5.3803,5.3803,5.3803,5.3803,5.3803,5.3803,5.3803,5.3803,5.3803,5.3803,5.3803,5.3803,5.3803,5.3803,5.3803,5.3803,5.3803,5.3803,5.3803,5.3803,5.3822,5.3954,5.401,5.4047,5.4228,5.4424,5.4573,5.4653,5.4997,5.5341,5.543,5.5735,5.6008,5.6008,5.6008,5.594,5.5654,5.5243,5.4847,5.4592,5.4455,5.4466,5.4637,5.475,5.4854,5.504,5.5365,5.5607,5.5607,5.5832,5.6008,5.6008,5.6008,5.6008,5.6008,5.5258,5.4793,5.4793,5.3444,5.2515,5.2206,5.1641,5.125,5.1097,5.1097,5.1105,5.1133,5.1171,5.1199,5.1199,5.1199,5.1199,0.0,0.0,0.0,0.0,0.0,0.0,0.0,0.0,0.0,0.0,0.0,0.0,0.0,0.0,0.0,0.0,0.0,0.0,0.0,0.0,0.0,0.0,0.0,0.0,0.0,0.0,0.0,0.0,0.0,5.3803,5.3803,5.3803,5.3803,5.3803,5.3803,5.3803,5.3803,5.3803,5.3803,5.3803,5.3803,5.3803,5.3803,5.3803,5.3803,5.3803,5.3803,5.3803,5.3803,5.3803,5.3803,5.3803,5.3803,5.3803,5.3803,5.3803,5.3803,5.3803,5.3803,5.3794,5.3832,5.3963,5.4019,5.4056,5.4236,5.4308,5.4326,5.4383,5.4581,5.4854,5.5134,5.5607,5.598,5.6008,5.6008,5.594,5.5665,5.5395,5.5121,5.4847,5.46,5.4399,5.439,5.4613,5.4784,5.4784,5.525,5.5585,5.5585,5.5818,5.598,5.598,5.6003,5.6008,5.6008,5.5277,5.4832,5.4832,5.402,5.3153,5.2302,5.2244,5.1893,5.1155,5.1136,5.1153,5.1199,5.1199,5.1199,5.1199,5.1219,5.1238,4.9762,0.0,0.0,0.0,0.0,0.0,0.0,5.0055,0.0,0.0,0.0,0.0,0.0,0.0,0.0,0.0,0.0,0.0,0.0,0.0,0.0,0.0,0.0,0.0,0.0,0.0,0.0,0.0,5.3803,5.3803,5.3803,5.3803,5.3803,5.3803,5.3803,5.3803,5.3803,5.3803,5.3803,5.3803,5.3803,5.3803,5.3803,5.3803,5.3803,5.3803,5.3803,5.3803,5.3803,5.3803,5.3803,5.3803,5.3803,5.3803,5.3803,5.3803,5.3803,5.3803,5.3803,5.386,5.3963,5.4046,5.4137,5.4236,5.4332,5.4366,5.4375,5.4382,5.4581,5.4905,5.5359,5.5607,5.5755,5.5958,5.6008,5.5975,5.5902,5.5675,5.5347,5.4883,5.475,5.4629,5.4432,5.4455,5.4513,5.4513,5.4806,5.5019,5.5019,5.5431,5.572,5.572,5.5889,5.6008,5.6008,5.5795,5.5659,5.5659,5.4909,5.4329,5.4097,5.3482,5.2767,5.1973,5.1973,5.1716,5.1199,5.1199,5.1199,5.1199,5.1804,5.2076,0.0,0.0,0.0,0.0,0.0,0.0,4.932,5.0059,5.0862,0.0,0.0,0.0,0.0,0.0,0.0,0.0,0.0,0.0,0.0,0.0,0.0,0.0,0.0,0.0,0.0,0.0,0.0,5.3803,5.3803,5.3803,5.3803,5.3803,5.3803,5.3803,5.3803,5.3803,5.3803,5.3803,5.3803,5.3803,5.3803,5.3803,5.3803,5.3803,5.3803,5.3803,5.3803,5.3803,5.3803,5.3803,5.3803,5.3803,5.3803,5.3803,5.3803,5.3803,5.3803,5.3813,5.386,5.3935,5.401,5.4146,5.4245,5.4298,5.4383,5.4409,5.4409,5.4409,5.4581,5.4897,5.5317,5.5517,5.5665,5.5944,5.6008,5.6008,5.6008,5.5884,5.5639,5.5224,5.4962,5.4758,5.4581,5.4464,5.4409,5.4409,5.4629,5.4799,5.4799,5.516,5.5483,5.5596,5.574,5.5884,5.5984,5.5698,5.5505,5.5505,5.5064,5.4639,5.4271,5.4116,5.3654,5.2865,5.25,5.1933,5.1199,5.1199,5.1199,5.1199,5.1688,5.1901,0.0,0.0,0.0,0.0,0.0,0.0,4.9817,5.0386,5.0923,0.0,0.0,0.0,0.0,0.0,0.0,0.0,0.0,0.0,0.0,0.0,0.0,0.0,0.0,0.0,0.0,5.3803,5.3803,5.3803,5.3803,5.3803,5.3803,5.3803,5.3803,5.3803,5.3803,5.3803,5.3803,5.3803,5.3803,5.3803,5.3803,5.3803,5.3803,5.3803,5.3803,5.3803,5.3803,5.3803,5.3803,5.3803,5.3803,5.3803,5.3803,5.3803,5.3803,5.3803,5.3803,5.3822,5.3954,5.3991,5.4037,5.4228,5.4317,5.4316,5.4383,5.4409,5.4409,5.4409,5.4576,5.4821,5.5094,5.5347,5.5628,5.5893,5.5975,5.6008,5.6008,5.6008,5.5921,5.568,5.5244,5.4876,5.4858,5.4621,5.4449,5.4449,5.4621,5.4765,5.4765,5.4985,5.5243,5.5489,5.5555,5.5705,5.5944,5.5322,5.4929,5.4929,5.4929,5.4581,5.3807,5.4523,5.454,5.3745,5.2888,5.213,5.1474,5.1296,5.1258,5.1335,5.1335,5.1335,0.0,0.0,0.0,0.0,0.0,0.0,4.9857,5.0089,5.0481,0.0,0.0,0.0,0.0,0.0,0.0,0.0,0.0,0.0,0.0,0.0,0.0,0.0,0.0,0.0,0.0,5.3803,5.3803,5.3803,5.3803,5.3803,5.3803,5.3803,5.3803,5.3803,5.3803,5.3803,5.3803,5.3803,5.3803,5.3803,5.3803,5.3803,5.3803,5.3803,5.3803,5.3803,5.3803,5.3803,5.3803,5.3803,5.3803,5.3803,5.3803,5.3803,5.3803,5.3803,5.3803,5.3822,5.3954,5.4046,5.4091,5.4254,5.4333,5.4383,5.44,5.4409,5.4409,5.4409,5.4441,5.4536,5.4814,5.5087,5.5341,5.5618,5.5837,5.6008,5.6008,5.6008,5.598,5.5921,5.566,5.5384,5.5154,5.4905,5.4727,5.4727,5.4573,5.4472,5.4472,5.4712,5.4897,5.4955,5.5329,5.5623,5.567,5.573,5.5776,5.5776,5.5776,5.5698,5.5524,5.5679,5.5395,5.4587,5.3829,5.3359,5.3206,5.1863,5.1532,5.2173,5.2173,5.2173,0.0,0.0,0.0,5.0493,0.0,0.0,0.0,5.0341,5.0525,0.0,0.0,0.0,0.0,0.0,0.0,0.0,0.0,0.0,0.0,0.0,0.0,0.0,0.0,0.0,0.0,5.3803,5.3803,5.3803,5.3803,5.3803,5.3803,5.3803,5.3803,5.3803,5.3803,5.3803,5.3803,5.3803,5.3803,5.3803,5.3803,5.3803,5.3803,5.3803,5.3803,5.3803,5.3803,5.3803,5.3803,5.3803,5.3803,5.3803,5.3803,5.3803,5.3803,5.3803,5.3841,5.3907,5.4009,5.4128,5.4218,5.4324,5.4366,5.4409,5.4409,5.4409,5.4409,5.4409,5.4409,5.4455,5.4735,5.4897,5.5107,5.5506,5.569,5.5832,5.5971,5.6008,5.6008,5.6008,5.5893,5.57,5.5455,5.5186,5.4998,5.4998,5.4769,5.4589,5.4589,5.4589,5.4704,5.4964,5.5237,5.5511,5.5789,5.5916,5.6008,5.6008,5.6008,5.6008,5.6008,5.6008,5.5631,5.4859,5.4499,5.41,5.3692,5.2856,5.2643,5.3051,5.3051,5.3051,0.0,0.0,0.0,0.0,0.0,5.0745,0.0,0.0,0.0,5.1111,0.0,0.0,0.0,0.0,0.0,0.0,0.0,0.0,0.0,0.0,0.0,0.0,0.0,0.0,0.0,5.3832,5.3803,5.3803,5.3803,5.3803,5.3803,5.3803,5.3803,5.3803,5.3803,5.3803,5.3803,5.3803,5.3877,5.4026,5.4026,5.4128,5.4277,5.4277,5.4193,5.4026,5.4026,5.3933,5.3803,5.3803,5.3803,5.3803,5.3803,5.3803,5.3794,5.3832,5.3916,5.401,5.4101,5.4209,5.4298,5.4375,5.4409,5.4409,5.4409,5.4409,5.4409,5.4409,5.4409,5.4458,5.4676,5.4754,5.4905,5.5335,5.5522,5.5654,5.5884,5.5962,5.6008,5.6008,5.6008,5.5921,5.57,5.5441,5.5274,5.5274,5.5053,5.4876,5.4876,5.4645,5.4657,5.5147,5.5199,5.5408,5.5884,5.5967,5.6008,5.6008,5.6008,5.6008,5.6008,5.6008,5.574,5.5164,5.5158,5.4831,5.4197,5.4197,5.4022,5.3692,5.3692,5.3692,0.0,0.0,0.0,0.0,5.1221,0.0,0.0,0.0,5.1111,5.2606,0.0,0.0,0.0,0.0,0.0,0.0,0.0,0.0,0.0,0.0,0.0,0.0,0.0,0.0,0.0,0.0,5.3803,5.3803,5.3803,5.3803,5.3803,5.3803,5.3803,5.3803,5.3803,5.3803,5.3803,5.3803,5.4156,5.4862,5.4862,5.527,5.6023,5.6023,5.5586,5.4862,5.4862,5.4453,5.3803,5.3803,5.3803,5.3803,5.3803,5.3803,5.3804,5.3935,5.4,5.4037,5.421,5.429,5.4298,5.4375,5.4409,5.4409,5.4409,5.4409,5.4409,5.4409,5.4409,5.4417,5.4441,5.4621,5.4814,5.4887,5.5243,5.5612,5.5639,5.5832,5.6008,5.6008,5.6008,5.5984,5.5962,5.5735,5.555,5.555,5.5323,5.5147,5.5147,5.4926,5.4861,5.5167,5.5199,5.5317,5.5623,5.5856,5.6008,5.6008,5.6008,5.6008,5.6008,5.6008,5.6011,5.604,5.6048,5.6049,5.6003,5.6003,5.5207,5.3692,5.3692,5.3692,0.0,0.0,0.0,0.0,0.0,0.0,0.0,0.0,5.2473,0.0,0.0,0.0,0.0,0.0,0.0,0.0,0.0,0.0,0.0,0.0,0.0,0.0,0.0,0.0,0.0,0.0,0.0,0.0,0.0,5.3803,5.3803,5.3803,5.3803,5.3803,5.3803,5.3803,5.3803,5.3803,5.4193,5.4992,5.4992,5.5456,5.6302,5.6302,5.6097,5.5763,5.5803,5.531,5.45,5.4624,5.4364,5.3926,5.3963,5.3954,5.3926,5.3972,5.4074,5.4183,5.4273,5.4324,5.4357,5.4392,5.4409,5.4409,5.4409,5.4409,5.4409,5.4409,5.4409,5.4409,5.4409,5.448,5.4597,5.4754,5.4964,5.5212,5.5528,5.568,5.5818,5.5967,5.6008,5.6008,5.6008,5.5902,5.5832,5.5832,5.5593,5.5424,5.5424,5.5193,5.5128,5.5395,5.5424,5.5539,5.5813,5.5944,5.6008,5.6008,5.6008,5.6008,5.6008,5.6008,5.6037,5.6141,5.6141,5.6164,5.6242,5.6242,5.5883,5.5207,5.5207,5.5207,5.3895,0.0,0.0,0.0,0.0,0.0,0.0,0.0,0.0,0.0,0.0,0.0,0.0,0.0,0.0,0.0,0.0,0.0,0.0,0.0,0.0,0.0,0.0,0.0,0.0,0.0,0.0,0.0,0.0,0.0,5.3469,5.3469,5.3571,5.3784,5.3803,5.3803,5.3803,5.4007,5.4527,5.5363,5.5567,5.6125,5.697,5.697,5.685,5.6657,5.6718,5.6244,5.5433,5.5343,5.4932,5.4335,5.4166,5.4091,5.4083,5.4083,5.4174,5.4308,5.4316,5.4349,5.4409,5.4409,5.4409,5.4409,5.4409,5.4409,5.4409,5.4409,5.4409,5.4409,5.4409,5.4447,5.4536,5.4668,5.4806,5.5012,5.5414,5.5544,5.5675,5.5953,5.6008,5.6008,5.6008,5.6008,5.6008,5.6008,5.5832,5.5715,5.5715,5.5483,5.5406,5.5675,5.5644,5.5715,5.5971,5.6008,5.6008,5.6008,5.6008,5.6008,5.6008,5.6008,5.6029,5.6094,5.6098,5.6137,5.6199,5.6199,5.6239,5.6295,5.6295,5.6295,0.0,0.0,0.0,5.4462,0.0,0.0,0.0,0.0,5.3864,0.0,0.0,0.0,0.0,0.0,0.0,0.0,0.0,0.0,0.0,0.0,0.0,0.0,0.0,0.0,0.0,0.0,0.0,0.0,0.0,0.0,5.2642,5.2642,5.2995,5.3775,5.3803,5.3803,5.3803,5.4564,5.54,5.6265,5.7045,5.7843,5.8613,5.8613,5.8229,5.7567,5.7567,5.7179,5.6472,5.566,5.5286,5.5174,5.4399,5.4191,5.429,5.429,5.4299,5.4317,5.4375,5.4409,5.4409,5.4409,5.4409,5.4409,5.4409,5.4409,5.4409,5.4409,5.4409,5.4409,5.4409,5.4581,5.4727,5.4464,5.4802,5.5193,5.5205,5.5426,5.5675,5.5953,5.6008,5.6008,5.6008,5.6008,5.6008,5.6008,5.5984,5.5999,5.5999,5.575,5.568,5.5962,5.575,5.5715,5.5971,5.6008,5.6008,5.6008,5.6008,5.6008,5.6008,5.6008,5.6029,5.6094,5.6098,5.6137,5.6199,5.6199,5.6239,5.6295,5.6295,5.6295,0.0,0.0,5.5373,5.5422,0.0,0.0,0.0,0.0,0.0,0.0,0.0,0.0,0.0,0.0,0.0,0.0,0.0,0.0,0.0,0.0,0.0,0.0,0.0,0.0,0.0,0.0,0.0,0.0,0.0,0.0,0.0,5.2605,5.2977,5.3766,5.3803,5.3803,5.3803,5.4602,5.5447,5.632,5.7119,5.7907,5.8698,5.8789,5.871,5.8471,5.8601,5.8183,5.7379,5.722,5.6471,5.5414,5.5169,5.48,5.4349,5.4326,5.4324,5.4366,5.44,5.4409,5.4432,5.4597,5.4544,5.4432,5.4605,5.4536,5.4409,5.4409,5.4409,5.4409,5.4409,5.4483,5.4513,5.4415,5.4673,5.4978,5.516,5.5401,5.5675,5.5953,5.6008,5.6008,5.6008,5.6008,5.6008,5.6008,5.6008,5.6008,5.6008,5.5916,5.5898,5.5984,5.5912,5.5902,5.5984,5.6008,5.6008,5.6008,5.6008,5.6008,5.6008,5.6008,5.6016,5.6033,5.6033,5.6062,5.6141,5.6187,5.6201,5.6239,5.6282,5.6295,5.5261,5.5326,0.0,5.5605,5.5665,0.0,5.5847,0.0,0.0,0.0,0.0,0.0,0.0,0.0,0.0,0.0,0.0,0.0,0.0,5.3782,0.0,0.0,0.0,0.0,0.0,0.0,0.0,0.0,0.0,0.0,0.0,0.0,5.2679,5.3766,5.3803,5.3803,5.3803,5.4899,5.5735,5.632,5.7416,5.8205,5.8698,5.8779,5.886,5.8941,5.9071,5.8839,5.8315,5.8165,5.7264,5.5963,5.5707,5.5114,5.4382,5.434,5.4357,5.4409,5.4409,5.4409,5.4432,5.4597,5.4536,5.4432,5.4597,5.4527,5.4409,5.4409,5.4409,5.4409,5.4409,5.4464,5.4522,5.4424,5.4597,5.4868,5.5134,5.5329,5.558,5.5921,5.6008,5.6008,5.6008,5.6008,5.6008,5.6008,5.6008,5.6008,5.6008,5.6008,5.6008,5.6008,5.6008,5.6008,5.6008,5.6008,5.6008,5.6008,5.6008,5.6008,5.6008,5.6008,5.6008,5.6008,5.6008,5.6029,5.6098,5.6145,5.6187,5.6199,5.6242,5.6282]}]]